﻿<?xml version="1.0" encoding="UTF-8" standalone="no"?>
<gpx xmlns="http://www.topografix.com/GPX/1/1" xmlns:gpxtpx="http://www.garmin.com/xmlschemas/TrackPointExtension/v1" xmlns:xsi="http://www.w3.org/2001/XMLSchema-instance" creator="Hribi.net" version="1.1" xsi:schemaLocation="http://www.topografix.com/GPX/1/1 http://www.topografix.com/GPX/1/1/gpx.xsd http://www.garmin.com/xmlschemas/TrackPointExtension/v1 http://www.garmin.com/xmlschemas/TrackPointExtensionv1.xsd">
  <metadata>
    <name>GPS sled</name>
    <desc>www.hribi.net</desc>
    <author>
      <name>hribi.net</name>
    </author>
    <link href="http://www.hribi.net">
      <text>Hribi.net</text>
    </link>
  </metadata>
  <trk>
    <trkseg>
      <trkpt lat="46.432047" lon="14.734989">
        <ele>1375.8672</ele>
        <time>2010-09-21T06:59:24Z</time>
      </trkpt>
      <trkpt lat="46.432047" lon="14.734989">
        <ele>1375.8672</ele>
        <time>2010-09-21T06:59:29Z</time>
      </trkpt>
      <trkpt lat="46.432047" lon="14.734989">
        <ele>1375.8672</ele>
        <time>2010-09-21T06:59:36Z</time>
      </trkpt>
      <trkpt lat="46.432053" lon="14.734994">
        <ele>1375.8672</ele>
        <time>2010-09-21T06:59:41Z</time>
      </trkpt>
      <trkpt lat="46.432053" lon="14.734994">
        <ele>1375.8672</ele>
        <time>2010-09-21T06:59:48Z</time>
      </trkpt>
      <trkpt lat="46.432064" lon="14.734994">
        <ele>1377.0864</ele>
        <time>2010-09-21T06:59:55Z</time>
      </trkpt>
      <trkpt lat="46.432064" lon="14.734994">
        <ele>1377.0864</ele>
        <time>2010-09-21T07:00:00Z</time>
      </trkpt>
      <trkpt lat="46.432058" lon="14.735000">
        <ele>1377.0864</ele>
        <time>2010-09-21T07:00:07Z</time>
      </trkpt>
      <trkpt lat="46.432069" lon="14.734994">
        <ele>1378.0008</ele>
        <time>2010-09-21T07:00:12Z</time>
      </trkpt>
      <trkpt lat="46.432069" lon="14.735000">
        <ele>1378.0008</ele>
        <time>2010-09-21T07:00:19Z</time>
      </trkpt>
      <trkpt lat="46.432069" lon="14.735000">
        <ele>1377.0864</ele>
        <time>2010-09-21T07:00:24Z</time>
      </trkpt>
      <trkpt lat="46.432064" lon="14.734989">
        <ele>1377.0864</ele>
        <time>2010-09-21T07:00:31Z</time>
      </trkpt>
      <trkpt lat="46.432064" lon="14.734983">
        <ele>1377.0864</ele>
        <time>2010-09-21T07:00:36Z</time>
      </trkpt>
      <trkpt lat="46.432117" lon="14.735000">
        <ele>1377.0864</ele>
        <time>2010-09-21T07:00:43Z</time>
      </trkpt>
      <trkpt lat="46.432117" lon="14.735016">
        <ele>1378.0008</ele>
        <time>2010-09-21T07:00:49Z</time>
      </trkpt>
      <trkpt lat="46.432117" lon="14.735021">
        <ele>1378.9152</ele>
        <time>2010-09-21T07:00:54Z</time>
      </trkpt>
      <trkpt lat="46.432085" lon="14.735059">
        <ele>1381.0488</ele>
        <time>2010-09-21T07:01:01Z</time>
      </trkpt>
      <trkpt lat="46.432047" lon="14.735091">
        <ele>1381.9632</ele>
        <time>2010-09-21T07:01:06Z</time>
      </trkpt>
      <trkpt lat="46.432026" lon="14.735155">
        <ele>1385.0112</ele>
        <time>2010-09-21T07:01:13Z</time>
      </trkpt>
      <trkpt lat="46.432021" lon="14.735203">
        <ele>1385.9256</ele>
        <time>2010-09-21T07:01:18Z</time>
      </trkpt>
      <trkpt lat="46.432021" lon="14.735203">
        <ele>1385.9256</ele>
        <time>2010-09-21T07:01:25Z</time>
      </trkpt>
      <trkpt lat="46.432021" lon="14.735198">
        <ele>1387.1448</ele>
        <time>2010-09-21T07:01:30Z</time>
      </trkpt>
      <trkpt lat="46.432021" lon="14.735198">
        <ele>1387.1448</ele>
        <time>2010-09-21T07:01:37Z</time>
      </trkpt>
      <trkpt lat="46.432026" lon="14.735225">
        <ele>1387.1448</ele>
        <time>2010-09-21T07:01:43Z</time>
      </trkpt>
      <trkpt lat="46.432031" lon="14.735241">
        <ele>1388.0592</ele>
        <time>2010-09-21T07:01:48Z</time>
      </trkpt>
      <trkpt lat="46.432053" lon="14.735327">
        <ele>1388.9736</ele>
        <time>2010-09-21T07:01:55Z</time>
      </trkpt>
      <trkpt lat="46.432064" lon="14.735402">
        <ele>1388.9736</ele>
        <time>2010-09-21T07:02:00Z</time>
      </trkpt>
      <trkpt lat="46.432101" lon="14.735461">
        <ele>1391.1072</ele>
        <time>2010-09-21T07:02:07Z</time>
      </trkpt>
      <trkpt lat="46.432133" lon="14.735531">
        <ele>1391.1072</ele>
        <time>2010-09-21T07:02:12Z</time>
      </trkpt>
      <trkpt lat="46.432182" lon="14.735638">
        <ele>1392.0216</ele>
        <time>2010-09-21T07:02:19Z</time>
      </trkpt>
      <trkpt lat="46.432176" lon="14.735686">
        <ele>1395.0696</ele>
        <time>2010-09-21T07:02:24Z</time>
      </trkpt>
      <trkpt lat="46.432160" lon="14.735761">
        <ele>1398.1176</ele>
        <time>2010-09-21T07:02:31Z</time>
      </trkpt>
      <trkpt lat="46.432144" lon="14.735836">
        <ele>1398.1176</ele>
        <time>2010-09-21T07:02:37Z</time>
      </trkpt>
      <trkpt lat="46.432133" lon="14.735911">
        <ele>1399.032</ele>
        <time>2010-09-21T07:02:42Z</time>
      </trkpt>
      <trkpt lat="46.432128" lon="14.735987">
        <ele>1399.9464</ele>
        <time>2010-09-21T07:02:49Z</time>
      </trkpt>
      <trkpt lat="46.432123" lon="14.736078">
        <ele>1399.9464</ele>
        <time>2010-09-21T07:02:54Z</time>
      </trkpt>
      <trkpt lat="46.432112" lon="14.736094">
        <ele>1400.8608</ele>
        <time>2010-09-21T07:03:01Z</time>
      </trkpt>
      <trkpt lat="46.432117" lon="14.736212">
        <ele>1402.08</ele>
        <time>2010-09-21T07:03:06Z</time>
      </trkpt>
      <trkpt lat="46.432133" lon="14.736308">
        <ele>1402.9944</ele>
        <time>2010-09-21T07:03:13Z</time>
      </trkpt>
      <trkpt lat="46.432133" lon="14.736405">
        <ele>1403.9088</ele>
        <time>2010-09-21T07:03:18Z</time>
      </trkpt>
      <trkpt lat="46.432117" lon="14.736496">
        <ele>1405.128</ele>
        <time>2010-09-21T07:03:25Z</time>
      </trkpt>
      <trkpt lat="46.432117" lon="14.736620">
        <ele>1407.8712</ele>
        <time>2010-09-21T07:03:31Z</time>
      </trkpt>
      <trkpt lat="46.432106" lon="14.736673">
        <ele>1407.8712</ele>
        <time>2010-09-21T07:03:36Z</time>
      </trkpt>
      <trkpt lat="46.432080" lon="14.736684">
        <ele>1407.8712</ele>
        <time>2010-09-21T07:03:43Z</time>
      </trkpt>
      <trkpt lat="46.432096" lon="14.736861">
        <ele>1410.0048</ele>
        <time>2010-09-21T07:03:48Z</time>
      </trkpt>
      <trkpt lat="46.432074" lon="14.736947">
        <ele>1407.8712</ele>
        <time>2010-09-21T07:03:55Z</time>
      </trkpt>
      <trkpt lat="46.432053" lon="14.737022">
        <ele>1410.0048</ele>
        <time>2010-09-21T07:04:00Z</time>
      </trkpt>
      <trkpt lat="46.432010" lon="14.737097">
        <ele>1410.0048</ele>
        <time>2010-09-21T07:04:07Z</time>
      </trkpt>
      <trkpt lat="46.431967" lon="14.737183">
        <ele>1410.9192</ele>
        <time>2010-09-21T07:04:12Z</time>
      </trkpt>
      <trkpt lat="46.431940" lon="14.737279">
        <ele>1410.9192</ele>
        <time>2010-09-21T07:04:19Z</time>
      </trkpt>
      <trkpt lat="46.431924" lon="14.737408">
        <ele>1410.9192</ele>
        <time>2010-09-21T07:04:25Z</time>
      </trkpt>
      <trkpt lat="46.431913" lon="14.737515">
        <ele>1410.9192</ele>
        <time>2010-09-21T07:04:30Z</time>
      </trkpt>
      <trkpt lat="46.431897" lon="14.737612">
        <ele>1412.1384</ele>
        <time>2010-09-21T07:04:37Z</time>
      </trkpt>
      <trkpt lat="46.431892" lon="14.737644">
        <ele>1410.9192</ele>
        <time>2010-09-21T07:04:42Z</time>
      </trkpt>
      <trkpt lat="46.431897" lon="14.737730">
        <ele>1410.9192</ele>
        <time>2010-09-21T07:04:49Z</time>
      </trkpt>
      <trkpt lat="46.431887" lon="14.737794">
        <ele>1413.0528</ele>
        <time>2010-09-21T07:04:54Z</time>
      </trkpt>
      <trkpt lat="46.431887" lon="14.737843">
        <ele>1413.0528</ele>
        <time>2010-09-21T07:05:01Z</time>
      </trkpt>
      <trkpt lat="46.431903" lon="14.737880">
        <ele>1413.9672</ele>
        <time>2010-09-21T07:05:06Z</time>
      </trkpt>
      <trkpt lat="46.431935" lon="14.737918">
        <ele>1413.0528</ele>
        <time>2010-09-21T07:05:13Z</time>
      </trkpt>
      <trkpt lat="46.431935" lon="14.737988">
        <ele>1410.9192</ele>
        <time>2010-09-21T07:05:19Z</time>
      </trkpt>
      <trkpt lat="46.431913" lon="14.738084">
        <ele>1412.1384</ele>
        <time>2010-09-21T07:05:24Z</time>
      </trkpt>
      <trkpt lat="46.431897" lon="14.738122">
        <ele>1413.9672</ele>
        <time>2010-09-21T07:05:31Z</time>
      </trkpt>
      <trkpt lat="46.431919" lon="14.738245">
        <ele>1414.8816</ele>
        <time>2010-09-21T07:05:36Z</time>
      </trkpt>
      <trkpt lat="46.431924" lon="14.738283">
        <ele>1416.1008</ele>
        <time>2010-09-21T07:05:43Z</time>
      </trkpt>
      <trkpt lat="46.431994" lon="14.738368">
        <ele>1417.0152</ele>
        <time>2010-09-21T07:05:48Z</time>
      </trkpt>
      <trkpt lat="46.431999" lon="14.738417">
        <ele>1417.9296</ele>
        <time>2010-09-21T07:05:55Z</time>
      </trkpt>
      <trkpt lat="46.432015" lon="14.738470">
        <ele>1417.9296</ele>
        <time>2010-09-21T07:06:00Z</time>
      </trkpt>
      <trkpt lat="46.432047" lon="14.738556">
        <ele>1416.1008</ele>
        <time>2010-09-21T07:06:07Z</time>
      </trkpt>
      <trkpt lat="46.432112" lon="14.738706">
        <ele>1417.0152</ele>
        <time>2010-09-21T07:06:13Z</time>
      </trkpt>
      <trkpt lat="46.432155" lon="14.738733">
        <ele>1417.0152</ele>
        <time>2010-09-21T07:06:18Z</time>
      </trkpt>
      <trkpt lat="46.432241" lon="14.738765">
        <ele>1419.1488</ele>
        <time>2010-09-21T07:06:25Z</time>
      </trkpt>
      <trkpt lat="46.432284" lon="14.738787">
        <ele>1423.1112</ele>
        <time>2010-09-21T07:06:30Z</time>
      </trkpt>
      <trkpt lat="46.432316" lon="14.738776">
        <ele>1424.94</ele>
        <time>2010-09-21T07:06:37Z</time>
      </trkpt>
      <trkpt lat="46.432321" lon="14.738835">
        <ele>1424.94</ele>
        <time>2010-09-21T07:06:42Z</time>
      </trkpt>
      <trkpt lat="46.432326" lon="14.738830">
        <ele>1425.8544</ele>
        <time>2010-09-21T07:06:49Z</time>
      </trkpt>
      <trkpt lat="46.432332" lon="14.738840">
        <ele>1427.988</ele>
        <time>2010-09-21T07:06:54Z</time>
      </trkpt>
      <trkpt lat="46.432396" lon="14.738980">
        <ele>1425.8544</ele>
        <time>2010-09-21T07:07:01Z</time>
      </trkpt>
      <trkpt lat="46.432444" lon="14.739076">
        <ele>1424.0256</ele>
        <time>2010-09-21T07:07:07Z</time>
      </trkpt>
      <trkpt lat="46.432450" lon="14.739109">
        <ele>1424.94</ele>
        <time>2010-09-21T07:07:12Z</time>
      </trkpt>
      <trkpt lat="46.432450" lon="14.739114">
        <ele>1424.94</ele>
        <time>2010-09-21T07:07:19Z</time>
      </trkpt>
      <trkpt lat="46.432450" lon="14.739136">
        <ele>1425.8544</ele>
        <time>2010-09-21T07:07:24Z</time>
      </trkpt>
      <trkpt lat="46.432461" lon="14.739200">
        <ele>1427.0736</ele>
        <time>2010-09-21T07:07:31Z</time>
      </trkpt>
      <trkpt lat="46.432477" lon="14.739221">
        <ele>1427.0736</ele>
        <time>2010-09-21T07:07:36Z</time>
      </trkpt>
      <trkpt lat="46.432514" lon="14.739377">
        <ele>1431.036</ele>
        <time>2010-09-21T07:07:43Z</time>
      </trkpt>
      <trkpt lat="46.432493" lon="14.739436">
        <ele>1431.9504</ele>
        <time>2010-09-21T07:07:48Z</time>
      </trkpt>
      <trkpt lat="46.432482" lon="14.739457">
        <ele>1432.8648</ele>
        <time>2010-09-21T07:07:55Z</time>
      </trkpt>
      <trkpt lat="46.432477" lon="14.739532">
        <ele>1431.9504</ele>
        <time>2010-09-21T07:08:01Z</time>
      </trkpt>
      <trkpt lat="46.432471" lon="14.739650">
        <ele>1431.036</ele>
        <time>2010-09-21T07:08:06Z</time>
      </trkpt>
      <trkpt lat="46.432455" lon="14.739752">
        <ele>1430.1216</ele>
        <time>2010-09-21T07:08:13Z</time>
      </trkpt>
      <trkpt lat="46.432444" lon="14.739817">
        <ele>1431.9504</ele>
        <time>2010-09-21T07:08:18Z</time>
      </trkpt>
      <trkpt lat="46.432428" lon="14.739903">
        <ele>1431.9504</ele>
        <time>2010-09-21T07:08:25Z</time>
      </trkpt>
      <trkpt lat="46.432461" lon="14.740010">
        <ele>1432.8648</ele>
        <time>2010-09-21T07:08:30Z</time>
      </trkpt>
      <trkpt lat="46.432525" lon="14.740144">
        <ele>1434.084</ele>
        <time>2010-09-21T07:08:37Z</time>
      </trkpt>
      <trkpt lat="46.432573" lon="14.740182">
        <ele>1434.9984</ele>
        <time>2010-09-21T07:08:42Z</time>
      </trkpt>
      <trkpt lat="46.432568" lon="14.740257">
        <ele>1434.084</ele>
        <time>2010-09-21T07:08:49Z</time>
      </trkpt>
      <trkpt lat="46.432621" lon="14.740332">
        <ele>1432.8648</ele>
        <time>2010-09-21T07:08:55Z</time>
      </trkpt>
      <trkpt lat="46.432627" lon="14.740407">
        <ele>1434.9984</ele>
        <time>2010-09-21T07:09:00Z</time>
      </trkpt>
      <trkpt lat="46.432654" lon="14.740385">
        <ele>1434.9984</ele>
        <time>2010-09-21T07:09:07Z</time>
      </trkpt>
      <trkpt lat="46.432643" lon="14.740380">
        <ele>1434.084</ele>
        <time>2010-09-21T07:09:12Z</time>
      </trkpt>
      <trkpt lat="46.432654" lon="14.740461">
        <ele>1434.9984</ele>
        <time>2010-09-21T07:09:19Z</time>
      </trkpt>
      <trkpt lat="46.432659" lon="14.740471">
        <ele>1434.084</ele>
        <time>2010-09-21T07:09:24Z</time>
      </trkpt>
      <trkpt lat="46.432702" lon="14.740584">
        <ele>1437.132</ele>
        <time>2010-09-21T07:09:31Z</time>
      </trkpt>
      <trkpt lat="46.432691" lon="14.740638">
        <ele>1438.0464</ele>
        <time>2010-09-21T07:09:36Z</time>
      </trkpt>
      <trkpt lat="46.432702" lon="14.740729">
        <ele>1434.9984</ele>
        <time>2010-09-21T07:09:43Z</time>
      </trkpt>
      <trkpt lat="46.432718" lon="14.740782">
        <ele>1437.132</ele>
        <time>2010-09-21T07:09:49Z</time>
      </trkpt>
      <trkpt lat="46.432729" lon="14.740820">
        <ele>1437.132</ele>
        <time>2010-09-21T07:09:54Z</time>
      </trkpt>
      <trkpt lat="46.432739" lon="14.740895">
        <ele>1434.9984</ele>
        <time>2010-09-21T07:10:01Z</time>
      </trkpt>
      <trkpt lat="46.432766" lon="14.740986">
        <ele>1434.084</ele>
        <time>2010-09-21T07:10:06Z</time>
      </trkpt>
      <trkpt lat="46.432841" lon="14.741051">
        <ele>1437.132</ele>
        <time>2010-09-21T07:10:13Z</time>
      </trkpt>
      <trkpt lat="46.432858" lon="14.741195">
        <ele>1438.9608</ele>
        <time>2010-09-21T07:10:18Z</time>
      </trkpt>
      <trkpt lat="46.432852" lon="14.741254">
        <ele>1437.132</ele>
        <time>2010-09-21T07:10:25Z</time>
      </trkpt>
      <trkpt lat="46.432831" lon="14.741324">
        <ele>1438.9608</ele>
        <time>2010-09-21T07:10:30Z</time>
      </trkpt>
      <trkpt lat="46.432841" lon="14.741399">
        <ele>1441.0944</ele>
        <time>2010-09-21T07:10:37Z</time>
      </trkpt>
      <trkpt lat="46.432831" lon="14.741415">
        <ele>1441.0944</ele>
        <time>2010-09-21T07:10:43Z</time>
      </trkpt>
      <trkpt lat="46.432841" lon="14.741453">
        <ele>1441.0944</ele>
        <time>2010-09-21T07:10:48Z</time>
      </trkpt>
      <trkpt lat="46.432831" lon="14.741496">
        <ele>1444.1424</ele>
        <time>2010-09-21T07:10:55Z</time>
      </trkpt>
      <trkpt lat="46.432804" lon="14.741566">
        <ele>1445.0568</ele>
        <time>2010-09-21T07:11:00Z</time>
      </trkpt>
      <trkpt lat="46.432793" lon="14.741576">
        <ele>1444.1424</ele>
        <time>2010-09-21T07:11:07Z</time>
      </trkpt>
      <trkpt lat="46.432745" lon="14.741668">
        <ele>1446.8856</ele>
        <time>2010-09-21T07:11:12Z</time>
      </trkpt>
      <trkpt lat="46.432739" lon="14.741802">
        <ele>1445.9712</ele>
        <time>2010-09-21T07:11:19Z</time>
      </trkpt>
      <trkpt lat="46.432691" lon="14.741893">
        <ele>1446.8856</ele>
        <time>2010-09-21T07:11:24Z</time>
      </trkpt>
      <trkpt lat="46.432659" lon="14.741963">
        <ele>1449.9336</ele>
        <time>2010-09-21T07:11:31Z</time>
      </trkpt>
      <trkpt lat="46.432621" lon="14.742011">
        <ele>1449.9336</ele>
        <time>2010-09-21T07:11:37Z</time>
      </trkpt>
      <trkpt lat="46.432552" lon="14.742038">
        <ele>1452.9816</ele>
        <time>2010-09-21T07:11:42Z</time>
      </trkpt>
      <trkpt lat="46.432536" lon="14.742123">
        <ele>1455.1152</ele>
        <time>2010-09-21T07:11:49Z</time>
      </trkpt>
      <trkpt lat="46.432514" lon="14.742258">
        <ele>1453.896</ele>
        <time>2010-09-21T07:11:54Z</time>
      </trkpt>
      <trkpt lat="46.432541" lon="14.742376">
        <ele>1452.9816</ele>
        <time>2010-09-21T07:12:01Z</time>
      </trkpt>
      <trkpt lat="46.432562" lon="14.742397">
        <ele>1452.9816</ele>
        <time>2010-09-21T07:12:06Z</time>
      </trkpt>
      <trkpt lat="46.432525" lon="14.742392">
        <ele>1452.9816</ele>
        <time>2010-09-21T07:12:13Z</time>
      </trkpt>
      <trkpt lat="46.432434" lon="14.742478">
        <ele>1452.9816</ele>
        <time>2010-09-21T07:12:18Z</time>
      </trkpt>
      <trkpt lat="46.432423" lon="14.742526">
        <ele>1452.9816</ele>
        <time>2010-09-21T07:12:25Z</time>
      </trkpt>
      <trkpt lat="46.432418" lon="14.742547">
        <ele>1453.896</ele>
        <time>2010-09-21T07:12:31Z</time>
      </trkpt>
      <trkpt lat="46.432364" lon="14.742574">
        <ele>1459.0776</ele>
        <time>2010-09-21T07:12:36Z</time>
      </trkpt>
      <trkpt lat="46.432310" lon="14.742633">
        <ele>1459.0776</ele>
        <time>2010-09-21T07:12:43Z</time>
      </trkpt>
      <trkpt lat="46.432273" lon="14.742633">
        <ele>1460.9064</ele>
        <time>2010-09-21T07:12:48Z</time>
      </trkpt>
      <trkpt lat="46.432176" lon="14.742681">
        <ele>1463.04</ele>
        <time>2010-09-21T07:12:55Z</time>
      </trkpt>
      <trkpt lat="46.432139" lon="14.742703">
        <ele>1464.8688</ele>
        <time>2010-09-21T07:13:00Z</time>
      </trkpt>
      <trkpt lat="46.432069" lon="14.742714">
        <ele>1467.0024</ele>
        <time>2010-09-21T07:13:07Z</time>
      </trkpt>
      <trkpt lat="46.432005" lon="14.742676">
        <ele>1467.0024</ele>
        <time>2010-09-21T07:13:12Z</time>
      </trkpt>
      <trkpt lat="46.431946" lon="14.742805">
        <ele>1469.136</ele>
        <time>2010-09-21T07:13:19Z</time>
      </trkpt>
      <trkpt lat="46.431924" lon="14.742923">
        <ele>1467.9168</ele>
        <time>2010-09-21T07:13:25Z</time>
      </trkpt>
      <trkpt lat="46.431892" lon="14.742907">
        <ele>1469.136</ele>
        <time>2010-09-21T07:13:30Z</time>
      </trkpt>
      <trkpt lat="46.431881" lon="14.742896">
        <ele>1464.8688</ele>
        <time>2010-09-21T07:13:37Z</time>
      </trkpt>
      <trkpt lat="46.431919" lon="14.742923">
        <ele>1463.9544</ele>
        <time>2010-09-21T07:13:42Z</time>
      </trkpt>
      <trkpt lat="46.431913" lon="14.742923">
        <ele>1463.9544</ele>
        <time>2010-09-21T07:13:49Z</time>
      </trkpt>
      <trkpt lat="46.431876" lon="14.742998">
        <ele>1463.9544</ele>
        <time>2010-09-21T07:13:54Z</time>
      </trkpt>
      <trkpt lat="46.431736" lon="14.742912">
        <ele>1467.0024</ele>
        <time>2010-09-21T07:14:01Z</time>
      </trkpt>
      <trkpt lat="46.431699" lon="14.742794">
        <ele>1471.8792</ele>
        <time>2010-09-21T07:14:06Z</time>
      </trkpt>
      <trkpt lat="46.431613" lon="14.742799">
        <ele>1471.8792</ele>
        <time>2010-09-21T07:14:13Z</time>
      </trkpt>
      <trkpt lat="46.431602" lon="14.742789">
        <ele>1470.9648</ele>
        <time>2010-09-21T07:14:19Z</time>
      </trkpt>
      <trkpt lat="46.431549" lon="14.742778">
        <ele>1470.0504</ele>
        <time>2010-09-21T07:14:24Z</time>
      </trkpt>
      <trkpt lat="46.431473" lon="14.742783">
        <ele>1469.136</ele>
        <time>2010-09-21T07:14:31Z</time>
      </trkpt>
      <trkpt lat="46.431414" lon="14.742767">
        <ele>1467.0024</ele>
        <time>2010-09-21T07:14:36Z</time>
      </trkpt>
      <trkpt lat="46.431323" lon="14.742778">
        <ele>1466.088</ele>
        <time>2010-09-21T07:14:43Z</time>
      </trkpt>
      <trkpt lat="46.431259" lon="14.742944">
        <ele>1464.8688</ele>
        <time>2010-09-21T07:14:48Z</time>
      </trkpt>
      <trkpt lat="46.431221" lon="14.743030">
        <ele>1463.04</ele>
        <time>2010-09-21T07:14:55Z</time>
      </trkpt>
      <trkpt lat="46.431221" lon="14.743003">
        <ele>1463.9544</ele>
        <time>2010-09-21T07:15:00Z</time>
      </trkpt>
      <trkpt lat="46.431178" lon="14.743025">
        <ele>1464.8688</ele>
        <time>2010-09-21T07:15:07Z</time>
      </trkpt>
      <trkpt lat="46.431082" lon="14.742944">
        <ele>1469.136</ele>
        <time>2010-09-21T07:15:13Z</time>
      </trkpt>
      <trkpt lat="46.431055" lon="14.742960">
        <ele>1470.0504</ele>
        <time>2010-09-21T07:15:18Z</time>
      </trkpt>
      <trkpt lat="46.431060" lon="14.742971">
        <ele>1470.0504</ele>
        <time>2010-09-21T07:15:25Z</time>
      </trkpt>
      <trkpt lat="46.431023" lon="14.742993">
        <ele>1467.0024</ele>
        <time>2010-09-21T07:15:30Z</time>
      </trkpt>
      <trkpt lat="46.430991" lon="14.743003">
        <ele>1464.8688</ele>
        <time>2010-09-21T07:15:37Z</time>
      </trkpt>
      <trkpt lat="46.430932" lon="14.742976">
        <ele>1463.9544</ele>
        <time>2010-09-21T07:15:42Z</time>
      </trkpt>
      <trkpt lat="46.430916" lon="14.742998">
        <ele>1460.9064</ele>
        <time>2010-09-21T07:15:49Z</time>
      </trkpt>
      <trkpt lat="46.430840" lon="14.742955">
        <ele>1459.0776</ele>
        <time>2010-09-21T07:15:54Z</time>
      </trkpt>
      <trkpt lat="46.430706" lon="14.742928">
        <ele>1459.992</ele>
        <time>2010-09-21T07:16:01Z</time>
      </trkpt>
      <trkpt lat="46.430658" lon="14.742939">
        <ele>1462.1256</ele>
        <time>2010-09-21T07:16:07Z</time>
      </trkpt>
      <trkpt lat="46.430567" lon="14.742875">
        <ele>1464.8688</ele>
        <time>2010-09-21T07:16:12Z</time>
      </trkpt>
      <trkpt lat="46.430519" lon="14.742934">
        <ele>1464.8688</ele>
        <time>2010-09-21T07:16:19Z</time>
      </trkpt>
      <trkpt lat="46.430465" lon="14.743019">
        <ele>1463.9544</ele>
        <time>2010-09-21T07:16:24Z</time>
      </trkpt>
      <trkpt lat="46.430427" lon="14.742987">
        <ele>1463.9544</ele>
        <time>2010-09-21T07:16:31Z</time>
      </trkpt>
      <trkpt lat="46.430368" lon="14.742971">
        <ele>1466.088</ele>
        <time>2010-09-21T07:16:36Z</time>
      </trkpt>
      <trkpt lat="46.430326" lon="14.743003">
        <ele>1467.0024</ele>
        <time>2010-09-21T07:16:43Z</time>
      </trkpt>
      <trkpt lat="46.430304" lon="14.743068">
        <ele>1463.04</ele>
        <time>2010-09-21T07:16:48Z</time>
      </trkpt>
      <trkpt lat="46.430213" lon="14.743003">
        <ele>1466.088</ele>
        <time>2010-09-21T07:16:55Z</time>
      </trkpt>
      <trkpt lat="46.430154" lon="14.743052">
        <ele>1466.088</ele>
        <time>2010-09-21T07:17:01Z</time>
      </trkpt>
      <trkpt lat="46.430089" lon="14.743084">
        <ele>1464.8688</ele>
        <time>2010-09-21T07:17:06Z</time>
      </trkpt>
      <trkpt lat="46.430030" lon="14.743078">
        <ele>1463.04</ele>
        <time>2010-09-21T07:17:13Z</time>
      </trkpt>
      <trkpt lat="46.429988" lon="14.743068">
        <ele>1460.9064</ele>
        <time>2010-09-21T07:17:18Z</time>
      </trkpt>
      <trkpt lat="46.429934" lon="14.743052">
        <ele>1460.9064</ele>
        <time>2010-09-21T07:17:25Z</time>
      </trkpt>
      <trkpt lat="46.429939" lon="14.743009">
        <ele>1463.9544</ele>
        <time>2010-09-21T07:17:30Z</time>
      </trkpt>
      <trkpt lat="46.429945" lon="14.742912">
        <ele>1467.0024</ele>
        <time>2010-09-21T07:17:37Z</time>
      </trkpt>
      <trkpt lat="46.429934" lon="14.742858">
        <ele>1467.0024</ele>
        <time>2010-09-21T07:17:42Z</time>
      </trkpt>
      <trkpt lat="46.429870" lon="14.742815">
        <ele>1467.9168</ele>
        <time>2010-09-21T07:17:49Z</time>
      </trkpt>
      <trkpt lat="46.429821" lon="14.742805">
        <ele>1467.0024</ele>
        <time>2010-09-21T07:17:55Z</time>
      </trkpt>
      <trkpt lat="46.429666" lon="14.742735">
        <ele>1467.9168</ele>
        <time>2010-09-21T07:18:00Z</time>
      </trkpt>
      <trkpt lat="46.429542" lon="14.742762">
        <ele>1467.0024</ele>
        <time>2010-09-21T07:18:07Z</time>
      </trkpt>
      <trkpt lat="46.429456" lon="14.742783">
        <ele>1467.0024</ele>
        <time>2010-09-21T07:18:12Z</time>
      </trkpt>
      <trkpt lat="46.429456" lon="14.742907">
        <ele>1467.9168</ele>
        <time>2010-09-21T07:18:19Z</time>
      </trkpt>
      <trkpt lat="46.429430" lon="14.742950">
        <ele>1469.136</ele>
        <time>2010-09-21T07:18:24Z</time>
      </trkpt>
      <trkpt lat="46.429355" lon="14.742998">
        <ele>1469.136</ele>
        <time>2010-09-21T07:18:31Z</time>
      </trkpt>
      <trkpt lat="46.429296" lon="14.742966">
        <ele>1474.0128</ele>
        <time>2010-09-21T07:18:36Z</time>
      </trkpt>
      <trkpt lat="46.429290" lon="14.743089">
        <ele>1471.8792</ele>
        <time>2010-09-21T07:18:43Z</time>
      </trkpt>
      <trkpt lat="46.429269" lon="14.743143">
        <ele>1469.136</ele>
        <time>2010-09-21T07:18:49Z</time>
      </trkpt>
      <trkpt lat="46.429194" lon="14.743143">
        <ele>1474.0128</ele>
        <time>2010-09-21T07:18:54Z</time>
      </trkpt>
      <trkpt lat="46.429135" lon="14.743105">
        <ele>1481.0232</ele>
        <time>2010-09-21T07:19:01Z</time>
      </trkpt>
      <trkpt lat="46.429086" lon="14.743084">
        <ele>1480.1088</ele>
        <time>2010-09-21T07:19:06Z</time>
      </trkpt>
      <trkpt lat="46.429049" lon="14.743186">
        <ele>1480.1088</ele>
        <time>2010-09-21T07:19:13Z</time>
      </trkpt>
      <trkpt lat="46.428984" lon="14.743164">
        <ele>1480.1088</ele>
        <time>2010-09-21T07:19:18Z</time>
      </trkpt>
      <trkpt lat="46.428958" lon="14.743148">
        <ele>1481.0232</ele>
        <time>2010-09-21T07:19:25Z</time>
      </trkpt>
      <trkpt lat="46.428904" lon="14.743137">
        <ele>1484.0712</ele>
        <time>2010-09-21T07:19:30Z</time>
      </trkpt>
      <trkpt lat="46.428861" lon="14.743175">
        <ele>1484.9856</ele>
        <time>2010-09-21T07:19:37Z</time>
      </trkpt>
      <trkpt lat="46.428786" lon="14.743121">
        <ele>1489.8624</ele>
        <time>2010-09-21T07:19:43Z</time>
      </trkpt>
      <trkpt lat="46.428716" lon="14.743245">
        <ele>1485.9</ele>
        <time>2010-09-21T07:19:48Z</time>
      </trkpt>
      <trkpt lat="46.428684" lon="14.743282">
        <ele>1487.1192</ele>
        <time>2010-09-21T07:19:55Z</time>
      </trkpt>
      <trkpt lat="46.428609" lon="14.743432">
        <ele>1481.9376</ele>
        <time>2010-09-21T07:20:00Z</time>
      </trkpt>
      <trkpt lat="46.428587" lon="14.743540">
        <ele>1478.8896</ele>
        <time>2010-09-21T07:20:07Z</time>
      </trkpt>
      <trkpt lat="46.428491" lon="14.743567">
        <ele>1477.9752</ele>
        <time>2010-09-21T07:20:12Z</time>
      </trkpt>
      <trkpt lat="46.428410" lon="14.743631">
        <ele>1476.1464</ele>
        <time>2010-09-21T07:20:19Z</time>
      </trkpt>
      <trkpt lat="46.428405" lon="14.743690">
        <ele>1474.9272</ele>
        <time>2010-09-21T07:20:24Z</time>
      </trkpt>
      <trkpt lat="46.428416" lon="14.743776">
        <ele>1474.9272</ele>
        <time>2010-09-21T07:20:31Z</time>
      </trkpt>
      <trkpt lat="46.428405" lon="14.743733">
        <ele>1474.9272</ele>
        <time>2010-09-21T07:20:37Z</time>
      </trkpt>
      <trkpt lat="46.428351" lon="14.743738">
        <ele>1473.0984</ele>
        <time>2010-09-21T07:20:42Z</time>
      </trkpt>
      <trkpt lat="46.428303" lon="14.743711">
        <ele>1471.8792</ele>
        <time>2010-09-21T07:20:49Z</time>
      </trkpt>
      <trkpt lat="46.428282" lon="14.743727">
        <ele>1471.8792</ele>
        <time>2010-09-21T07:20:54Z</time>
      </trkpt>
      <trkpt lat="46.428212" lon="14.743749">
        <ele>1471.8792</ele>
        <time>2010-09-21T07:21:01Z</time>
      </trkpt>
      <trkpt lat="46.428164" lon="14.743813">
        <ele>1470.9648</ele>
        <time>2010-09-21T07:21:06Z</time>
      </trkpt>
      <trkpt lat="46.428105" lon="14.743894">
        <ele>1467.9168</ele>
        <time>2010-09-21T07:21:13Z</time>
      </trkpt>
      <trkpt lat="46.428035" lon="14.743921">
        <ele>1463.04</ele>
        <time>2010-09-21T07:21:18Z</time>
      </trkpt>
      <trkpt lat="46.427965" lon="14.743915">
        <ele>1464.8688</ele>
        <time>2010-09-21T07:21:25Z</time>
      </trkpt>
      <trkpt lat="46.427922" lon="14.743904">
        <ele>1464.8688</ele>
        <time>2010-09-21T07:21:31Z</time>
      </trkpt>
      <trkpt lat="46.427890" lon="14.743947">
        <ele>1463.04</ele>
        <time>2010-09-21T07:21:36Z</time>
      </trkpt>
      <trkpt lat="46.427879" lon="14.743942">
        <ele>1463.04</ele>
        <time>2010-09-21T07:21:43Z</time>
      </trkpt>
      <trkpt lat="46.427842" lon="14.743915">
        <ele>1463.9544</ele>
        <time>2010-09-21T07:21:48Z</time>
      </trkpt>
      <trkpt lat="46.427826" lon="14.743915">
        <ele>1463.9544</ele>
        <time>2010-09-21T07:21:55Z</time>
      </trkpt>
      <trkpt lat="46.427777" lon="14.743867">
        <ele>1463.04</ele>
        <time>2010-09-21T07:22:00Z</time>
      </trkpt>
      <trkpt lat="46.427740" lon="14.743878">
        <ele>1459.992</ele>
        <time>2010-09-21T07:22:07Z</time>
      </trkpt>
      <trkpt lat="46.427724" lon="14.743840">
        <ele>1466.088</ele>
        <time>2010-09-21T07:22:12Z</time>
      </trkpt>
      <trkpt lat="46.427718" lon="14.743851">
        <ele>1464.8688</ele>
        <time>2010-09-21T07:22:19Z</time>
      </trkpt>
      <trkpt lat="46.427692" lon="14.743819">
        <ele>1464.8688</ele>
        <time>2010-09-21T07:22:25Z</time>
      </trkpt>
      <trkpt lat="46.427670" lon="14.743808">
        <ele>1464.8688</ele>
        <time>2010-09-21T07:22:30Z</time>
      </trkpt>
      <trkpt lat="46.427681" lon="14.743808">
        <ele>1466.088</ele>
        <time>2010-09-21T07:22:37Z</time>
      </trkpt>
      <trkpt lat="46.427665" lon="14.743792">
        <ele>1467.0024</ele>
        <time>2010-09-21T07:22:42Z</time>
      </trkpt>
      <trkpt lat="46.427579" lon="14.743792">
        <ele>1467.9168</ele>
        <time>2010-09-21T07:22:49Z</time>
      </trkpt>
      <trkpt lat="46.427515" lon="14.743786">
        <ele>1469.136</ele>
        <time>2010-09-21T07:22:54Z</time>
      </trkpt>
      <trkpt lat="46.427515" lon="14.743765">
        <ele>1471.8792</ele>
        <time>2010-09-21T07:23:01Z</time>
      </trkpt>
      <trkpt lat="46.427515" lon="14.743744">
        <ele>1473.0984</ele>
        <time>2010-09-21T07:23:06Z</time>
      </trkpt>
      <trkpt lat="46.427504" lon="14.743727">
        <ele>1474.9272</ele>
        <time>2010-09-21T07:23:13Z</time>
      </trkpt>
      <trkpt lat="46.427498" lon="14.743760">
        <ele>1474.0128</ele>
        <time>2010-09-21T07:23:19Z</time>
      </trkpt>
      <trkpt lat="46.427493" lon="14.743749">
        <ele>1474.9272</ele>
        <time>2010-09-21T07:23:24Z</time>
      </trkpt>
      <trkpt lat="46.427477" lon="14.743765">
        <ele>1476.1464</ele>
        <time>2010-09-21T07:23:31Z</time>
      </trkpt>
      <trkpt lat="46.427456" lon="14.743765">
        <ele>1474.9272</ele>
        <time>2010-09-21T07:23:36Z</time>
      </trkpt>
      <trkpt lat="46.427380" lon="14.743765">
        <ele>1474.0128</ele>
        <time>2010-09-21T07:23:43Z</time>
      </trkpt>
      <trkpt lat="46.427316" lon="14.743733">
        <ele>1473.0984</ele>
        <time>2010-09-21T07:23:48Z</time>
      </trkpt>
      <trkpt lat="46.427252" lon="14.743738">
        <ele>1471.8792</ele>
        <time>2010-09-21T07:23:55Z</time>
      </trkpt>
      <trkpt lat="46.427177" lon="14.743722">
        <ele>1473.0984</ele>
        <time>2010-09-21T07:24:00Z</time>
      </trkpt>
      <trkpt lat="46.427112" lon="14.743647">
        <ele>1473.0984</ele>
        <time>2010-09-21T07:24:07Z</time>
      </trkpt>
      <trkpt lat="46.427042" lon="14.743647">
        <ele>1474.0128</ele>
        <time>2010-09-21T07:24:13Z</time>
      </trkpt>
      <trkpt lat="46.426983" lon="14.743658">
        <ele>1471.8792</ele>
        <time>2010-09-21T07:24:18Z</time>
      </trkpt>
      <trkpt lat="46.426892" lon="14.743636">
        <ele>1476.1464</ele>
        <time>2010-09-21T07:24:25Z</time>
      </trkpt>
      <trkpt lat="46.426817" lon="14.743647">
        <ele>1476.1464</ele>
        <time>2010-09-21T07:24:30Z</time>
      </trkpt>
      <trkpt lat="46.426758" lon="14.743668">
        <ele>1480.1088</ele>
        <time>2010-09-21T07:24:37Z</time>
      </trkpt>
      <trkpt lat="46.426715" lon="14.743754">
        <ele>1477.0608</ele>
        <time>2010-09-21T07:24:42Z</time>
      </trkpt>
      <trkpt lat="46.426640" lon="14.743717">
        <ele>1477.0608</ele>
        <time>2010-09-21T07:24:49Z</time>
      </trkpt>
      <trkpt lat="46.426587" lon="14.743803">
        <ele>1477.9752</ele>
        <time>2010-09-21T07:24:54Z</time>
      </trkpt>
      <trkpt lat="46.426544" lon="14.743803">
        <ele>1481.0232</ele>
        <time>2010-09-21T07:25:01Z</time>
      </trkpt>
      <trkpt lat="46.426501" lon="14.743894">
        <ele>1481.0232</ele>
        <time>2010-09-21T07:25:07Z</time>
      </trkpt>
      <trkpt lat="46.426468" lon="14.743904">
        <ele>1482.852</ele>
        <time>2010-09-21T07:25:12Z</time>
      </trkpt>
      <trkpt lat="46.426452" lon="14.743990">
        <ele>1480.1088</ele>
        <time>2010-09-21T07:25:19Z</time>
      </trkpt>
      <trkpt lat="46.426393" lon="14.743953">
        <ele>1484.9856</ele>
        <time>2010-09-21T07:25:24Z</time>
      </trkpt>
      <trkpt lat="46.426340" lon="14.743958">
        <ele>1484.9856</ele>
        <time>2010-09-21T07:25:31Z</time>
      </trkpt>
      <trkpt lat="46.426291" lon="14.743985">
        <ele>1484.0712</ele>
        <time>2010-09-21T07:25:36Z</time>
      </trkpt>
      <trkpt lat="46.426232" lon="14.743958">
        <ele>1491.0816</ele>
        <time>2010-09-21T07:25:43Z</time>
      </trkpt>
      <trkpt lat="46.426157" lon="14.743942">
        <ele>1495.044</ele>
        <time>2010-09-21T07:25:48Z</time>
      </trkpt>
      <trkpt lat="46.426061" lon="14.743958">
        <ele>1495.044</ele>
        <time>2010-09-21T07:25:55Z</time>
      </trkpt>
      <trkpt lat="46.426013" lon="14.744028">
        <ele>1492.9104</ele>
        <time>2010-09-21T07:26:01Z</time>
      </trkpt>
      <trkpt lat="46.425937" lon="14.744022">
        <ele>1495.044</ele>
        <time>2010-09-21T07:26:06Z</time>
      </trkpt>
      <trkpt lat="46.425873" lon="14.744065">
        <ele>1498.092</ele>
        <time>2010-09-21T07:26:13Z</time>
      </trkpt>
      <trkpt lat="46.425814" lon="14.744060">
        <ele>1499.9208</ele>
        <time>2010-09-21T07:26:18Z</time>
      </trkpt>
      <trkpt lat="46.425793" lon="14.744114">
        <ele>1498.092</ele>
        <time>2010-09-21T07:26:25Z</time>
      </trkpt>
      <trkpt lat="46.425750" lon="14.744194">
        <ele>1494.1296</ele>
        <time>2010-09-21T07:26:30Z</time>
      </trkpt>
      <trkpt lat="46.425701" lon="14.744216">
        <ele>1494.1296</ele>
        <time>2010-09-21T07:26:37Z</time>
      </trkpt>
      <trkpt lat="46.425664" lon="14.744280">
        <ele>1491.996</ele>
        <time>2010-09-21T07:26:42Z</time>
      </trkpt>
      <trkpt lat="46.425610" lon="14.744301">
        <ele>1492.9104</ele>
        <time>2010-09-21T07:26:49Z</time>
      </trkpt>
      <trkpt lat="46.425567" lon="14.744371">
        <ele>1491.996</ele>
        <time>2010-09-21T07:26:55Z</time>
      </trkpt>
      <trkpt lat="46.425540" lon="14.744382">
        <ele>1491.0816</ele>
        <time>2010-09-21T07:27:00Z</time>
      </trkpt>
      <trkpt lat="46.425535" lon="14.744350">
        <ele>1489.8624</ele>
        <time>2010-09-21T07:27:07Z</time>
      </trkpt>
      <trkpt lat="46.425498" lon="14.744403">
        <ele>1488.948</ele>
        <time>2010-09-21T07:27:12Z</time>
      </trkpt>
      <trkpt lat="46.425406" lon="14.744366">
        <ele>1491.996</ele>
        <time>2010-09-21T07:27:19Z</time>
      </trkpt>
      <trkpt lat="46.425353" lon="14.744398">
        <ele>1489.8624</ele>
        <time>2010-09-21T07:27:24Z</time>
      </trkpt>
      <trkpt lat="46.425283" lon="14.744473">
        <ele>1488.948</ele>
        <time>2010-09-21T07:27:31Z</time>
      </trkpt>
      <trkpt lat="46.425213" lon="14.744495">
        <ele>1485.9</ele>
        <time>2010-09-21T07:27:36Z</time>
      </trkpt>
      <trkpt lat="46.425181" lon="14.744468">
        <ele>1487.1192</ele>
        <time>2010-09-21T07:27:43Z</time>
      </trkpt>
      <trkpt lat="46.425149" lon="14.744409">
        <ele>1491.0816</ele>
        <time>2010-09-21T07:27:49Z</time>
      </trkpt>
      <trkpt lat="46.425095" lon="14.744344">
        <ele>1492.9104</ele>
        <time>2010-09-21T07:27:54Z</time>
      </trkpt>
      <trkpt lat="46.425031" lon="14.744275">
        <ele>1494.1296</ele>
        <time>2010-09-21T07:28:01Z</time>
      </trkpt>
      <trkpt lat="46.424966" lon="14.744226">
        <ele>1495.9584</ele>
        <time>2010-09-21T07:28:06Z</time>
      </trkpt>
      <trkpt lat="46.424897" lon="14.744210">
        <ele>1495.9584</ele>
        <time>2010-09-21T07:28:13Z</time>
      </trkpt>
      <trkpt lat="46.424832" lon="14.744216">
        <ele>1495.9584</ele>
        <time>2010-09-21T07:28:18Z</time>
      </trkpt>
      <trkpt lat="46.424779" lon="14.744253">
        <ele>1492.9104</ele>
        <time>2010-09-21T07:28:25Z</time>
      </trkpt>
      <trkpt lat="46.424720" lon="14.744253">
        <ele>1495.044</ele>
        <time>2010-09-21T07:28:30Z</time>
      </trkpt>
      <trkpt lat="46.424709" lon="14.744264">
        <ele>1494.1296</ele>
        <time>2010-09-21T07:28:37Z</time>
      </trkpt>
      <trkpt lat="46.424741" lon="14.744280">
        <ele>1492.9104</ele>
        <time>2010-09-21T07:28:43Z</time>
      </trkpt>
      <trkpt lat="46.424730" lon="14.744264">
        <ele>1492.9104</ele>
        <time>2010-09-21T07:28:48Z</time>
      </trkpt>
      <trkpt lat="46.424741" lon="14.744301">
        <ele>1494.1296</ele>
        <time>2010-09-21T07:28:55Z</time>
      </trkpt>
      <trkpt lat="46.424736" lon="14.744318">
        <ele>1494.1296</ele>
        <time>2010-09-21T07:29:00Z</time>
      </trkpt>
      <trkpt lat="46.424682" lon="14.744312">
        <ele>1492.9104</ele>
        <time>2010-09-21T07:29:07Z</time>
      </trkpt>
      <trkpt lat="46.424607" lon="14.744264">
        <ele>1492.9104</ele>
        <time>2010-09-21T07:29:12Z</time>
      </trkpt>
      <trkpt lat="46.424559" lon="14.744377">
        <ele>1487.1192</ele>
        <time>2010-09-21T07:29:19Z</time>
      </trkpt>
      <trkpt lat="46.424521" lon="14.744334">
        <ele>1491.996</ele>
        <time>2010-09-21T07:29:24Z</time>
      </trkpt>
      <trkpt lat="46.424457" lon="14.744328">
        <ele>1492.9104</ele>
        <time>2010-09-21T07:29:31Z</time>
      </trkpt>
      <trkpt lat="46.424403" lon="14.744318">
        <ele>1491.996</ele>
        <time>2010-09-21T07:29:37Z</time>
      </trkpt>
      <trkpt lat="46.424355" lon="14.744328">
        <ele>1495.044</ele>
        <time>2010-09-21T07:29:42Z</time>
      </trkpt>
      <trkpt lat="46.424312" lon="14.744334">
        <ele>1495.044</ele>
        <time>2010-09-21T07:29:49Z</time>
      </trkpt>
      <trkpt lat="46.424280" lon="14.744275">
        <ele>1499.9208</ele>
        <time>2010-09-21T07:29:54Z</time>
      </trkpt>
      <trkpt lat="46.424258" lon="14.744242">
        <ele>1502.0544</ele>
        <time>2010-09-21T07:30:01Z</time>
      </trkpt>
      <trkpt lat="46.424151" lon="14.744151">
        <ele>1503.8832</ele>
        <time>2010-09-21T07:30:06Z</time>
      </trkpt>
      <trkpt lat="46.424071" lon="14.744130">
        <ele>1506.9312</ele>
        <time>2010-09-21T07:30:13Z</time>
      </trkpt>
      <trkpt lat="46.423990" lon="14.744124">
        <ele>1506.9312</ele>
        <time>2010-09-21T07:30:18Z</time>
      </trkpt>
      <trkpt lat="46.423931" lon="14.744114">
        <ele>1508.1504</ele>
        <time>2010-09-21T07:30:25Z</time>
      </trkpt>
      <trkpt lat="46.423877" lon="14.744135">
        <ele>1508.1504</ele>
        <time>2010-09-21T07:30:31Z</time>
      </trkpt>
      <trkpt lat="46.423835" lon="14.744162">
        <ele>1509.9792</ele>
        <time>2010-09-21T07:30:36Z</time>
      </trkpt>
      <trkpt lat="46.423797" lon="14.744124">
        <ele>1508.1504</ele>
        <time>2010-09-21T07:30:43Z</time>
      </trkpt>
      <trkpt lat="46.423759" lon="14.744055">
        <ele>1506.9312</ele>
        <time>2010-09-21T07:30:48Z</time>
      </trkpt>
      <trkpt lat="46.423706" lon="14.744017">
        <ele>1506.9312</ele>
        <time>2010-09-21T07:30:55Z</time>
      </trkpt>
      <trkpt lat="46.423690" lon="14.743996">
        <ele>1506.9312</ele>
        <time>2010-09-21T07:31:00Z</time>
      </trkpt>
      <trkpt lat="46.423700" lon="14.744006">
        <ele>1508.1504</ele>
        <time>2010-09-21T07:31:07Z</time>
      </trkpt>
      <trkpt lat="46.423695" lon="14.744012">
        <ele>1506.9312</ele>
        <time>2010-09-21T07:31:12Z</time>
      </trkpt>
      <trkpt lat="46.423679" lon="14.744017">
        <ele>1506.9312</ele>
        <time>2010-09-21T07:31:19Z</time>
      </trkpt>
      <trkpt lat="46.423684" lon="14.744001">
        <ele>1506.0168</ele>
        <time>2010-09-21T07:31:25Z</time>
      </trkpt>
      <trkpt lat="46.423711" lon="14.743985">
        <ele>1503.8832</ele>
        <time>2010-09-21T07:31:30Z</time>
      </trkpt>
      <trkpt lat="46.423717" lon="14.744001">
        <ele>1502.0544</ele>
        <time>2010-09-21T07:31:37Z</time>
      </trkpt>
      <trkpt lat="46.423717" lon="14.743996">
        <ele>1501.14</ele>
        <time>2010-09-21T07:31:42Z</time>
      </trkpt>
      <trkpt lat="46.423706" lon="14.743996">
        <ele>1502.0544</ele>
        <time>2010-09-21T07:31:49Z</time>
      </trkpt>
      <trkpt lat="46.423695" lon="14.743985">
        <ele>1502.0544</ele>
        <time>2010-09-21T07:31:54Z</time>
      </trkpt>
      <trkpt lat="46.423700" lon="14.743985">
        <ele>1501.14</ele>
        <time>2010-09-21T07:32:01Z</time>
      </trkpt>
      <trkpt lat="46.423690" lon="14.743969">
        <ele>1501.14</ele>
        <time>2010-09-21T07:32:06Z</time>
      </trkpt>
      <trkpt lat="46.423684" lon="14.743937">
        <ele>1502.0544</ele>
        <time>2010-09-21T07:32:13Z</time>
      </trkpt>
      <trkpt lat="46.423668" lon="14.743888">
        <ele>1502.9688</ele>
        <time>2010-09-21T07:32:19Z</time>
      </trkpt>
      <trkpt lat="46.423641" lon="14.743872">
        <ele>1503.8832</ele>
        <time>2010-09-21T07:32:24Z</time>
      </trkpt>
      <trkpt lat="46.423593" lon="14.743819">
        <ele>1505.1024</ele>
        <time>2010-09-21T07:32:31Z</time>
      </trkpt>
      <trkpt lat="46.423550" lon="14.743776">
        <ele>1506.0168</ele>
        <time>2010-09-21T07:32:36Z</time>
      </trkpt>
      <trkpt lat="46.423497" lon="14.743749">
        <ele>1506.9312</ele>
        <time>2010-09-21T07:32:43Z</time>
      </trkpt>
      <trkpt lat="46.423454" lon="14.743685">
        <ele>1508.1504</ele>
        <time>2010-09-21T07:32:48Z</time>
      </trkpt>
      <trkpt lat="46.423411" lon="14.743615">
        <ele>1509.0648</ele>
        <time>2010-09-21T07:32:55Z</time>
      </trkpt>
      <trkpt lat="46.423384" lon="14.743572">
        <ele>1509.9792</ele>
        <time>2010-09-21T07:33:00Z</time>
      </trkpt>
      <trkpt lat="46.423395" lon="14.743534">
        <ele>1510.8936</ele>
        <time>2010-09-21T07:33:07Z</time>
      </trkpt>
      <trkpt lat="46.423400" lon="14.743454">
        <ele>1512.1128</ele>
        <time>2010-09-21T07:33:13Z</time>
      </trkpt>
      <trkpt lat="46.423405" lon="14.743422">
        <ele>1510.8936</ele>
        <time>2010-09-21T07:33:18Z</time>
      </trkpt>
      <trkpt lat="46.423454" lon="14.743438">
        <ele>1510.8936</ele>
        <time>2010-09-21T07:33:25Z</time>
      </trkpt>
      <trkpt lat="46.423497" lon="14.743395">
        <ele>1513.0272</ele>
        <time>2010-09-21T07:33:30Z</time>
      </trkpt>
      <trkpt lat="46.423593" lon="14.743347">
        <ele>1514.856</ele>
        <time>2010-09-21T07:33:37Z</time>
      </trkpt>
      <trkpt lat="46.423615" lon="14.743245">
        <ele>1516.0752</ele>
        <time>2010-09-21T07:33:42Z</time>
      </trkpt>
      <trkpt lat="46.423604" lon="14.743159">
        <ele>1519.1232</ele>
        <time>2010-09-21T07:33:49Z</time>
      </trkpt>
      <trkpt lat="46.423561" lon="14.743073">
        <ele>1517.904</ele>
        <time>2010-09-21T07:33:54Z</time>
      </trkpt>
      <trkpt lat="46.423491" lon="14.743041">
        <ele>1517.904</ele>
        <time>2010-09-21T07:34:01Z</time>
      </trkpt>
      <trkpt lat="46.423427" lon="14.743068">
        <ele>1519.1232</ele>
        <time>2010-09-21T07:34:07Z</time>
      </trkpt>
      <trkpt lat="46.423389" lon="14.743137">
        <ele>1517.904</ele>
        <time>2010-09-21T07:34:12Z</time>
      </trkpt>
      <trkpt lat="46.423368" lon="14.743207">
        <ele>1517.904</ele>
        <time>2010-09-21T07:34:19Z</time>
      </trkpt>
      <trkpt lat="46.423362" lon="14.743207">
        <ele>1517.904</ele>
        <time>2010-09-21T07:34:24Z</time>
      </trkpt>
      <trkpt lat="46.423362" lon="14.743212">
        <ele>1519.1232</ele>
        <time>2010-09-21T07:34:31Z</time>
      </trkpt>
      <trkpt lat="46.423362" lon="14.743207">
        <ele>1517.904</ele>
        <time>2010-09-21T07:34:36Z</time>
      </trkpt>
      <trkpt lat="46.423368" lon="14.743218">
        <ele>1517.904</ele>
        <time>2010-09-21T07:34:43Z</time>
      </trkpt>
      <trkpt lat="46.423368" lon="14.743223">
        <ele>1517.904</ele>
        <time>2010-09-21T07:34:48Z</time>
      </trkpt>
      <trkpt lat="46.423368" lon="14.743223">
        <ele>1517.904</ele>
        <time>2010-09-21T07:34:55Z</time>
      </trkpt>
      <trkpt lat="46.423368" lon="14.743223">
        <ele>1517.904</ele>
        <time>2010-09-21T07:35:01Z</time>
      </trkpt>
      <trkpt lat="46.423368" lon="14.743223">
        <ele>1517.904</ele>
        <time>2010-09-21T07:35:06Z</time>
      </trkpt>
      <trkpt lat="46.423368" lon="14.743223">
        <ele>1517.904</ele>
        <time>2010-09-21T07:35:13Z</time>
      </trkpt>
      <trkpt lat="46.423368" lon="14.743223">
        <ele>1517.904</ele>
        <time>2010-09-21T07:35:18Z</time>
      </trkpt>
      <trkpt lat="46.423368" lon="14.743223">
        <ele>1517.904</ele>
        <time>2010-09-21T07:35:25Z</time>
      </trkpt>
      <trkpt lat="46.423368" lon="14.743223">
        <ele>1517.904</ele>
        <time>2010-09-21T07:35:30Z</time>
      </trkpt>
      <trkpt lat="46.423368" lon="14.743223">
        <ele>1517.904</ele>
        <time>2010-09-21T07:35:37Z</time>
      </trkpt>
      <trkpt lat="46.423368" lon="14.743223">
        <ele>1517.904</ele>
        <time>2010-09-21T07:35:42Z</time>
      </trkpt>
      <trkpt lat="46.423368" lon="14.743223">
        <ele>1517.904</ele>
        <time>2010-09-21T07:35:49Z</time>
      </trkpt>
      <trkpt lat="46.423368" lon="14.743223">
        <ele>1517.904</ele>
        <time>2010-09-21T07:35:55Z</time>
      </trkpt>
      <trkpt lat="46.423368" lon="14.743223">
        <ele>1517.904</ele>
        <time>2010-09-21T07:36:00Z</time>
      </trkpt>
      <trkpt lat="46.423368" lon="14.743223">
        <ele>1517.904</ele>
        <time>2010-09-21T07:36:07Z</time>
      </trkpt>
      <trkpt lat="46.423368" lon="14.743223">
        <ele>1517.904</ele>
        <time>2010-09-21T07:36:12Z</time>
      </trkpt>
      <trkpt lat="46.423379" lon="14.743196">
        <ele>1519.1232</ele>
        <time>2010-09-21T07:36:19Z</time>
      </trkpt>
      <trkpt lat="46.423416" lon="14.743186">
        <ele>1517.904</ele>
        <time>2010-09-21T07:36:24Z</time>
      </trkpt>
      <trkpt lat="46.423422" lon="14.743180">
        <ele>1517.904</ele>
        <time>2010-09-21T07:36:31Z</time>
      </trkpt>
      <trkpt lat="46.423438" lon="14.743186">
        <ele>1517.904</ele>
        <time>2010-09-21T07:36:36Z</time>
      </trkpt>
      <trkpt lat="46.423448" lon="14.743159">
        <ele>1519.1232</ele>
        <time>2010-09-21T07:36:43Z</time>
      </trkpt>
      <trkpt lat="46.423454" lon="14.743191">
        <ele>1519.1232</ele>
        <time>2010-09-21T07:36:49Z</time>
      </trkpt>
      <trkpt lat="46.423491" lon="14.743261">
        <ele>1517.904</ele>
        <time>2010-09-21T07:36:54Z</time>
      </trkpt>
      <trkpt lat="46.423556" lon="14.743298">
        <ele>1517.904</ele>
        <time>2010-09-21T07:37:01Z</time>
      </trkpt>
      <trkpt lat="46.423561" lon="14.743406">
        <ele>1517.904</ele>
        <time>2010-09-21T07:37:06Z</time>
      </trkpt>
      <trkpt lat="46.423464" lon="14.743443">
        <ele>1517.904</ele>
        <time>2010-09-21T07:37:21Z</time>
      </trkpt>
      <trkpt lat="46.423464" lon="14.743545">
        <ele>1517.904</ele>
        <time>2010-09-21T07:37:28Z</time>
      </trkpt>
      <trkpt lat="46.423298" lon="14.743164">
        <ele>1505.1024</ele>
        <time>2010-09-21T07:47:27Z</time>
      </trkpt>
      <trkpt lat="46.423309" lon="14.743164">
        <ele>1505.1024</ele>
        <time>2010-09-21T07:47:34Z</time>
      </trkpt>
      <trkpt lat="46.423287" lon="14.743137">
        <ele>1503.8832</ele>
        <time>2010-09-21T07:47:39Z</time>
      </trkpt>
      <trkpt lat="46.423352" lon="14.743191">
        <ele>1517.904</ele>
        <time>2010-09-21T07:47:46Z</time>
      </trkpt>
      <trkpt lat="46.423303" lon="14.743261">
        <ele>1514.856</ele>
        <time>2010-09-21T07:47:53Z</time>
      </trkpt>
      <trkpt lat="46.423234" lon="14.743298">
        <ele>1514.856</ele>
        <time>2010-09-21T07:47:58Z</time>
      </trkpt>
      <trkpt lat="46.423164" lon="14.743347">
        <ele>1513.9416</ele>
        <time>2010-09-21T07:48:05Z</time>
      </trkpt>
      <trkpt lat="46.423137" lon="14.743379">
        <ele>1513.9416</ele>
        <time>2010-09-21T07:48:10Z</time>
      </trkpt>
      <trkpt lat="46.423132" lon="14.743384">
        <ele>1513.9416</ele>
        <time>2010-09-21T07:48:17Z</time>
      </trkpt>
      <trkpt lat="46.423132" lon="14.743384">
        <ele>1514.856</ele>
        <time>2010-09-21T07:48:23Z</time>
      </trkpt>
      <trkpt lat="46.423137" lon="14.743373">
        <ele>1516.0752</ele>
        <time>2010-09-21T07:48:28Z</time>
      </trkpt>
      <trkpt lat="46.423121" lon="14.743406">
        <ele>1516.0752</ele>
        <time>2010-09-21T07:48:35Z</time>
      </trkpt>
      <trkpt lat="46.423110" lon="14.743475">
        <ele>1516.0752</ele>
        <time>2010-09-21T07:48:40Z</time>
      </trkpt>
      <trkpt lat="46.423094" lon="14.743524">
        <ele>1516.0752</ele>
        <time>2010-09-21T07:48:47Z</time>
      </trkpt>
      <trkpt lat="46.423094" lon="14.743518">
        <ele>1516.0752</ele>
        <time>2010-09-21T07:48:52Z</time>
      </trkpt>
      <trkpt lat="46.423078" lon="14.743577">
        <ele>1514.856</ele>
        <time>2010-09-21T07:48:59Z</time>
      </trkpt>
      <trkpt lat="46.423062" lon="14.743674">
        <ele>1514.856</ele>
        <time>2010-09-21T07:49:04Z</time>
      </trkpt>
      <trkpt lat="46.423014" lon="14.743754">
        <ele>1514.856</ele>
        <time>2010-09-21T07:49:11Z</time>
      </trkpt>
      <trkpt lat="46.422992" lon="14.743840">
        <ele>1514.856</ele>
        <time>2010-09-21T07:49:17Z</time>
      </trkpt>
      <trkpt lat="46.422955" lon="14.743921">
        <ele>1516.0752</ele>
        <time>2010-09-21T07:49:22Z</time>
      </trkpt>
      <trkpt lat="46.422907" lon="14.743969">
        <ele>1516.0752</ele>
        <time>2010-09-21T07:49:29Z</time>
      </trkpt>
      <trkpt lat="46.422858" lon="14.744028">
        <ele>1516.9896</ele>
        <time>2010-09-21T07:49:34Z</time>
      </trkpt>
      <trkpt lat="46.422815" lon="14.744081">
        <ele>1516.9896</ele>
        <time>2010-09-21T07:49:41Z</time>
      </trkpt>
      <trkpt lat="46.422783" lon="14.744119">
        <ele>1516.9896</ele>
        <time>2010-09-21T07:49:46Z</time>
      </trkpt>
      <trkpt lat="46.422778" lon="14.744124">
        <ele>1517.904</ele>
        <time>2010-09-21T07:49:53Z</time>
      </trkpt>
      <trkpt lat="46.422746" lon="14.744162">
        <ele>1517.904</ele>
        <time>2010-09-21T07:49:58Z</time>
      </trkpt>
      <trkpt lat="46.422751" lon="14.744167">
        <ele>1517.904</ele>
        <time>2010-09-21T07:50:05Z</time>
      </trkpt>
      <trkpt lat="46.422729" lon="14.744189">
        <ele>1519.1232</ele>
        <time>2010-09-21T07:50:11Z</time>
      </trkpt>
      <trkpt lat="46.422665" lon="14.744237">
        <ele>1519.1232</ele>
        <time>2010-09-21T07:50:16Z</time>
      </trkpt>
      <trkpt lat="46.422601" lon="14.744253">
        <ele>1519.1232</ele>
        <time>2010-09-21T07:50:23Z</time>
      </trkpt>
      <trkpt lat="46.422526" lon="14.744275">
        <ele>1519.1232</ele>
        <time>2010-09-21T07:50:28Z</time>
      </trkpt>
      <trkpt lat="46.422445" lon="14.744280">
        <ele>1520.0376</ele>
        <time>2010-09-21T07:50:35Z</time>
      </trkpt>
      <trkpt lat="46.422370" lon="14.744296">
        <ele>1520.0376</ele>
        <time>2010-09-21T07:50:40Z</time>
      </trkpt>
      <trkpt lat="46.422295" lon="14.744318">
        <ele>1520.952</ele>
        <time>2010-09-21T07:50:47Z</time>
      </trkpt>
      <trkpt lat="46.422220" lon="14.744350">
        <ele>1521.8664</ele>
        <time>2010-09-21T07:50:52Z</time>
      </trkpt>
      <trkpt lat="46.422150" lon="14.744387">
        <ele>1521.8664</ele>
        <time>2010-09-21T07:50:59Z</time>
      </trkpt>
      <trkpt lat="46.422075" lon="14.744403">
        <ele>1520.952</ele>
        <time>2010-09-21T07:51:05Z</time>
      </trkpt>
      <trkpt lat="46.422000" lon="14.744430">
        <ele>1520.0376</ele>
        <time>2010-09-21T07:51:10Z</time>
      </trkpt>
      <trkpt lat="46.421919" lon="14.744473">
        <ele>1520.952</ele>
        <time>2010-09-21T07:51:17Z</time>
      </trkpt>
      <trkpt lat="46.421871" lon="14.744489">
        <ele>1523.0856</ele>
        <time>2010-09-21T07:51:22Z</time>
      </trkpt>
      <trkpt lat="46.421850" lon="14.744505">
        <ele>1526.1336</ele>
        <time>2010-09-21T07:51:29Z</time>
      </trkpt>
      <trkpt lat="46.421775" lon="14.744505">
        <ele>1527.048</ele>
        <time>2010-09-21T07:51:34Z</time>
      </trkpt>
      <trkpt lat="46.421737" lon="14.744484">
        <ele>1527.9624</ele>
        <time>2010-09-21T07:51:41Z</time>
      </trkpt>
      <trkpt lat="46.421742" lon="14.744484">
        <ele>1528.8768</ele>
        <time>2010-09-21T07:51:46Z</time>
      </trkpt>
      <trkpt lat="46.421726" lon="14.744489">
        <ele>1528.8768</ele>
        <time>2010-09-21T07:51:53Z</time>
      </trkpt>
      <trkpt lat="46.421726" lon="14.744489">
        <ele>1530.096</ele>
        <time>2010-09-21T07:51:59Z</time>
      </trkpt>
      <trkpt lat="46.421700" lon="14.744462">
        <ele>1531.9248</ele>
        <time>2010-09-21T07:52:04Z</time>
      </trkpt>
      <trkpt lat="46.421651" lon="14.744441">
        <ele>1531.9248</ele>
        <time>2010-09-21T07:52:11Z</time>
      </trkpt>
      <trkpt lat="46.421673" lon="14.744457">
        <ele>1534.0584</ele>
        <time>2010-09-21T07:52:16Z</time>
      </trkpt>
      <trkpt lat="46.421657" lon="14.744436">
        <ele>1535.8872</ele>
        <time>2010-09-21T07:52:23Z</time>
      </trkpt>
      <trkpt lat="46.421646" lon="14.744339">
        <ele>1538.0208</ele>
        <time>2010-09-21T07:52:28Z</time>
      </trkpt>
      <trkpt lat="46.421641" lon="14.744237">
        <ele>1535.8872</ele>
        <time>2010-09-21T07:52:35Z</time>
      </trkpt>
      <trkpt lat="46.421571" lon="14.744194">
        <ele>1537.1064</ele>
        <time>2010-09-21T07:52:40Z</time>
      </trkpt>
      <trkpt lat="46.421512" lon="14.744173">
        <ele>1535.8872</ele>
        <time>2010-09-21T07:52:47Z</time>
      </trkpt>
      <trkpt lat="46.421453" lon="14.744189">
        <ele>1534.9728</ele>
        <time>2010-09-21T07:52:53Z</time>
      </trkpt>
      <trkpt lat="46.421415" lon="14.744221">
        <ele>1534.0584</ele>
        <time>2010-09-21T07:52:58Z</time>
      </trkpt>
      <trkpt lat="46.421388" lon="14.744226">
        <ele>1535.8872</ele>
        <time>2010-09-21T07:53:05Z</time>
      </trkpt>
      <trkpt lat="46.421329" lon="14.744259">
        <ele>1537.1064</ele>
        <time>2010-09-21T07:53:10Z</time>
      </trkpt>
      <trkpt lat="46.421265" lon="14.744264">
        <ele>1538.9352</ele>
        <time>2010-09-21T07:53:17Z</time>
      </trkpt>
      <trkpt lat="46.421201" lon="14.744296">
        <ele>1541.0688</ele>
        <time>2010-09-21T07:53:22Z</time>
      </trkpt>
      <trkpt lat="46.421147" lon="14.744307">
        <ele>1542.8976</ele>
        <time>2010-09-21T07:53:29Z</time>
      </trkpt>
      <trkpt lat="46.421115" lon="14.744334">
        <ele>1544.1168</ele>
        <time>2010-09-21T07:53:34Z</time>
      </trkpt>
      <trkpt lat="46.421050" lon="14.744382">
        <ele>1544.1168</ele>
        <time>2010-09-21T07:53:41Z</time>
      </trkpt>
      <trkpt lat="46.420986" lon="14.744393">
        <ele>1545.0312</ele>
        <time>2010-09-21T07:53:47Z</time>
      </trkpt>
      <trkpt lat="46.420927" lon="14.744425">
        <ele>1545.0312</ele>
        <time>2010-09-21T07:53:52Z</time>
      </trkpt>
      <trkpt lat="46.420884" lon="14.744457">
        <ele>1545.9456</ele>
        <time>2010-09-21T07:53:59Z</time>
      </trkpt>
      <trkpt lat="46.420868" lon="14.744495">
        <ele>1546.86</ele>
        <time>2010-09-21T07:54:04Z</time>
      </trkpt>
      <trkpt lat="46.420841" lon="14.744521">
        <ele>1549.908</ele>
        <time>2010-09-21T07:54:11Z</time>
      </trkpt>
      <trkpt lat="46.420798" lon="14.744602">
        <ele>1552.0416</ele>
        <time>2010-09-21T07:54:16Z</time>
      </trkpt>
      <trkpt lat="46.420745" lon="14.744672">
        <ele>1552.0416</ele>
        <time>2010-09-21T07:54:23Z</time>
      </trkpt>
      <trkpt lat="46.420702" lon="14.744768">
        <ele>1551.1272</ele>
        <time>2010-09-21T07:54:28Z</time>
      </trkpt>
      <trkpt lat="46.420648" lon="14.744838">
        <ele>1552.0416</ele>
        <time>2010-09-21T07:54:35Z</time>
      </trkpt>
      <trkpt lat="46.420594" lon="14.744875">
        <ele>1552.0416</ele>
        <time>2010-09-21T07:54:41Z</time>
      </trkpt>
      <trkpt lat="46.420530" lon="14.744892">
        <ele>1556.9184</ele>
        <time>2010-09-21T07:54:46Z</time>
      </trkpt>
      <trkpt lat="46.420471" lon="14.744892">
        <ele>1562.1</ele>
        <time>2010-09-21T07:54:53Z</time>
      </trkpt>
      <trkpt lat="46.420412" lon="14.744854">
        <ele>1563.0144</ele>
        <time>2010-09-21T07:54:58Z</time>
      </trkpt>
      <trkpt lat="46.420358" lon="14.744816">
        <ele>1563.9288</ele>
        <time>2010-09-21T07:55:05Z</time>
      </trkpt>
      <trkpt lat="46.420294" lon="14.744784">
        <ele>1566.0624</ele>
        <time>2010-09-21T07:55:10Z</time>
      </trkpt>
      <trkpt lat="46.420235" lon="14.744768">
        <ele>1569.1104</ele>
        <time>2010-09-21T07:55:17Z</time>
      </trkpt>
      <trkpt lat="46.420181" lon="14.744741">
        <ele>1573.0728</ele>
        <time>2010-09-21T07:55:22Z</time>
      </trkpt>
      <trkpt lat="46.420138" lon="14.744720">
        <ele>1577.0352</ele>
        <time>2010-09-21T07:55:29Z</time>
      </trkpt>
      <trkpt lat="46.420090" lon="14.744677">
        <ele>1580.9976</ele>
        <time>2010-09-21T07:55:35Z</time>
      </trkpt>
      <trkpt lat="46.420037" lon="14.744655">
        <ele>1584.96</ele>
        <time>2010-09-21T07:55:40Z</time>
      </trkpt>
      <trkpt lat="46.419988" lon="14.744634">
        <ele>1588.008</ele>
        <time>2010-09-21T07:55:47Z</time>
      </trkpt>
      <trkpt lat="46.419945" lon="14.744570">
        <ele>1583.1312</ele>
        <time>2010-09-21T07:55:52Z</time>
      </trkpt>
      <trkpt lat="46.419913" lon="14.744527">
        <ele>1580.0832</ele>
        <time>2010-09-21T07:55:59Z</time>
      </trkpt>
      <trkpt lat="46.419876" lon="14.744505">
        <ele>1580.9976</ele>
        <time>2010-09-21T07:56:04Z</time>
      </trkpt>
      <trkpt lat="46.419843" lon="14.744473">
        <ele>1580.0832</ele>
        <time>2010-09-21T07:56:11Z</time>
      </trkpt>
      <trkpt lat="46.419806" lon="14.744436">
        <ele>1578.864</ele>
        <time>2010-09-21T07:56:16Z</time>
      </trkpt>
      <trkpt lat="46.419768" lon="14.744409">
        <ele>1580.9976</ele>
        <time>2010-09-21T07:56:23Z</time>
      </trkpt>
      <trkpt lat="46.419736" lon="14.744398">
        <ele>1580.9976</ele>
        <time>2010-09-21T07:56:29Z</time>
      </trkpt>
      <trkpt lat="46.419704" lon="14.744371">
        <ele>1581.912</ele>
        <time>2010-09-21T07:56:34Z</time>
      </trkpt>
      <trkpt lat="46.419677" lon="14.744344">
        <ele>1583.1312</ele>
        <time>2010-09-21T07:56:41Z</time>
      </trkpt>
      <trkpt lat="46.419683" lon="14.744269">
        <ele>1584.0456</ele>
        <time>2010-09-21T07:56:46Z</time>
      </trkpt>
      <trkpt lat="46.419699" lon="14.744210">
        <ele>1585.8744</ele>
        <time>2010-09-21T07:56:53Z</time>
      </trkpt>
      <trkpt lat="46.419736" lon="14.744162">
        <ele>1587.0936</ele>
        <time>2010-09-21T07:56:58Z</time>
      </trkpt>
      <trkpt lat="46.419779" lon="14.744114">
        <ele>1587.0936</ele>
        <time>2010-09-21T07:57:05Z</time>
      </trkpt>
      <trkpt lat="46.419811" lon="14.744060">
        <ele>1587.0936</ele>
        <time>2010-09-21T07:57:10Z</time>
      </trkpt>
      <trkpt lat="46.419827" lon="14.744017">
        <ele>1587.0936</ele>
        <time>2010-09-21T07:57:17Z</time>
      </trkpt>
      <trkpt lat="46.419860" lon="14.743969">
        <ele>1585.8744</ele>
        <time>2010-09-21T07:57:23Z</time>
      </trkpt>
      <trkpt lat="46.419881" lon="14.743942">
        <ele>1585.8744</ele>
        <time>2010-09-21T07:57:28Z</time>
      </trkpt>
      <trkpt lat="46.419881" lon="14.743942">
        <ele>1585.8744</ele>
        <time>2010-09-21T07:57:35Z</time>
      </trkpt>
      <trkpt lat="46.419881" lon="14.743942">
        <ele>1585.8744</ele>
        <time>2010-09-21T07:57:40Z</time>
      </trkpt>
      <trkpt lat="46.419897" lon="14.743937">
        <ele>1585.8744</ele>
        <time>2010-09-21T07:57:47Z</time>
      </trkpt>
      <trkpt lat="46.419886" lon="14.743894">
        <ele>1585.8744</ele>
        <time>2010-09-21T07:57:52Z</time>
      </trkpt>
      <trkpt lat="46.419886" lon="14.743862">
        <ele>1585.8744</ele>
        <time>2010-09-21T07:57:59Z</time>
      </trkpt>
      <trkpt lat="46.419892" lon="14.743856">
        <ele>1584.0456</ele>
        <time>2010-09-21T07:58:04Z</time>
      </trkpt>
      <trkpt lat="46.419892" lon="14.743851">
        <ele>1584.0456</ele>
        <time>2010-09-21T07:58:11Z</time>
      </trkpt>
      <trkpt lat="46.419892" lon="14.743856">
        <ele>1584.0456</ele>
        <time>2010-09-21T07:58:17Z</time>
      </trkpt>
      <trkpt lat="46.419892" lon="14.743829">
        <ele>1584.0456</ele>
        <time>2010-09-21T07:58:22Z</time>
      </trkpt>
      <trkpt lat="46.419881" lon="14.743770">
        <ele>1585.8744</ele>
        <time>2010-09-21T07:58:29Z</time>
      </trkpt>
      <trkpt lat="46.419860" lon="14.743711">
        <ele>1587.0936</ele>
        <time>2010-09-21T07:58:34Z</time>
      </trkpt>
      <trkpt lat="46.419849" lon="14.743658">
        <ele>1588.008</ele>
        <time>2010-09-21T07:58:41Z</time>
      </trkpt>
      <trkpt lat="46.419827" lon="14.743609">
        <ele>1588.008</ele>
        <time>2010-09-21T07:58:46Z</time>
      </trkpt>
      <trkpt lat="46.419784" lon="14.743577">
        <ele>1588.9224</ele>
        <time>2010-09-21T07:58:53Z</time>
      </trkpt>
      <trkpt lat="46.419731" lon="14.743567">
        <ele>1590.1416</ele>
        <time>2010-09-21T07:58:58Z</time>
      </trkpt>
      <trkpt lat="46.419704" lon="14.743577">
        <ele>1591.056</ele>
        <time>2010-09-21T07:59:05Z</time>
      </trkpt>
      <trkpt lat="46.419693" lon="14.743604">
        <ele>1591.056</ele>
        <time>2010-09-21T07:59:11Z</time>
      </trkpt>
      <trkpt lat="46.419650" lon="14.743583">
        <ele>1592.8848</ele>
        <time>2010-09-21T07:59:16Z</time>
      </trkpt>
      <trkpt lat="46.419591" lon="14.743550">
        <ele>1594.104</ele>
        <time>2010-09-21T07:59:23Z</time>
      </trkpt>
      <trkpt lat="46.419538" lon="14.743529">
        <ele>1595.0184</ele>
        <time>2010-09-21T07:59:28Z</time>
      </trkpt>
      <trkpt lat="46.419484" lon="14.743508">
        <ele>1595.9328</ele>
        <time>2010-09-21T07:59:35Z</time>
      </trkpt>
      <trkpt lat="46.419436" lon="14.743475">
        <ele>1598.0664</ele>
        <time>2010-09-21T07:59:40Z</time>
      </trkpt>
      <trkpt lat="46.419393" lon="14.743443">
        <ele>1598.9808</ele>
        <time>2010-09-21T07:59:47Z</time>
      </trkpt>
      <trkpt lat="46.419339" lon="14.743427">
        <ele>1599.8952</ele>
        <time>2010-09-21T07:59:52Z</time>
      </trkpt>
      <trkpt lat="46.419307" lon="14.743379">
        <ele>1602.9432</ele>
        <time>2010-09-21T07:59:59Z</time>
      </trkpt>
      <trkpt lat="46.419302" lon="14.743314">
        <ele>1603.8576</ele>
        <time>2010-09-21T08:00:05Z</time>
      </trkpt>
      <trkpt lat="46.419291" lon="14.743250">
        <ele>1605.0768</ele>
        <time>2010-09-21T08:00:10Z</time>
      </trkpt>
      <trkpt lat="46.419280" lon="14.743202">
        <ele>1605.0768</ele>
        <time>2010-09-21T08:00:17Z</time>
      </trkpt>
      <trkpt lat="46.419280" lon="14.743196">
        <ele>1605.9912</ele>
        <time>2010-09-21T08:00:22Z</time>
      </trkpt>
      <trkpt lat="46.419253" lon="14.743116">
        <ele>1606.9056</ele>
        <time>2010-09-21T08:00:29Z</time>
      </trkpt>
      <trkpt lat="46.419194" lon="14.743094">
        <ele>1609.9536</ele>
        <time>2010-09-21T08:00:34Z</time>
      </trkpt>
      <trkpt lat="46.419135" lon="14.743084">
        <ele>1610.868</ele>
        <time>2010-09-21T08:00:41Z</time>
      </trkpt>
      <trkpt lat="46.419071" lon="14.743094">
        <ele>1613.0016</ele>
        <time>2010-09-21T08:00:46Z</time>
      </trkpt>
      <trkpt lat="46.419012" lon="14.743094">
        <ele>1615.1352</ele>
        <time>2010-09-21T08:00:53Z</time>
      </trkpt>
      <trkpt lat="46.418948" lon="14.743078">
        <ele>1616.0496</ele>
        <time>2010-09-21T08:00:59Z</time>
      </trkpt>
      <trkpt lat="46.418889" lon="14.743052">
        <ele>1616.0496</ele>
        <time>2010-09-21T08:01:04Z</time>
      </trkpt>
      <trkpt lat="46.418819" lon="14.743052">
        <ele>1616.964</ele>
        <time>2010-09-21T08:01:11Z</time>
      </trkpt>
      <trkpt lat="46.418765" lon="14.743062">
        <ele>1619.0976</ele>
        <time>2010-09-21T08:01:16Z</time>
      </trkpt>
      <trkpt lat="46.418701" lon="14.743052">
        <ele>1619.0976</ele>
        <time>2010-09-21T08:01:23Z</time>
      </trkpt>
      <trkpt lat="46.418653" lon="14.742993">
        <ele>1620.012</ele>
        <time>2010-09-21T08:01:28Z</time>
      </trkpt>
      <trkpt lat="46.418626" lon="14.742923">
        <ele>1620.9264</ele>
        <time>2010-09-21T08:01:35Z</time>
      </trkpt>
      <trkpt lat="46.418599" lon="14.742907">
        <ele>1623.06</ele>
        <time>2010-09-21T08:01:40Z</time>
      </trkpt>
      <trkpt lat="46.418594" lon="14.742885">
        <ele>1623.06</ele>
        <time>2010-09-21T08:01:47Z</time>
      </trkpt>
      <trkpt lat="46.418567" lon="14.742885">
        <ele>1623.06</ele>
        <time>2010-09-21T08:01:53Z</time>
      </trkpt>
      <trkpt lat="46.418513" lon="14.742880">
        <ele>1624.8888</ele>
        <time>2010-09-21T08:01:58Z</time>
      </trkpt>
      <trkpt lat="46.418454" lon="14.742891">
        <ele>1627.9368</ele>
        <time>2010-09-21T08:02:05Z</time>
      </trkpt>
      <trkpt lat="46.418427" lon="14.742842">
        <ele>1630.0704</ele>
        <time>2010-09-21T08:02:10Z</time>
      </trkpt>
      <trkpt lat="46.418454" lon="14.742810">
        <ele>1630.9848</ele>
        <time>2010-09-21T08:02:17Z</time>
      </trkpt>
      <trkpt lat="46.418438" lon="14.742864">
        <ele>1630.0704</ele>
        <time>2010-09-21T08:02:22Z</time>
      </trkpt>
      <trkpt lat="46.418433" lon="14.742875">
        <ele>1628.8512</ele>
        <time>2010-09-21T08:02:29Z</time>
      </trkpt>
      <trkpt lat="46.418400" lon="14.742885">
        <ele>1630.0704</ele>
        <time>2010-09-21T08:02:34Z</time>
      </trkpt>
      <trkpt lat="46.418449" lon="14.742901">
        <ele>1630.0704</ele>
        <time>2010-09-21T08:02:41Z</time>
      </trkpt>
      <trkpt lat="46.418449" lon="14.742939">
        <ele>1630.0704</ele>
        <time>2010-09-21T08:02:47Z</time>
      </trkpt>
      <trkpt lat="46.418433" lon="14.742923">
        <ele>1628.8512</ele>
        <time>2010-09-21T08:02:52Z</time>
      </trkpt>
      <trkpt lat="46.418411" lon="14.742917">
        <ele>1628.8512</ele>
        <time>2010-09-21T08:02:59Z</time>
      </trkpt>
      <trkpt lat="46.418406" lon="14.742917">
        <ele>1630.9848</ele>
        <time>2010-09-21T08:03:04Z</time>
      </trkpt>
      <trkpt lat="46.418400" lon="14.742939">
        <ele>1630.0704</ele>
        <time>2010-09-21T08:03:11Z</time>
      </trkpt>
      <trkpt lat="46.418422" lon="14.742950">
        <ele>1630.9848</ele>
        <time>2010-09-21T08:03:16Z</time>
      </trkpt>
      <trkpt lat="46.418422" lon="14.742917">
        <ele>1627.0224</ele>
        <time>2010-09-21T08:03:23Z</time>
      </trkpt>
      <trkpt lat="46.418422" lon="14.742917">
        <ele>1627.0224</ele>
        <time>2010-09-21T08:03:28Z</time>
      </trkpt>
      <trkpt lat="46.418417" lon="14.742923">
        <ele>1627.9368</ele>
        <time>2010-09-21T08:03:35Z</time>
      </trkpt>
      <trkpt lat="46.418400" lon="14.742917">
        <ele>1623.06</ele>
        <time>2010-09-21T08:03:41Z</time>
      </trkpt>
      <trkpt lat="46.418379" lon="14.742950">
        <ele>1624.8888</ele>
        <time>2010-09-21T08:03:46Z</time>
      </trkpt>
      <trkpt lat="46.418422" lon="14.742896">
        <ele>1624.8888</ele>
        <time>2010-09-21T08:03:53Z</time>
      </trkpt>
      <trkpt lat="46.418454" lon="14.742842">
        <ele>1622.1456</ele>
        <time>2010-09-21T08:03:58Z</time>
      </trkpt>
      <trkpt lat="46.418459" lon="14.742826">
        <ele>1620.9264</ele>
        <time>2010-09-21T08:04:05Z</time>
      </trkpt>
      <trkpt lat="46.418459" lon="14.742832">
        <ele>1624.8888</ele>
        <time>2010-09-21T08:04:10Z</time>
      </trkpt>
      <trkpt lat="46.418454" lon="14.742848">
        <ele>1626.108</ele>
        <time>2010-09-21T08:04:17Z</time>
      </trkpt>
      <trkpt lat="46.418454" lon="14.742848">
        <ele>1626.108</ele>
        <time>2010-09-21T08:04:22Z</time>
      </trkpt>
      <trkpt lat="46.418454" lon="14.742848">
        <ele>1626.108</ele>
        <time>2010-09-21T08:04:29Z</time>
      </trkpt>
      <trkpt lat="46.418411" lon="14.742853">
        <ele>1626.108</ele>
        <time>2010-09-21T08:04:35Z</time>
      </trkpt>
      <trkpt lat="46.418390" lon="14.742891">
        <ele>1626.108</ele>
        <time>2010-09-21T08:04:40Z</time>
      </trkpt>
      <trkpt lat="46.418390" lon="14.742880">
        <ele>1622.1456</ele>
        <time>2010-09-21T08:04:47Z</time>
      </trkpt>
      <trkpt lat="46.418390" lon="14.742869">
        <ele>1622.1456</ele>
        <time>2010-09-21T08:04:52Z</time>
      </trkpt>
      <trkpt lat="46.418390" lon="14.742875">
        <ele>1622.1456</ele>
        <time>2010-09-21T08:04:59Z</time>
      </trkpt>
      <trkpt lat="46.418341" lon="14.742928">
        <ele>1623.9744</ele>
        <time>2010-09-21T08:05:04Z</time>
      </trkpt>
      <trkpt lat="46.418341" lon="14.742858">
        <ele>1626.108</ele>
        <time>2010-09-21T08:05:11Z</time>
      </trkpt>
      <trkpt lat="46.418298" lon="14.742778">
        <ele>1627.9368</ele>
        <time>2010-09-21T08:05:16Z</time>
      </trkpt>
      <trkpt lat="46.418293" lon="14.742719">
        <ele>1630.0704</ele>
        <time>2010-09-21T08:05:23Z</time>
      </trkpt>
      <trkpt lat="46.418282" lon="14.742719">
        <ele>1631.8992</ele>
        <time>2010-09-21T08:05:29Z</time>
      </trkpt>
      <trkpt lat="46.418256" lon="14.742730">
        <ele>1633.1184</ele>
        <time>2010-09-21T08:05:34Z</time>
      </trkpt>
      <trkpt lat="46.418132" lon="14.742810">
        <ele>1634.0328</ele>
        <time>2010-09-21T08:05:41Z</time>
      </trkpt>
      <trkpt lat="46.418084" lon="14.742794">
        <ele>1634.9472</ele>
        <time>2010-09-21T08:05:46Z</time>
      </trkpt>
      <trkpt lat="46.418062" lon="14.742815">
        <ele>1637.0808</ele>
        <time>2010-09-21T08:05:53Z</time>
      </trkpt>
      <trkpt lat="46.418068" lon="14.742826">
        <ele>1635.8616</ele>
        <time>2010-09-21T08:05:58Z</time>
      </trkpt>
      <trkpt lat="46.418025" lon="14.742778">
        <ele>1637.0808</ele>
        <time>2010-09-21T08:06:05Z</time>
      </trkpt>
      <trkpt lat="46.418003" lon="14.742724">
        <ele>1637.0808</ele>
        <time>2010-09-21T08:06:10Z</time>
      </trkpt>
      <trkpt lat="46.417955" lon="14.742714">
        <ele>1641.9576</ele>
        <time>2010-09-21T08:06:17Z</time>
      </trkpt>
      <trkpt lat="46.417934" lon="14.742756">
        <ele>1644.0912</ele>
        <time>2010-09-21T08:06:23Z</time>
      </trkpt>
      <trkpt lat="46.417912" lon="14.742783">
        <ele>1645.0056</ele>
        <time>2010-09-21T08:06:28Z</time>
      </trkpt>
      <trkpt lat="46.417923" lon="14.742762">
        <ele>1649.8824</ele>
        <time>2010-09-21T08:06:35Z</time>
      </trkpt>
      <trkpt lat="46.417853" lon="14.742789">
        <ele>1652.016</ele>
        <time>2010-09-21T08:06:40Z</time>
      </trkpt>
      <trkpt lat="46.417826" lon="14.742746">
        <ele>1655.9784</ele>
        <time>2010-09-21T08:06:47Z</time>
      </trkpt>
      <trkpt lat="46.417783" lon="14.742789">
        <ele>1659.0264</ele>
        <time>2010-09-21T08:06:52Z</time>
      </trkpt>
      <trkpt lat="46.417724" lon="14.742826">
        <ele>1658.112</ele>
        <time>2010-09-21T08:06:59Z</time>
      </trkpt>
      <trkpt lat="46.417671" lon="14.742842">
        <ele>1656.8928</ele>
        <time>2010-09-21T08:07:04Z</time>
      </trkpt>
      <trkpt lat="46.417639" lon="14.742853">
        <ele>1659.0264</ele>
        <time>2010-09-21T08:07:11Z</time>
      </trkpt>
      <trkpt lat="46.417623" lon="14.742832">
        <ele>1659.0264</ele>
        <time>2010-09-21T08:07:17Z</time>
      </trkpt>
      <trkpt lat="46.417606" lon="14.742848">
        <ele>1659.0264</ele>
        <time>2010-09-21T08:07:22Z</time>
      </trkpt>
      <trkpt lat="46.417580" lon="14.742837">
        <ele>1662.0744</ele>
        <time>2010-09-21T08:07:29Z</time>
      </trkpt>
      <trkpt lat="46.417547" lon="14.742837">
        <ele>1662.0744</ele>
        <time>2010-09-21T08:07:34Z</time>
      </trkpt>
      <trkpt lat="46.417515" lon="14.742826">
        <ele>1663.9032</ele>
        <time>2010-09-21T08:07:41Z</time>
      </trkpt>
      <trkpt lat="46.417488" lon="14.742767">
        <ele>1662.9888</ele>
        <time>2010-09-21T08:07:46Z</time>
      </trkpt>
      <trkpt lat="46.417483" lon="14.742767">
        <ele>1659.9408</ele>
        <time>2010-09-21T08:07:53Z</time>
      </trkpt>
      <trkpt lat="46.417488" lon="14.742735">
        <ele>1659.0264</ele>
        <time>2010-09-21T08:07:58Z</time>
      </trkpt>
      <trkpt lat="46.417478" lon="14.742703">
        <ele>1660.8552</ele>
        <time>2010-09-21T08:08:05Z</time>
      </trkpt>
      <trkpt lat="46.417499" lon="14.742676">
        <ele>1659.9408</ele>
        <time>2010-09-21T08:08:11Z</time>
      </trkpt>
      <trkpt lat="46.417483" lon="14.742665">
        <ele>1659.9408</ele>
        <time>2010-09-21T08:08:16Z</time>
      </trkpt>
      <trkpt lat="46.417462" lon="14.742655">
        <ele>1659.9408</ele>
        <time>2010-09-21T08:08:23Z</time>
      </trkpt>
      <trkpt lat="46.417435" lon="14.742644">
        <ele>1662.9888</ele>
        <time>2010-09-21T08:08:28Z</time>
      </trkpt>
      <trkpt lat="46.417419" lon="14.742644">
        <ele>1665.1224</ele>
        <time>2010-09-21T08:08:35Z</time>
      </trkpt>
      <trkpt lat="46.417397" lon="14.742628">
        <ele>1666.0368</ele>
        <time>2010-09-21T08:08:40Z</time>
      </trkpt>
      <trkpt lat="46.417392" lon="14.742612">
        <ele>1666.9512</ele>
        <time>2010-09-21T08:08:47Z</time>
      </trkpt>
      <trkpt lat="46.417403" lon="14.742569">
        <ele>1669.0848</ele>
        <time>2010-09-21T08:08:52Z</time>
      </trkpt>
      <trkpt lat="46.417403" lon="14.742531">
        <ele>1669.9992</ele>
        <time>2010-09-21T08:08:59Z</time>
      </trkpt>
      <trkpt lat="46.417365" lon="14.742510">
        <ele>1670.9136</ele>
        <time>2010-09-21T08:09:05Z</time>
      </trkpt>
      <trkpt lat="46.417333" lon="14.742494">
        <ele>1670.9136</ele>
        <time>2010-09-21T08:09:10Z</time>
      </trkpt>
      <trkpt lat="46.417295" lon="14.742483">
        <ele>1673.0472</ele>
        <time>2010-09-21T08:09:17Z</time>
      </trkpt>
      <trkpt lat="46.417269" lon="14.742488">
        <ele>1673.9616</ele>
        <time>2010-09-21T08:09:22Z</time>
      </trkpt>
      <trkpt lat="46.417236" lon="14.742483">
        <ele>1676.0952</ele>
        <time>2010-09-21T08:09:29Z</time>
      </trkpt>
      <trkpt lat="46.417231" lon="14.742451">
        <ele>1676.0952</ele>
        <time>2010-09-21T08:09:34Z</time>
      </trkpt>
      <trkpt lat="46.417199" lon="14.742424">
        <ele>1676.0952</ele>
        <time>2010-09-21T08:09:41Z</time>
      </trkpt>
      <trkpt lat="46.417188" lon="14.742402">
        <ele>1677.0096</ele>
        <time>2010-09-21T08:09:46Z</time>
      </trkpt>
      <trkpt lat="46.417193" lon="14.742376">
        <ele>1676.0952</ele>
        <time>2010-09-21T08:09:53Z</time>
      </trkpt>
      <trkpt lat="46.417193" lon="14.742370">
        <ele>1677.0096</ele>
        <time>2010-09-21T08:09:59Z</time>
      </trkpt>
      <trkpt lat="46.417183" lon="14.742381">
        <ele>1677.0096</ele>
        <time>2010-09-21T08:10:04Z</time>
      </trkpt>
      <trkpt lat="46.417183" lon="14.742381">
        <ele>1677.0096</ele>
        <time>2010-09-21T08:10:11Z</time>
      </trkpt>
      <trkpt lat="46.417183" lon="14.742381">
        <ele>1677.0096</ele>
        <time>2010-09-21T08:10:16Z</time>
      </trkpt>
      <trkpt lat="46.417183" lon="14.742381">
        <ele>1677.0096</ele>
        <time>2010-09-21T08:10:23Z</time>
      </trkpt>
      <trkpt lat="46.417188" lon="14.742386">
        <ele>1677.0096</ele>
        <time>2010-09-21T08:10:28Z</time>
      </trkpt>
      <trkpt lat="46.417177" lon="14.742402">
        <ele>1677.924</ele>
        <time>2010-09-21T08:10:35Z</time>
      </trkpt>
      <trkpt lat="46.417177" lon="14.742402">
        <ele>1677.924</ele>
        <time>2010-09-21T08:10:40Z</time>
      </trkpt>
      <trkpt lat="46.417177" lon="14.742402">
        <ele>1677.924</ele>
        <time>2010-09-21T08:10:47Z</time>
      </trkpt>
      <trkpt lat="46.417183" lon="14.742381">
        <ele>1677.924</ele>
        <time>2010-09-21T08:10:53Z</time>
      </trkpt>
      <trkpt lat="46.417172" lon="14.742338">
        <ele>1677.924</ele>
        <time>2010-09-21T08:10:58Z</time>
      </trkpt>
      <trkpt lat="46.417167" lon="14.742322">
        <ele>1680.0576</ele>
        <time>2010-09-21T08:11:05Z</time>
      </trkpt>
      <trkpt lat="46.417177" lon="14.742236">
        <ele>1681.8864</ele>
        <time>2010-09-21T08:11:10Z</time>
      </trkpt>
      <trkpt lat="46.417161" lon="14.742231">
        <ele>1683.1056</ele>
        <time>2010-09-21T08:11:17Z</time>
      </trkpt>
      <trkpt lat="46.417118" lon="14.742236">
        <ele>1684.02</ele>
        <time>2010-09-21T08:11:22Z</time>
      </trkpt>
      <trkpt lat="46.417086" lon="14.742247">
        <ele>1685.8488</ele>
        <time>2010-09-21T08:11:29Z</time>
      </trkpt>
      <trkpt lat="46.417086" lon="14.742263">
        <ele>1685.8488</ele>
        <time>2010-09-21T08:11:34Z</time>
      </trkpt>
      <trkpt lat="46.417065" lon="14.742279">
        <ele>1687.9824</ele>
        <time>2010-09-21T08:11:41Z</time>
      </trkpt>
      <trkpt lat="46.417059" lon="14.742247">
        <ele>1688.8968</ele>
        <time>2010-09-21T08:11:47Z</time>
      </trkpt>
      <trkpt lat="46.417086" lon="14.742225">
        <ele>1691.9448</ele>
        <time>2010-09-21T08:11:52Z</time>
      </trkpt>
      <trkpt lat="46.417049" lon="14.742161">
        <ele>1688.8968</ele>
        <time>2010-09-21T08:11:59Z</time>
      </trkpt>
      <trkpt lat="46.417016" lon="14.742156">
        <ele>1691.0304</ele>
        <time>2010-09-21T08:12:04Z</time>
      </trkpt>
      <trkpt lat="46.417000" lon="14.742177">
        <ele>1694.0784</ele>
        <time>2010-09-21T08:12:11Z</time>
      </trkpt>
      <trkpt lat="46.416984" lon="14.742134">
        <ele>1692.8592</ele>
        <time>2010-09-21T08:12:16Z</time>
      </trkpt>
      <trkpt lat="46.416963" lon="14.742129">
        <ele>1694.0784</ele>
        <time>2010-09-21T08:12:23Z</time>
      </trkpt>
      <trkpt lat="46.416963" lon="14.742113">
        <ele>1694.0784</ele>
        <time>2010-09-21T08:12:28Z</time>
      </trkpt>
      <trkpt lat="46.416925" lon="14.742134">
        <ele>1695.9072</ele>
        <time>2010-09-21T08:12:35Z</time>
      </trkpt>
      <trkpt lat="46.416925" lon="14.742118">
        <ele>1698.9552</ele>
        <time>2010-09-21T08:12:41Z</time>
      </trkpt>
      <trkpt lat="46.416893" lon="14.742129">
        <ele>1701.0888</ele>
        <time>2010-09-21T08:12:46Z</time>
      </trkpt>
      <trkpt lat="46.416855" lon="14.742188">
        <ele>1701.0888</ele>
        <time>2010-09-21T08:12:53Z</time>
      </trkpt>
      <trkpt lat="46.416834" lon="14.742215">
        <ele>1699.8696</ele>
        <time>2010-09-21T08:12:58Z</time>
      </trkpt>
      <trkpt lat="46.416802" lon="14.742242">
        <ele>1701.0888</ele>
        <time>2010-09-21T08:13:05Z</time>
      </trkpt>
      <trkpt lat="46.416711" lon="14.742290">
        <ele>1701.0888</ele>
        <time>2010-09-21T08:13:10Z</time>
      </trkpt>
      <trkpt lat="46.416705" lon="14.742263">
        <ele>1702.0032</ele>
        <time>2010-09-21T08:13:17Z</time>
      </trkpt>
      <trkpt lat="46.416700" lon="14.742258">
        <ele>1704.1368</ele>
        <time>2010-09-21T08:13:22Z</time>
      </trkpt>
      <trkpt lat="46.416619" lon="14.742311">
        <ele>1705.9656</ele>
        <time>2010-09-21T08:13:29Z</time>
      </trkpt>
      <trkpt lat="46.416593" lon="14.742311">
        <ele>1705.9656</ele>
        <time>2010-09-21T08:13:35Z</time>
      </trkpt>
      <trkpt lat="46.416555" lon="14.742322">
        <ele>1706.88</ele>
        <time>2010-09-21T08:13:40Z</time>
      </trkpt>
      <trkpt lat="46.416593" lon="14.742301">
        <ele>1705.9656</ele>
        <time>2010-09-21T08:13:47Z</time>
      </trkpt>
      <trkpt lat="46.416582" lon="14.742306">
        <ele>1706.88</ele>
        <time>2010-09-21T08:13:52Z</time>
      </trkpt>
      <trkpt lat="46.416652" lon="14.742225">
        <ele>1712.0616</ele>
        <time>2010-09-21T08:13:59Z</time>
      </trkpt>
      <trkpt lat="46.416684" lon="14.742188">
        <ele>1715.1096</ele>
        <time>2010-09-21T08:14:04Z</time>
      </trkpt>
      <trkpt lat="46.416614" lon="14.742252">
        <ele>1716.9384</ele>
        <time>2010-09-21T08:14:11Z</time>
      </trkpt>
      <trkpt lat="46.416609" lon="14.742279">
        <ele>1717.8528</ele>
        <time>2010-09-21T08:14:16Z</time>
      </trkpt>
      <trkpt lat="46.416668" lon="14.742209">
        <ele>1719.9864</ele>
        <time>2010-09-21T08:14:23Z</time>
      </trkpt>
      <trkpt lat="46.416673" lon="14.742129">
        <ele>1723.0344</ele>
        <time>2010-09-21T08:14:29Z</time>
      </trkpt>
      <trkpt lat="46.416646" lon="14.742140">
        <ele>1723.0344</ele>
        <time>2010-09-21T08:14:34Z</time>
      </trkpt>
      <trkpt lat="46.416662" lon="14.742102">
        <ele>1723.9488</ele>
        <time>2010-09-21T08:14:41Z</time>
      </trkpt>
      <trkpt lat="46.416721" lon="14.742032">
        <ele>1724.8632</ele>
        <time>2010-09-21T08:14:46Z</time>
      </trkpt>
      <trkpt lat="46.416609" lon="14.742123">
        <ele>1723.0344</ele>
        <time>2010-09-21T08:14:53Z</time>
      </trkpt>
      <trkpt lat="46.416652" lon="14.742081">
        <ele>1723.0344</ele>
        <time>2010-09-21T08:14:58Z</time>
      </trkpt>
      <trkpt lat="46.416711" lon="14.742022">
        <ele>1722.12</ele>
        <time>2010-09-21T08:15:05Z</time>
      </trkpt>
      <trkpt lat="46.416786" lon="14.741887">
        <ele>1719.9864</ele>
        <time>2010-09-21T08:15:10Z</time>
      </trkpt>
      <trkpt lat="46.416743" lon="14.741839">
        <ele>1716.9384</ele>
        <time>2010-09-21T08:15:17Z</time>
      </trkpt>
      <trkpt lat="46.416807" lon="14.741780">
        <ele>1719.9864</ele>
        <time>2010-09-21T08:15:23Z</time>
      </trkpt>
      <trkpt lat="46.416872" lon="14.741727">
        <ele>1723.0344</ele>
        <time>2010-09-21T08:15:28Z</time>
      </trkpt>
      <trkpt lat="46.416936" lon="14.741662">
        <ele>1723.9488</ele>
        <time>2010-09-21T08:15:35Z</time>
      </trkpt>
      <trkpt lat="46.416973" lon="14.741603">
        <ele>1723.9488</ele>
        <time>2010-09-21T08:15:40Z</time>
      </trkpt>
      <trkpt lat="46.417027" lon="14.741528">
        <ele>1723.9488</ele>
        <time>2010-09-21T08:15:47Z</time>
      </trkpt>
      <trkpt lat="46.417081" lon="14.741496">
        <ele>1724.8632</ele>
        <time>2010-09-21T08:15:52Z</time>
      </trkpt>
      <trkpt lat="46.417075" lon="14.741426">
        <ele>1723.9488</ele>
        <time>2010-09-21T08:15:59Z</time>
      </trkpt>
      <trkpt lat="46.417032" lon="14.741378">
        <ele>1723.9488</ele>
        <time>2010-09-21T08:16:04Z</time>
      </trkpt>
      <trkpt lat="46.416973" lon="14.741362">
        <ele>1723.9488</ele>
        <time>2010-09-21T08:16:11Z</time>
      </trkpt>
      <trkpt lat="46.416920" lon="14.741340">
        <ele>1723.0344</ele>
        <time>2010-09-21T08:16:17Z</time>
      </trkpt>
      <trkpt lat="46.416914" lon="14.741330">
        <ele>1723.9488</ele>
        <time>2010-09-21T08:16:22Z</time>
      </trkpt>
      <trkpt lat="46.416893" lon="14.741276">
        <ele>1724.8632</ele>
        <time>2010-09-21T08:16:29Z</time>
      </trkpt>
      <trkpt lat="46.416850" lon="14.741260">
        <ele>1726.0824</ele>
        <time>2010-09-21T08:16:34Z</time>
      </trkpt>
      <trkpt lat="46.416796" lon="14.741238">
        <ele>1729.1304</ele>
        <time>2010-09-21T08:16:41Z</time>
      </trkpt>
      <trkpt lat="46.416754" lon="14.741222">
        <ele>1730.9592</ele>
        <time>2010-09-21T08:16:46Z</time>
      </trkpt>
      <trkpt lat="46.416721" lon="14.741228">
        <ele>1731.8736</ele>
        <time>2010-09-21T08:16:53Z</time>
      </trkpt>
      <trkpt lat="46.416705" lon="14.741217">
        <ele>1733.0928</ele>
        <time>2010-09-21T08:16:58Z</time>
      </trkpt>
      <trkpt lat="46.416700" lon="14.741201">
        <ele>1734.0072</ele>
        <time>2010-09-21T08:17:05Z</time>
      </trkpt>
      <trkpt lat="46.416668" lon="14.741206">
        <ele>1734.9216</ele>
        <time>2010-09-21T08:17:11Z</time>
      </trkpt>
      <trkpt lat="46.416646" lon="14.741206">
        <ele>1736.1408</ele>
        <time>2010-09-21T08:17:16Z</time>
      </trkpt>
      <trkpt lat="46.416609" lon="14.741185">
        <ele>1737.9696</ele>
        <time>2010-09-21T08:17:23Z</time>
      </trkpt>
      <trkpt lat="46.416571" lon="14.741169">
        <ele>1740.1032</ele>
        <time>2010-09-21T08:17:28Z</time>
      </trkpt>
      <trkpt lat="46.416528" lon="14.741131">
        <ele>1743.1512</ele>
        <time>2010-09-21T08:17:35Z</time>
      </trkpt>
      <trkpt lat="46.416485" lon="14.741142">
        <ele>1743.1512</ele>
        <time>2010-09-21T08:17:40Z</time>
      </trkpt>
      <trkpt lat="46.416458" lon="14.741179">
        <ele>1744.0656</ele>
        <time>2010-09-21T08:17:47Z</time>
      </trkpt>
      <trkpt lat="46.416448" lon="14.741190">
        <ele>1744.98</ele>
        <time>2010-09-21T08:17:52Z</time>
      </trkpt>
      <trkpt lat="46.416432" lon="14.741206">
        <ele>1745.8944</ele>
        <time>2010-09-21T08:17:59Z</time>
      </trkpt>
      <trkpt lat="46.416399" lon="14.741222">
        <ele>1747.1136</ele>
        <time>2010-09-21T08:18:05Z</time>
      </trkpt>
      <trkpt lat="46.416378" lon="14.741249">
        <ele>1748.028</ele>
        <time>2010-09-21T08:18:10Z</time>
      </trkpt>
      <trkpt lat="46.416357" lon="14.741238">
        <ele>1748.9424</ele>
        <time>2010-09-21T08:18:17Z</time>
      </trkpt>
      <trkpt lat="46.416303" lon="14.741249">
        <ele>1749.8568</ele>
        <time>2010-09-21T08:18:22Z</time>
      </trkpt>
      <trkpt lat="46.416287" lon="14.741271">
        <ele>1751.9904</ele>
        <time>2010-09-21T08:18:29Z</time>
      </trkpt>
      <trkpt lat="46.416265" lon="14.741297">
        <ele>1754.124</ele>
        <time>2010-09-21T08:18:34Z</time>
      </trkpt>
      <trkpt lat="46.416233" lon="14.741281">
        <ele>1755.0384</ele>
        <time>2010-09-21T08:18:41Z</time>
      </trkpt>
      <trkpt lat="46.416206" lon="14.741303">
        <ele>1755.9528</ele>
        <time>2010-09-21T08:18:46Z</time>
      </trkpt>
      <trkpt lat="46.416169" lon="14.741292">
        <ele>1758.0864</ele>
        <time>2010-09-21T08:18:53Z</time>
      </trkpt>
      <trkpt lat="46.416158" lon="14.741303">
        <ele>1759.0008</ele>
        <time>2010-09-21T08:18:59Z</time>
      </trkpt>
      <trkpt lat="46.416142" lon="14.741319">
        <ele>1759.0008</ele>
        <time>2010-09-21T08:19:04Z</time>
      </trkpt>
      <trkpt lat="46.416126" lon="14.741297">
        <ele>1761.1344</ele>
        <time>2010-09-21T08:19:11Z</time>
      </trkpt>
      <trkpt lat="46.416088" lon="14.741287">
        <ele>1762.9632</ele>
        <time>2010-09-21T08:19:16Z</time>
      </trkpt>
      <trkpt lat="46.416072" lon="14.741292">
        <ele>1763.8776</ele>
        <time>2010-09-21T08:19:23Z</time>
      </trkpt>
      <trkpt lat="46.416045" lon="14.741297">
        <ele>1763.8776</ele>
        <time>2010-09-21T08:19:28Z</time>
      </trkpt>
      <trkpt lat="46.416035" lon="14.741303">
        <ele>1762.9632</ele>
        <time>2010-09-21T08:19:35Z</time>
      </trkpt>
      <trkpt lat="46.416003" lon="14.741297">
        <ele>1763.8776</ele>
        <time>2010-09-21T08:19:40Z</time>
      </trkpt>
      <trkpt lat="46.415976" lon="14.741313">
        <ele>1766.0112</ele>
        <time>2010-09-21T08:19:47Z</time>
      </trkpt>
      <trkpt lat="46.415965" lon="14.741324">
        <ele>1765.0968</ele>
        <time>2010-09-21T08:19:53Z</time>
      </trkpt>
      <trkpt lat="46.415960" lon="14.741330">
        <ele>1766.0112</ele>
        <time>2010-09-21T08:19:58Z</time>
      </trkpt>
      <trkpt lat="46.415965" lon="14.741335">
        <ele>1766.0112</ele>
        <time>2010-09-21T08:20:05Z</time>
      </trkpt>
      <trkpt lat="46.415965" lon="14.741335">
        <ele>1765.0968</ele>
        <time>2010-09-21T08:20:10Z</time>
      </trkpt>
      <trkpt lat="46.415960" lon="14.741335">
        <ele>1765.0968</ele>
        <time>2010-09-21T08:20:17Z</time>
      </trkpt>
      <trkpt lat="46.415960" lon="14.741324">
        <ele>1766.0112</ele>
        <time>2010-09-21T08:20:22Z</time>
      </trkpt>
      <trkpt lat="46.415960" lon="14.741319">
        <ele>1766.0112</ele>
        <time>2010-09-21T08:20:29Z</time>
      </trkpt>
      <trkpt lat="46.415965" lon="14.741319">
        <ele>1766.0112</ele>
        <time>2010-09-21T08:20:34Z</time>
      </trkpt>
      <trkpt lat="46.415965" lon="14.741319">
        <ele>1766.0112</ele>
        <time>2010-09-21T08:20:41Z</time>
      </trkpt>
      <trkpt lat="46.415965" lon="14.741319">
        <ele>1766.0112</ele>
        <time>2010-09-21T08:20:47Z</time>
      </trkpt>
      <trkpt lat="46.415965" lon="14.741319">
        <ele>1766.0112</ele>
        <time>2010-09-21T08:20:52Z</time>
      </trkpt>
      <trkpt lat="46.415965" lon="14.741319">
        <ele>1766.0112</ele>
        <time>2010-09-21T08:20:59Z</time>
      </trkpt>
      <trkpt lat="46.415965" lon="14.741319">
        <ele>1766.0112</ele>
        <time>2010-09-21T08:21:05Z</time>
      </trkpt>
      <trkpt lat="46.415960" lon="14.741346">
        <ele>1766.9256</ele>
        <time>2010-09-21T08:21:12Z</time>
      </trkpt>
      <trkpt lat="46.415944" lon="14.741372">
        <ele>1768.1448</ele>
        <time>2010-09-21T08:21:18Z</time>
      </trkpt>
      <trkpt lat="46.415911" lon="14.741367">
        <ele>1768.1448</ele>
        <time>2010-09-21T08:21:23Z</time>
      </trkpt>
      <trkpt lat="46.415895" lon="14.741394">
        <ele>1769.9736</ele>
        <time>2010-09-21T08:21:30Z</time>
      </trkpt>
      <trkpt lat="46.415879" lon="14.741399">
        <ele>1770.888</ele>
        <time>2010-09-21T08:21:35Z</time>
      </trkpt>
      <trkpt lat="46.415863" lon="14.741426">
        <ele>1772.1072</ele>
        <time>2010-09-21T08:21:42Z</time>
      </trkpt>
      <trkpt lat="46.415831" lon="14.741410">
        <ele>1773.0216</ele>
        <time>2010-09-21T08:21:47Z</time>
      </trkpt>
      <trkpt lat="46.415799" lon="14.741389">
        <ele>1772.1072</ele>
        <time>2010-09-21T08:21:54Z</time>
      </trkpt>
      <trkpt lat="46.415761" lon="14.741378">
        <ele>1772.1072</ele>
        <time>2010-09-21T08:21:59Z</time>
      </trkpt>
      <trkpt lat="46.415724" lon="14.741330">
        <ele>1773.0216</ele>
        <time>2010-09-21T08:22:06Z</time>
      </trkpt>
      <trkpt lat="46.415643" lon="14.741346">
        <ele>1772.1072</ele>
        <time>2010-09-21T08:22:12Z</time>
      </trkpt>
      <trkpt lat="46.415616" lon="14.741383">
        <ele>1770.888</ele>
        <time>2010-09-21T08:22:17Z</time>
      </trkpt>
      <trkpt lat="46.415611" lon="14.741378">
        <ele>1769.9736</ele>
        <time>2010-09-21T08:22:24Z</time>
      </trkpt>
      <trkpt lat="46.415600" lon="14.741367">
        <ele>1772.1072</ele>
        <time>2010-09-21T08:22:29Z</time>
      </trkpt>
      <trkpt lat="46.415622" lon="14.741346">
        <ele>1776.0696</ele>
        <time>2010-09-21T08:22:36Z</time>
      </trkpt>
      <trkpt lat="46.415632" lon="14.741351">
        <ele>1776.984</ele>
        <time>2010-09-21T08:22:41Z</time>
      </trkpt>
      <trkpt lat="46.415622" lon="14.741330">
        <ele>1779.1176</ele>
        <time>2010-09-21T08:22:48Z</time>
      </trkpt>
      <trkpt lat="46.415606" lon="14.741330">
        <ele>1780.032</ele>
        <time>2010-09-21T08:22:53Z</time>
      </trkpt>
      <trkpt lat="46.415568" lon="14.741319">
        <ele>1781.8608</ele>
        <time>2010-09-21T08:23:00Z</time>
      </trkpt>
      <trkpt lat="46.415520" lon="14.741313">
        <ele>1783.9944</ele>
        <time>2010-09-21T08:23:06Z</time>
      </trkpt>
      <trkpt lat="46.415477" lon="14.741287">
        <ele>1784.9088</ele>
        <time>2010-09-21T08:23:11Z</time>
      </trkpt>
      <trkpt lat="46.415450" lon="14.741281">
        <ele>1783.9944</ele>
        <time>2010-09-21T08:23:18Z</time>
      </trkpt>
      <trkpt lat="46.415450" lon="14.741281">
        <ele>1783.9944</ele>
        <time>2010-09-21T08:23:23Z</time>
      </trkpt>
      <trkpt lat="46.415461" lon="14.741292">
        <ele>1783.9944</ele>
        <time>2010-09-21T08:23:30Z</time>
      </trkpt>
      <trkpt lat="46.415450" lon="14.741287">
        <ele>1783.9944</ele>
        <time>2010-09-21T08:23:35Z</time>
      </trkpt>
      <trkpt lat="46.415450" lon="14.741276">
        <ele>1783.08</ele>
        <time>2010-09-21T08:23:42Z</time>
      </trkpt>
      <trkpt lat="46.415450" lon="14.741276">
        <ele>1783.08</ele>
        <time>2010-09-21T08:23:47Z</time>
      </trkpt>
      <trkpt lat="46.415439" lon="14.741281">
        <ele>1783.08</ele>
        <time>2010-09-21T08:23:54Z</time>
      </trkpt>
      <trkpt lat="46.415359" lon="14.741228">
        <ele>1780.032</ele>
        <time>2010-09-21T08:24:00Z</time>
      </trkpt>
      <trkpt lat="46.415321" lon="14.741185">
        <ele>1779.1176</ele>
        <time>2010-09-21T08:24:05Z</time>
      </trkpt>
      <trkpt lat="46.415316" lon="14.741201">
        <ele>1777.8984</ele>
        <time>2010-09-21T08:24:12Z</time>
      </trkpt>
      <trkpt lat="46.415316" lon="14.741190">
        <ele>1779.1176</ele>
        <time>2010-09-21T08:24:17Z</time>
      </trkpt>
      <trkpt lat="46.415321" lon="14.741179">
        <ele>1779.1176</ele>
        <time>2010-09-21T08:24:24Z</time>
      </trkpt>
      <trkpt lat="46.415321" lon="14.741179">
        <ele>1779.1176</ele>
        <time>2010-09-21T08:24:29Z</time>
      </trkpt>
      <trkpt lat="46.415321" lon="14.741185">
        <ele>1777.8984</ele>
        <time>2010-09-21T08:24:36Z</time>
      </trkpt>
      <trkpt lat="46.415353" lon="14.741142">
        <ele>1780.9464</ele>
        <time>2010-09-21T08:24:41Z</time>
      </trkpt>
      <trkpt lat="46.415348" lon="14.741158">
        <ele>1781.8608</ele>
        <time>2010-09-21T08:24:48Z</time>
      </trkpt>
      <trkpt lat="46.415348" lon="14.741131">
        <ele>1783.9944</ele>
        <time>2010-09-21T08:24:54Z</time>
      </trkpt>
      <trkpt lat="46.415332" lon="14.741131">
        <ele>1784.9088</ele>
        <time>2010-09-21T08:24:59Z</time>
      </trkpt>
      <trkpt lat="46.415316" lon="14.741099">
        <ele>1786.128</ele>
        <time>2010-09-21T08:25:06Z</time>
      </trkpt>
      <trkpt lat="46.415305" lon="14.741072">
        <ele>1788.8712</ele>
        <time>2010-09-21T08:25:11Z</time>
      </trkpt>
      <trkpt lat="46.415284" lon="14.741040">
        <ele>1787.9568</ele>
        <time>2010-09-21T08:25:18Z</time>
      </trkpt>
      <trkpt lat="46.415246" lon="14.741051">
        <ele>1786.128</ele>
        <time>2010-09-21T08:25:23Z</time>
      </trkpt>
      <trkpt lat="46.415209" lon="14.741056">
        <ele>1784.9088</ele>
        <time>2010-09-21T08:25:30Z</time>
      </trkpt>
      <trkpt lat="46.415150" lon="14.741061">
        <ele>1783.08</ele>
        <time>2010-09-21T08:25:35Z</time>
      </trkpt>
      <trkpt lat="46.415080" lon="14.741083">
        <ele>1781.8608</ele>
        <time>2010-09-21T08:25:42Z</time>
      </trkpt>
      <trkpt lat="46.415015" lon="14.741088">
        <ele>1781.8608</ele>
        <time>2010-09-21T08:25:48Z</time>
      </trkpt>
      <trkpt lat="46.414978" lon="14.741067">
        <ele>1780.9464</ele>
        <time>2010-09-21T08:25:53Z</time>
      </trkpt>
      <trkpt lat="46.414946" lon="14.741008">
        <ele>1779.1176</ele>
        <time>2010-09-21T08:26:00Z</time>
      </trkpt>
      <trkpt lat="46.414914" lon="14.740981">
        <ele>1779.1176</ele>
        <time>2010-09-21T08:26:05Z</time>
      </trkpt>
      <trkpt lat="46.414897" lon="14.740943">
        <ele>1777.8984</ele>
        <time>2010-09-21T08:26:12Z</time>
      </trkpt>
      <trkpt lat="46.414887" lon="14.740911">
        <ele>1776.984</ele>
        <time>2010-09-21T08:26:17Z</time>
      </trkpt>
      <trkpt lat="46.414828" lon="14.740895">
        <ele>1776.984</ele>
        <time>2010-09-21T08:26:24Z</time>
      </trkpt>
      <trkpt lat="46.414806" lon="14.740895">
        <ele>1777.8984</ele>
        <time>2010-09-21T08:26:29Z</time>
      </trkpt>
      <trkpt lat="46.414779" lon="14.740884">
        <ele>1777.8984</ele>
        <time>2010-09-21T08:26:36Z</time>
      </trkpt>
      <trkpt lat="46.414758" lon="14.740900">
        <ele>1779.1176</ele>
        <time>2010-09-21T08:26:42Z</time>
      </trkpt>
      <trkpt lat="46.414753" lon="14.740911">
        <ele>1777.8984</ele>
        <time>2010-09-21T08:26:47Z</time>
      </trkpt>
      <trkpt lat="46.414747" lon="14.740911">
        <ele>1777.8984</ele>
        <time>2010-09-21T08:26:54Z</time>
      </trkpt>
      <trkpt lat="46.414742" lon="14.740922">
        <ele>1777.8984</ele>
        <time>2010-09-21T08:26:59Z</time>
      </trkpt>
      <trkpt lat="46.414731" lon="14.740927">
        <ele>1780.032</ele>
        <time>2010-09-21T08:27:06Z</time>
      </trkpt>
      <trkpt lat="46.414715" lon="14.740927">
        <ele>1780.032</ele>
        <time>2010-09-21T08:27:11Z</time>
      </trkpt>
      <trkpt lat="46.414699" lon="14.740927">
        <ele>1780.032</ele>
        <time>2010-09-21T08:27:18Z</time>
      </trkpt>
      <trkpt lat="46.414694" lon="14.740927">
        <ele>1780.032</ele>
        <time>2010-09-21T08:27:23Z</time>
      </trkpt>
      <trkpt lat="46.414678" lon="14.740922">
        <ele>1780.9464</ele>
        <time>2010-09-21T08:27:30Z</time>
      </trkpt>
      <trkpt lat="46.414651" lon="14.740911">
        <ele>1781.8608</ele>
        <time>2010-09-21T08:27:36Z</time>
      </trkpt>
      <trkpt lat="46.414635" lon="14.740911">
        <ele>1781.8608</ele>
        <time>2010-09-21T08:27:41Z</time>
      </trkpt>
      <trkpt lat="46.414608" lon="14.740922">
        <ele>1781.8608</ele>
        <time>2010-09-21T08:27:48Z</time>
      </trkpt>
      <trkpt lat="46.414597" lon="14.740916">
        <ele>1781.8608</ele>
        <time>2010-09-21T08:27:53Z</time>
      </trkpt>
      <trkpt lat="46.414565" lon="14.740938">
        <ele>1780.9464</ele>
        <time>2010-09-21T08:28:00Z</time>
      </trkpt>
      <trkpt lat="46.414517" lon="14.740992">
        <ele>1780.9464</ele>
        <time>2010-09-21T08:28:05Z</time>
      </trkpt>
      <trkpt lat="46.414522" lon="14.740965">
        <ele>1780.9464</ele>
        <time>2010-09-21T08:28:12Z</time>
      </trkpt>
      <trkpt lat="46.414543" lon="14.740906">
        <ele>1783.08</ele>
        <time>2010-09-21T08:28:17Z</time>
      </trkpt>
      <trkpt lat="46.414554" lon="14.740852">
        <ele>1787.0424</ele>
        <time>2010-09-21T08:28:24Z</time>
      </trkpt>
      <trkpt lat="46.414533" lon="14.740836">
        <ele>1790.0904</ele>
        <time>2010-09-21T08:28:30Z</time>
      </trkpt>
      <trkpt lat="46.414538" lon="14.740788">
        <ele>1791.9192</ele>
        <time>2010-09-21T08:28:35Z</time>
      </trkpt>
      <trkpt lat="46.414495" lon="14.740756">
        <ele>1793.1384</ele>
        <time>2010-09-21T08:28:42Z</time>
      </trkpt>
      <trkpt lat="46.414474" lon="14.740739">
        <ele>1794.0528</ele>
        <time>2010-09-21T08:28:47Z</time>
      </trkpt>
      <trkpt lat="46.414431" lon="14.740729">
        <ele>1794.0528</ele>
        <time>2010-09-21T08:28:54Z</time>
      </trkpt>
      <trkpt lat="46.414377" lon="14.740745">
        <ele>1794.0528</ele>
        <time>2010-09-21T08:28:59Z</time>
      </trkpt>
      <trkpt lat="46.414329" lon="14.740750">
        <ele>1794.0528</ele>
        <time>2010-09-21T08:29:06Z</time>
      </trkpt>
      <trkpt lat="46.414286" lon="14.740713">
        <ele>1794.0528</ele>
        <time>2010-09-21T08:29:11Z</time>
      </trkpt>
      <trkpt lat="46.414243" lon="14.740664">
        <ele>1794.0528</ele>
        <time>2010-09-21T08:29:18Z</time>
      </trkpt>
      <trkpt lat="46.414200" lon="14.740605">
        <ele>1794.9672</ele>
        <time>2010-09-21T08:29:24Z</time>
      </trkpt>
      <trkpt lat="46.414141" lon="14.740584">
        <ele>1795.8816</ele>
        <time>2010-09-21T08:29:29Z</time>
      </trkpt>
      <trkpt lat="46.414098" lon="14.740584">
        <ele>1797.1008</ele>
        <time>2010-09-21T08:29:36Z</time>
      </trkpt>
      <trkpt lat="46.414071" lon="14.740536">
        <ele>1798.9296</ele>
        <time>2010-09-21T08:29:41Z</time>
      </trkpt>
      <trkpt lat="46.414023" lon="14.740487">
        <ele>1798.0152</ele>
        <time>2010-09-21T08:29:48Z</time>
      </trkpt>
      <trkpt lat="46.413996" lon="14.740439">
        <ele>1798.9296</ele>
        <time>2010-09-21T08:29:53Z</time>
      </trkpt>
      <trkpt lat="46.413985" lon="14.740423">
        <ele>1800.1488</ele>
        <time>2010-09-21T08:30:00Z</time>
      </trkpt>
      <trkpt lat="46.413964" lon="14.740412">
        <ele>1800.1488</ele>
        <time>2010-09-21T08:30:05Z</time>
      </trkpt>
      <trkpt lat="46.413937" lon="14.740385">
        <ele>1801.9776</ele>
        <time>2010-09-21T08:30:12Z</time>
      </trkpt>
      <trkpt lat="46.413916" lon="14.740348">
        <ele>1802.892</ele>
        <time>2010-09-21T08:30:18Z</time>
      </trkpt>
      <trkpt lat="46.413884" lon="14.740283">
        <ele>1804.1112</ele>
        <time>2010-09-21T08:30:23Z</time>
      </trkpt>
      <trkpt lat="46.413835" lon="14.740246">
        <ele>1802.892</ele>
        <time>2010-09-21T08:30:30Z</time>
      </trkpt>
      <trkpt lat="46.413792" lon="14.740235">
        <ele>1802.892</ele>
        <time>2010-09-21T08:30:35Z</time>
      </trkpt>
      <trkpt lat="46.413728" lon="14.740224">
        <ele>1801.9776</ele>
        <time>2010-09-21T08:30:42Z</time>
      </trkpt>
      <trkpt lat="46.413680" lon="14.740208">
        <ele>1801.9776</ele>
        <time>2010-09-21T08:30:47Z</time>
      </trkpt>
      <trkpt lat="46.413658" lon="14.740139">
        <ele>1801.9776</ele>
        <time>2010-09-21T08:30:54Z</time>
      </trkpt>
      <trkpt lat="46.413631" lon="14.740074">
        <ele>1801.9776</ele>
        <time>2010-09-21T08:30:59Z</time>
      </trkpt>
      <trkpt lat="46.413615" lon="14.740005">
        <ele>1801.9776</ele>
        <time>2010-09-21T08:31:06Z</time>
      </trkpt>
      <trkpt lat="46.413572" lon="14.739972">
        <ele>1801.0632</ele>
        <time>2010-09-21T08:31:13Z</time>
      </trkpt>
      <trkpt lat="46.413540" lon="14.739913">
        <ele>1801.0632</ele>
        <time>2010-09-21T08:31:18Z</time>
      </trkpt>
      <trkpt lat="46.413492" lon="14.739854">
        <ele>1801.9776</ele>
        <time>2010-09-21T08:31:25Z</time>
      </trkpt>
      <trkpt lat="46.413465" lon="14.739854">
        <ele>1802.892</ele>
        <time>2010-09-21T08:31:30Z</time>
      </trkpt>
      <trkpt lat="46.413422" lon="14.739838">
        <ele>1801.0632</ele>
        <time>2010-09-21T08:31:37Z</time>
      </trkpt>
      <trkpt lat="46.413363" lon="14.739833">
        <ele>1801.0632</ele>
        <time>2010-09-21T08:31:43Z</time>
      </trkpt>
      <trkpt lat="46.413310" lon="14.739822">
        <ele>1800.1488</ele>
        <time>2010-09-21T08:31:48Z</time>
      </trkpt>
      <trkpt lat="46.413245" lon="14.739811">
        <ele>1798.9296</ele>
        <time>2010-09-21T08:31:55Z</time>
      </trkpt>
      <trkpt lat="46.413186" lon="14.739844">
        <ele>1798.9296</ele>
        <time>2010-09-21T08:32:00Z</time>
      </trkpt>
      <trkpt lat="46.413170" lon="14.739854">
        <ele>1798.0152</ele>
        <time>2010-09-21T08:32:07Z</time>
      </trkpt>
      <trkpt lat="46.413165" lon="14.739849">
        <ele>1798.0152</ele>
        <time>2010-09-21T08:32:12Z</time>
      </trkpt>
      <trkpt lat="46.413127" lon="14.739817">
        <ele>1798.0152</ele>
        <time>2010-09-21T08:32:19Z</time>
      </trkpt>
      <trkpt lat="46.413116" lon="14.739811">
        <ele>1798.0152</ele>
        <time>2010-09-21T08:32:24Z</time>
      </trkpt>
      <trkpt lat="46.413100" lon="14.739790">
        <ele>1798.9296</ele>
        <time>2010-09-21T08:32:31Z</time>
      </trkpt>
      <trkpt lat="46.413084" lon="14.739758">
        <ele>1798.9296</ele>
        <time>2010-09-21T08:32:37Z</time>
      </trkpt>
      <trkpt lat="46.413052" lon="14.739715">
        <ele>1800.1488</ele>
        <time>2010-09-21T08:32:42Z</time>
      </trkpt>
      <trkpt lat="46.413047" lon="14.739672">
        <ele>1800.1488</ele>
        <time>2010-09-21T08:32:49Z</time>
      </trkpt>
      <trkpt lat="46.413057" lon="14.739634">
        <ele>1801.0632</ele>
        <time>2010-09-21T08:32:54Z</time>
      </trkpt>
      <trkpt lat="46.413025" lon="14.739597">
        <ele>1801.9776</ele>
        <time>2010-09-21T08:33:01Z</time>
      </trkpt>
      <trkpt lat="46.413004" lon="14.739575">
        <ele>1802.892</ele>
        <time>2010-09-21T08:33:06Z</time>
      </trkpt>
      <trkpt lat="46.412988" lon="14.739559">
        <ele>1802.892</ele>
        <time>2010-09-21T08:33:13Z</time>
      </trkpt>
      <trkpt lat="46.412977" lon="14.739559">
        <ele>1802.892</ele>
        <time>2010-09-21T08:33:18Z</time>
      </trkpt>
      <trkpt lat="46.412977" lon="14.739565">
        <ele>1805.0256</ele>
        <time>2010-09-21T08:33:25Z</time>
      </trkpt>
      <trkpt lat="46.412977" lon="14.739575">
        <ele>1805.0256</ele>
        <time>2010-09-21T08:33:31Z</time>
      </trkpt>
      <trkpt lat="46.412966" lon="14.739581">
        <ele>1805.94</ele>
        <time>2010-09-21T08:33:36Z</time>
      </trkpt>
      <trkpt lat="46.412945" lon="14.739554">
        <ele>1806.8544</ele>
        <time>2010-09-21T08:33:43Z</time>
      </trkpt>
      <trkpt lat="46.412945" lon="14.739554">
        <ele>1805.94</ele>
        <time>2010-09-21T08:33:48Z</time>
      </trkpt>
      <trkpt lat="46.412934" lon="14.739554">
        <ele>1805.94</ele>
        <time>2010-09-21T08:33:55Z</time>
      </trkpt>
      <trkpt lat="46.412929" lon="14.739559">
        <ele>1806.8544</ele>
        <time>2010-09-21T08:34:00Z</time>
      </trkpt>
      <trkpt lat="46.412907" lon="14.739570">
        <ele>1808.0736</ele>
        <time>2010-09-21T08:34:07Z</time>
      </trkpt>
      <trkpt lat="46.412902" lon="14.739591">
        <ele>1808.0736</ele>
        <time>2010-09-21T08:34:12Z</time>
      </trkpt>
      <trkpt lat="46.412897" lon="14.739608">
        <ele>1808.0736</ele>
        <time>2010-09-21T08:34:19Z</time>
      </trkpt>
      <trkpt lat="46.412875" lon="14.739608">
        <ele>1808.0736</ele>
        <time>2010-09-21T08:34:25Z</time>
      </trkpt>
      <trkpt lat="46.412854" lon="14.739608">
        <ele>1809.9024</ele>
        <time>2010-09-21T08:34:30Z</time>
      </trkpt>
      <trkpt lat="46.412843" lon="14.739613">
        <ele>1812.036</ele>
        <time>2010-09-21T08:34:37Z</time>
      </trkpt>
      <trkpt lat="46.412805" lon="14.739586">
        <ele>1812.036</ele>
        <time>2010-09-21T08:34:42Z</time>
      </trkpt>
      <trkpt lat="46.412789" lon="14.739516">
        <ele>1813.8648</ele>
        <time>2010-09-21T08:34:49Z</time>
      </trkpt>
      <trkpt lat="46.412784" lon="14.739420">
        <ele>1816.9128</ele>
        <time>2010-09-21T08:34:54Z</time>
      </trkpt>
      <trkpt lat="46.412746" lon="14.739372">
        <ele>1816.9128</ele>
        <time>2010-09-21T08:35:01Z</time>
      </trkpt>
      <trkpt lat="46.412693" lon="14.739366">
        <ele>1816.9128</ele>
        <time>2010-09-21T08:35:06Z</time>
      </trkpt>
      <trkpt lat="46.412671" lon="14.739361">
        <ele>1816.9128</ele>
        <time>2010-09-21T08:35:13Z</time>
      </trkpt>
      <trkpt lat="46.412650" lon="14.739280">
        <ele>1816.9128</ele>
        <time>2010-09-21T08:35:19Z</time>
      </trkpt>
      <trkpt lat="46.412655" lon="14.739232">
        <ele>1818.132</ele>
        <time>2010-09-21T08:35:24Z</time>
      </trkpt>
      <trkpt lat="46.412655" lon="14.739173">
        <ele>1819.9608</ele>
        <time>2010-09-21T08:35:31Z</time>
      </trkpt>
      <trkpt lat="46.412623" lon="14.739152">
        <ele>1820.8752</ele>
        <time>2010-09-21T08:35:36Z</time>
      </trkpt>
      <trkpt lat="46.412601" lon="14.739152">
        <ele>1822.0944</ele>
        <time>2010-09-21T08:35:43Z</time>
      </trkpt>
      <trkpt lat="46.412591" lon="14.739173">
        <ele>1823.0088</ele>
        <time>2010-09-21T08:35:48Z</time>
      </trkpt>
      <trkpt lat="46.412575" lon="14.739130">
        <ele>1823.9232</ele>
        <time>2010-09-21T08:35:55Z</time>
      </trkpt>
      <trkpt lat="46.412559" lon="14.739109">
        <ele>1825.1424</ele>
        <time>2010-09-21T08:36:00Z</time>
      </trkpt>
      <trkpt lat="46.412553" lon="14.739103">
        <ele>1825.1424</ele>
        <time>2010-09-21T08:36:07Z</time>
      </trkpt>
      <trkpt lat="46.412559" lon="14.739103">
        <ele>1825.1424</ele>
        <time>2010-09-21T08:36:13Z</time>
      </trkpt>
      <trkpt lat="46.412553" lon="14.739071">
        <ele>1826.0568</ele>
        <time>2010-09-21T08:36:18Z</time>
      </trkpt>
      <trkpt lat="46.412537" lon="14.739055">
        <ele>1827.8856</ele>
        <time>2010-09-21T08:36:25Z</time>
      </trkpt>
      <trkpt lat="46.412526" lon="14.739050">
        <ele>1826.9712</ele>
        <time>2010-09-21T08:36:30Z</time>
      </trkpt>
      <trkpt lat="46.412521" lon="14.739055">
        <ele>1826.9712</ele>
        <time>2010-09-21T08:36:37Z</time>
      </trkpt>
      <trkpt lat="46.412526" lon="14.739060">
        <ele>1826.9712</ele>
        <time>2010-09-21T08:36:42Z</time>
      </trkpt>
      <trkpt lat="46.412537" lon="14.739066">
        <ele>1826.0568</ele>
        <time>2010-09-21T08:36:49Z</time>
      </trkpt>
      <trkpt lat="46.412532" lon="14.739071">
        <ele>1826.9712</ele>
        <time>2010-09-21T08:36:54Z</time>
      </trkpt>
      <trkpt lat="46.412548" lon="14.739098">
        <ele>1825.1424</ele>
        <time>2010-09-21T08:37:01Z</time>
      </trkpt>
      <trkpt lat="46.412532" lon="14.739136">
        <ele>1823.0088</ele>
        <time>2010-09-21T08:37:07Z</time>
      </trkpt>
      <trkpt lat="46.412526" lon="14.739130">
        <ele>1823.0088</ele>
        <time>2010-09-21T08:37:12Z</time>
      </trkpt>
      <trkpt lat="46.412526" lon="14.739130">
        <ele>1823.9232</ele>
        <time>2010-09-21T08:37:19Z</time>
      </trkpt>
      <trkpt lat="46.412510" lon="14.739103">
        <ele>1825.1424</ele>
        <time>2010-09-21T08:37:24Z</time>
      </trkpt>
      <trkpt lat="46.412462" lon="14.738980">
        <ele>1825.1424</ele>
        <time>2010-09-21T08:37:31Z</time>
      </trkpt>
      <trkpt lat="46.412462" lon="14.738958">
        <ele>1823.9232</ele>
        <time>2010-09-21T08:37:36Z</time>
      </trkpt>
      <trkpt lat="46.412408" lon="14.738975">
        <ele>1826.0568</ele>
        <time>2010-09-21T08:37:43Z</time>
      </trkpt>
      <trkpt lat="46.412392" lon="14.739044">
        <ele>1823.9232</ele>
        <time>2010-09-21T08:37:48Z</time>
      </trkpt>
      <trkpt lat="46.412382" lon="14.739082">
        <ele>1823.9232</ele>
        <time>2010-09-21T08:37:55Z</time>
      </trkpt>
      <trkpt lat="46.412382" lon="14.739141">
        <ele>1823.9232</ele>
        <time>2010-09-21T08:38:01Z</time>
      </trkpt>
      <trkpt lat="46.412382" lon="14.739178">
        <ele>1826.0568</ele>
        <time>2010-09-21T08:38:06Z</time>
      </trkpt>
      <trkpt lat="46.412376" lon="14.739227">
        <ele>1826.9712</ele>
        <time>2010-09-21T08:38:13Z</time>
      </trkpt>
      <trkpt lat="46.412382" lon="14.739264">
        <ele>1830.0192</ele>
        <time>2010-09-21T08:38:18Z</time>
      </trkpt>
      <trkpt lat="46.412382" lon="14.739302">
        <ele>1830.9336</ele>
        <time>2010-09-21T08:38:25Z</time>
      </trkpt>
      <trkpt lat="46.412360" lon="14.739291">
        <ele>1830.0192</ele>
        <time>2010-09-21T08:38:30Z</time>
      </trkpt>
      <trkpt lat="46.412360" lon="14.739334">
        <ele>1830.9336</ele>
        <time>2010-09-21T08:38:37Z</time>
      </trkpt>
      <trkpt lat="46.412333" lon="14.739355">
        <ele>1830.9336</ele>
        <time>2010-09-21T08:38:42Z</time>
      </trkpt>
      <trkpt lat="46.412317" lon="14.739366">
        <ele>1830.9336</ele>
        <time>2010-09-21T08:38:49Z</time>
      </trkpt>
      <trkpt lat="46.412312" lon="14.739372">
        <ele>1830.9336</ele>
        <time>2010-09-21T08:38:55Z</time>
      </trkpt>
      <trkpt lat="46.412323" lon="14.739377">
        <ele>1833.9816</ele>
        <time>2010-09-21T08:39:00Z</time>
      </trkpt>
      <trkpt lat="46.412344" lon="14.739382">
        <ele>1836.1152</ele>
        <time>2010-09-21T08:39:07Z</time>
      </trkpt>
      <trkpt lat="46.412339" lon="14.739382">
        <ele>1836.1152</ele>
        <time>2010-09-21T08:39:12Z</time>
      </trkpt>
      <trkpt lat="46.412349" lon="14.739393">
        <ele>1837.944</ele>
        <time>2010-09-21T08:39:19Z</time>
      </trkpt>
      <trkpt lat="46.412360" lon="14.739414">
        <ele>1837.944</ele>
        <time>2010-09-21T08:39:24Z</time>
      </trkpt>
      <trkpt lat="46.412365" lon="14.739441">
        <ele>1838.8584</ele>
        <time>2010-09-21T08:39:31Z</time>
      </trkpt>
      <trkpt lat="46.412371" lon="14.739452">
        <ele>1840.0776</ele>
        <time>2010-09-21T08:39:36Z</time>
      </trkpt>
      <trkpt lat="46.412376" lon="14.739468">
        <ele>1840.992</ele>
        <time>2010-09-21T08:39:43Z</time>
      </trkpt>
      <trkpt lat="46.412376" lon="14.739484">
        <ele>1844.04</ele>
        <time>2010-09-21T08:39:49Z</time>
      </trkpt>
      <trkpt lat="46.412371" lon="14.739506">
        <ele>1847.088</ele>
        <time>2010-09-21T08:39:54Z</time>
      </trkpt>
      <trkpt lat="46.412365" lon="14.739516">
        <ele>1848.0024</ele>
        <time>2010-09-21T08:40:01Z</time>
      </trkpt>
      <trkpt lat="46.412365" lon="14.739516">
        <ele>1848.9168</ele>
        <time>2010-09-21T08:40:06Z</time>
      </trkpt>
      <trkpt lat="46.412355" lon="14.739522">
        <ele>1848.0024</ele>
        <time>2010-09-21T08:40:13Z</time>
      </trkpt>
      <trkpt lat="46.412355" lon="14.739522">
        <ele>1848.9168</ele>
        <time>2010-09-21T08:40:18Z</time>
      </trkpt>
      <trkpt lat="46.412355" lon="14.739522">
        <ele>1848.9168</ele>
        <time>2010-09-21T08:40:25Z</time>
      </trkpt>
      <trkpt lat="46.412355" lon="14.739522">
        <ele>1848.9168</ele>
        <time>2010-09-21T08:40:30Z</time>
      </trkpt>
      <trkpt lat="46.412355" lon="14.739522">
        <ele>1848.9168</ele>
        <time>2010-09-21T08:40:37Z</time>
      </trkpt>
      <trkpt lat="46.412344" lon="14.739516">
        <ele>1848.0024</ele>
        <time>2010-09-21T08:40:43Z</time>
      </trkpt>
      <trkpt lat="46.412387" lon="14.739522">
        <ele>1848.9168</ele>
        <time>2010-09-21T08:40:48Z</time>
      </trkpt>
      <trkpt lat="46.412387" lon="14.739511">
        <ele>1850.136</ele>
        <time>2010-09-21T08:40:55Z</time>
      </trkpt>
      <trkpt lat="46.412392" lon="14.739511">
        <ele>1850.136</ele>
        <time>2010-09-21T08:41:00Z</time>
      </trkpt>
      <trkpt lat="46.412392" lon="14.739511">
        <ele>1850.136</ele>
        <time>2010-09-21T08:41:07Z</time>
      </trkpt>
      <trkpt lat="46.412387" lon="14.739511">
        <ele>1850.136</ele>
        <time>2010-09-21T08:41:12Z</time>
      </trkpt>
      <trkpt lat="46.412392" lon="14.739511">
        <ele>1850.136</ele>
        <time>2010-09-21T08:41:19Z</time>
      </trkpt>
      <trkpt lat="46.412387" lon="14.739511">
        <ele>1850.136</ele>
        <time>2010-09-21T08:41:24Z</time>
      </trkpt>
      <trkpt lat="46.412387" lon="14.739511">
        <ele>1850.136</ele>
        <time>2010-09-21T08:41:31Z</time>
      </trkpt>
      <trkpt lat="46.412387" lon="14.739511">
        <ele>1850.136</ele>
        <time>2010-09-21T08:41:37Z</time>
      </trkpt>
      <trkpt lat="46.412387" lon="14.739511">
        <ele>1850.136</ele>
        <time>2010-09-21T08:41:42Z</time>
      </trkpt>
      <trkpt lat="46.412408" lon="14.739490">
        <ele>1850.136</ele>
        <time>2010-09-21T08:41:49Z</time>
      </trkpt>
      <trkpt lat="46.412398" lon="14.739490">
        <ele>1850.136</ele>
        <time>2010-09-21T08:41:54Z</time>
      </trkpt>
      <trkpt lat="46.412403" lon="14.739473">
        <ele>1854.0984</ele>
        <time>2010-09-21T08:42:01Z</time>
      </trkpt>
      <trkpt lat="46.412403" lon="14.739479">
        <ele>1854.0984</ele>
        <time>2010-09-21T08:42:06Z</time>
      </trkpt>
      <trkpt lat="46.412387" lon="14.739484">
        <ele>1854.0984</ele>
        <time>2010-09-21T08:42:13Z</time>
      </trkpt>
      <trkpt lat="46.412392" lon="14.739490">
        <ele>1854.0984</ele>
        <time>2010-09-21T08:42:18Z</time>
      </trkpt>
      <trkpt lat="46.412387" lon="14.739490">
        <ele>1854.0984</ele>
        <time>2010-09-21T08:42:25Z</time>
      </trkpt>
      <trkpt lat="46.412387" lon="14.739490">
        <ele>1854.0984</ele>
        <time>2010-09-21T08:42:31Z</time>
      </trkpt>
      <trkpt lat="46.412387" lon="14.739490">
        <ele>1854.0984</ele>
        <time>2010-09-21T08:42:36Z</time>
      </trkpt>
      <trkpt lat="46.412387" lon="14.739490">
        <ele>1854.0984</ele>
        <time>2010-09-21T08:42:43Z</time>
      </trkpt>
      <trkpt lat="46.412365" lon="14.739473">
        <ele>1855.9272</ele>
        <time>2010-09-21T08:42:48Z</time>
      </trkpt>
      <trkpt lat="46.412371" lon="14.739468">
        <ele>1857.1464</ele>
        <time>2010-09-21T08:42:55Z</time>
      </trkpt>
      <trkpt lat="46.412371" lon="14.739468">
        <ele>1857.1464</ele>
        <time>2010-09-21T08:43:00Z</time>
      </trkpt>
      <trkpt lat="46.412371" lon="14.739452">
        <ele>1855.9272</ele>
        <time>2010-09-21T08:43:07Z</time>
      </trkpt>
      <trkpt lat="46.412376" lon="14.739447">
        <ele>1858.0608</ele>
        <time>2010-09-21T08:43:12Z</time>
      </trkpt>
      <trkpt lat="46.412392" lon="14.739436">
        <ele>1859.8896</ele>
        <time>2010-09-21T08:43:19Z</time>
      </trkpt>
      <trkpt lat="46.412382" lon="14.739447">
        <ele>1859.8896</ele>
        <time>2010-09-21T08:43:25Z</time>
      </trkpt>
      <trkpt lat="46.412376" lon="14.739447">
        <ele>1858.0608</ele>
        <time>2010-09-21T08:43:30Z</time>
      </trkpt>
      <trkpt lat="46.412376" lon="14.739441">
        <ele>1858.9752</ele>
        <time>2010-09-21T08:43:37Z</time>
      </trkpt>
      <trkpt lat="46.412376" lon="14.739441">
        <ele>1858.9752</ele>
        <time>2010-09-21T08:43:42Z</time>
      </trkpt>
      <trkpt lat="46.412376" lon="14.739441">
        <ele>1858.9752</ele>
        <time>2010-09-21T08:43:49Z</time>
      </trkpt>
      <trkpt lat="46.412376" lon="14.739441">
        <ele>1858.9752</ele>
        <time>2010-09-21T08:43:54Z</time>
      </trkpt>
      <trkpt lat="46.412376" lon="14.739441">
        <ele>1858.9752</ele>
        <time>2010-09-21T08:44:01Z</time>
      </trkpt>
      <trkpt lat="46.412371" lon="14.739522">
        <ele>1857.1464</ele>
        <time>2010-09-21T08:44:06Z</time>
      </trkpt>
      <trkpt lat="46.412392" lon="14.739484">
        <ele>1858.9752</ele>
        <time>2010-09-21T08:44:13Z</time>
      </trkpt>
      <trkpt lat="46.412376" lon="14.739457">
        <ele>1857.1464</ele>
        <time>2010-09-21T08:44:19Z</time>
      </trkpt>
      <trkpt lat="46.412387" lon="14.739506">
        <ele>1857.1464</ele>
        <time>2010-09-21T08:44:24Z</time>
      </trkpt>
      <trkpt lat="46.412376" lon="14.739500">
        <ele>1857.1464</ele>
        <time>2010-09-21T08:44:31Z</time>
      </trkpt>
      <trkpt lat="46.412392" lon="14.739495">
        <ele>1858.0608</ele>
        <time>2010-09-21T08:44:36Z</time>
      </trkpt>
      <trkpt lat="46.412414" lon="14.739490">
        <ele>1862.0232</ele>
        <time>2010-09-21T08:44:43Z</time>
      </trkpt>
      <trkpt lat="46.412419" lon="14.739473">
        <ele>1865.0712</ele>
        <time>2010-09-21T08:44:48Z</time>
      </trkpt>
      <trkpt lat="46.412419" lon="14.739473">
        <ele>1865.0712</ele>
        <time>2010-09-21T08:44:55Z</time>
      </trkpt>
      <trkpt lat="46.412419" lon="14.739473">
        <ele>1865.0712</ele>
        <time>2010-09-21T08:45:00Z</time>
      </trkpt>
      <trkpt lat="46.412382" lon="14.739511">
        <ele>1862.9376</ele>
        <time>2010-09-21T08:45:07Z</time>
      </trkpt>
      <trkpt lat="46.412328" lon="14.739522">
        <ele>1858.9752</ele>
        <time>2010-09-21T08:45:13Z</time>
      </trkpt>
      <trkpt lat="46.412317" lon="14.739516">
        <ele>1858.0608</ele>
        <time>2010-09-21T08:45:18Z</time>
      </trkpt>
      <trkpt lat="46.412333" lon="14.739516">
        <ele>1855.9272</ele>
        <time>2010-09-21T08:45:25Z</time>
      </trkpt>
      <trkpt lat="46.412333" lon="14.739527">
        <ele>1855.9272</ele>
        <time>2010-09-21T08:45:30Z</time>
      </trkpt>
      <trkpt lat="46.412317" lon="14.739532">
        <ele>1855.0128</ele>
        <time>2010-09-21T08:45:37Z</time>
      </trkpt>
      <trkpt lat="46.412301" lon="14.739463">
        <ele>1855.9272</ele>
        <time>2010-09-21T08:45:42Z</time>
      </trkpt>
      <trkpt lat="46.412237" lon="14.739425">
        <ele>1855.9272</ele>
        <time>2010-09-21T08:45:49Z</time>
      </trkpt>
      <trkpt lat="46.412274" lon="14.739409">
        <ele>1855.0128</ele>
        <time>2010-09-21T08:45:54Z</time>
      </trkpt>
      <trkpt lat="46.412285" lon="14.739388">
        <ele>1861.1088</ele>
        <time>2010-09-21T08:46:01Z</time>
      </trkpt>
      <trkpt lat="46.412280" lon="14.739361">
        <ele>1862.9376</ele>
        <time>2010-09-21T08:46:07Z</time>
      </trkpt>
      <trkpt lat="46.412280" lon="14.739329">
        <ele>1866.9</ele>
        <time>2010-09-21T08:46:12Z</time>
      </trkpt>
      <trkpt lat="46.412258" lon="14.739307">
        <ele>1866.9</ele>
        <time>2010-09-21T08:46:19Z</time>
      </trkpt>
      <trkpt lat="46.412247" lon="14.739275">
        <ele>1868.1192</ele>
        <time>2010-09-21T08:46:24Z</time>
      </trkpt>
      <trkpt lat="46.412247" lon="14.739237">
        <ele>1870.8624</ele>
        <time>2010-09-21T08:46:31Z</time>
      </trkpt>
      <trkpt lat="46.412221" lon="14.739237">
        <ele>1872.0816</ele>
        <time>2010-09-21T08:46:36Z</time>
      </trkpt>
      <trkpt lat="46.412205" lon="14.739280">
        <ele>1872.0816</ele>
        <time>2010-09-21T08:46:43Z</time>
      </trkpt>
      <trkpt lat="46.412183" lon="14.739307">
        <ele>1872.996</ele>
        <time>2010-09-21T08:46:48Z</time>
      </trkpt>
      <trkpt lat="46.412162" lon="14.739275">
        <ele>1873.9104</ele>
        <time>2010-09-21T08:46:55Z</time>
      </trkpt>
      <trkpt lat="46.412145" lon="14.739302">
        <ele>1875.1296</ele>
        <time>2010-09-21T08:47:01Z</time>
      </trkpt>
      <trkpt lat="46.412113" lon="14.739318">
        <ele>1876.044</ele>
        <time>2010-09-21T08:47:06Z</time>
      </trkpt>
      <trkpt lat="46.412119" lon="14.739302">
        <ele>1876.9584</ele>
        <time>2010-09-21T08:47:13Z</time>
      </trkpt>
      <trkpt lat="46.412124" lon="14.739313">
        <ele>1876.044</ele>
        <time>2010-09-21T08:47:18Z</time>
      </trkpt>
      <trkpt lat="46.412124" lon="14.739313">
        <ele>1876.9584</ele>
        <time>2010-09-21T08:47:25Z</time>
      </trkpt>
      <trkpt lat="46.412124" lon="14.739313">
        <ele>1876.9584</ele>
        <time>2010-09-21T08:47:30Z</time>
      </trkpt>
      <trkpt lat="46.412124" lon="14.739313">
        <ele>1876.9584</ele>
        <time>2010-09-21T08:47:37Z</time>
      </trkpt>
      <trkpt lat="46.412119" lon="14.739270">
        <ele>1876.9584</ele>
        <time>2010-09-21T08:47:42Z</time>
      </trkpt>
      <trkpt lat="46.412124" lon="14.739259">
        <ele>1876.9584</ele>
        <time>2010-09-21T08:47:49Z</time>
      </trkpt>
      <trkpt lat="46.412119" lon="14.739248">
        <ele>1876.044</ele>
        <time>2010-09-21T08:47:55Z</time>
      </trkpt>
      <trkpt lat="46.412108" lon="14.739216">
        <ele>1879.092</ele>
        <time>2010-09-21T08:48:00Z</time>
      </trkpt>
      <trkpt lat="46.412081" lon="14.739232">
        <ele>1879.092</ele>
        <time>2010-09-21T08:48:07Z</time>
      </trkpt>
      <trkpt lat="46.412033" lon="14.739216">
        <ele>1879.092</ele>
        <time>2010-09-21T08:48:12Z</time>
      </trkpt>
      <trkpt lat="46.412022" lon="14.739195">
        <ele>1880.0064</ele>
        <time>2010-09-21T08:48:19Z</time>
      </trkpt>
      <trkpt lat="46.411995" lon="14.739211">
        <ele>1879.092</ele>
        <time>2010-09-21T08:48:24Z</time>
      </trkpt>
      <trkpt lat="46.411979" lon="14.739178">
        <ele>1876.044</ele>
        <time>2010-09-21T08:48:31Z</time>
      </trkpt>
      <trkpt lat="46.411968" lon="14.739178">
        <ele>1876.044</ele>
        <time>2010-09-21T08:48:36Z</time>
      </trkpt>
      <trkpt lat="46.411958" lon="14.739141">
        <ele>1876.044</ele>
        <time>2010-09-21T08:48:43Z</time>
      </trkpt>
      <trkpt lat="46.411936" lon="14.739136">
        <ele>1876.9584</ele>
        <time>2010-09-21T08:48:49Z</time>
      </trkpt>
      <trkpt lat="46.411926" lon="14.739136">
        <ele>1877.8728</ele>
        <time>2010-09-21T08:48:54Z</time>
      </trkpt>
      <trkpt lat="46.411915" lon="14.739130">
        <ele>1880.0064</ele>
        <time>2010-09-21T08:49:01Z</time>
      </trkpt>
      <trkpt lat="46.411920" lon="14.739082">
        <ele>1882.14</ele>
        <time>2010-09-21T08:49:06Z</time>
      </trkpt>
      <trkpt lat="46.411920" lon="14.739066">
        <ele>1883.9688</ele>
        <time>2010-09-21T08:49:13Z</time>
      </trkpt>
      <trkpt lat="46.411931" lon="14.739028">
        <ele>1884.8832</ele>
        <time>2010-09-21T08:49:18Z</time>
      </trkpt>
      <trkpt lat="46.411995" lon="14.738985">
        <ele>1894.0272</ele>
        <time>2010-09-21T08:49:25Z</time>
      </trkpt>
      <trkpt lat="46.411990" lon="14.738964">
        <ele>1894.9416</ele>
        <time>2010-09-21T08:49:30Z</time>
      </trkpt>
      <trkpt lat="46.411968" lon="14.738975">
        <ele>1895.856</ele>
        <time>2010-09-21T08:49:37Z</time>
      </trkpt>
      <trkpt lat="46.411947" lon="14.738985">
        <ele>1897.9896</ele>
        <time>2010-09-21T08:49:43Z</time>
      </trkpt>
      <trkpt lat="46.411920" lon="14.739007">
        <ele>1898.904</ele>
        <time>2010-09-21T08:49:48Z</time>
      </trkpt>
      <trkpt lat="46.411915" lon="14.739028">
        <ele>1901.0376</ele>
        <time>2010-09-21T08:49:55Z</time>
      </trkpt>
      <trkpt lat="46.411920" lon="14.739028">
        <ele>1900.1232</ele>
        <time>2010-09-21T08:50:00Z</time>
      </trkpt>
      <trkpt lat="46.411909" lon="14.739028">
        <ele>1901.0376</ele>
        <time>2010-09-21T08:50:07Z</time>
      </trkpt>
      <trkpt lat="46.411899" lon="14.739034">
        <ele>1902.8664</ele>
        <time>2010-09-21T08:50:12Z</time>
      </trkpt>
      <trkpt lat="46.411893" lon="14.739044">
        <ele>1904.0856</ele>
        <time>2010-09-21T08:50:19Z</time>
      </trkpt>
      <trkpt lat="46.411888" lon="14.739039">
        <ele>1905</ele>
        <time>2010-09-21T08:50:24Z</time>
      </trkpt>
      <trkpt lat="46.411861" lon="14.739007">
        <ele>1905.9144</ele>
        <time>2010-09-21T08:50:31Z</time>
      </trkpt>
      <trkpt lat="46.411850" lon="14.738996">
        <ele>1907.1336</ele>
        <time>2010-09-21T08:50:37Z</time>
      </trkpt>
      <trkpt lat="46.411850" lon="14.739007">
        <ele>1908.048</ele>
        <time>2010-09-21T08:50:42Z</time>
      </trkpt>
      <trkpt lat="46.411850" lon="14.739017">
        <ele>1908.9624</ele>
        <time>2010-09-21T08:50:49Z</time>
      </trkpt>
      <trkpt lat="46.411845" lon="14.739001">
        <ele>1908.9624</ele>
        <time>2010-09-21T08:50:54Z</time>
      </trkpt>
      <trkpt lat="46.411845" lon="14.738985">
        <ele>1909.8768</ele>
        <time>2010-09-21T08:51:01Z</time>
      </trkpt>
      <trkpt lat="46.411845" lon="14.739007">
        <ele>1908.9624</ele>
        <time>2010-09-21T08:51:06Z</time>
      </trkpt>
      <trkpt lat="46.411829" lon="14.739017">
        <ele>1908.9624</ele>
        <time>2010-09-21T08:51:13Z</time>
      </trkpt>
      <trkpt lat="46.411829" lon="14.739017">
        <ele>1908.9624</ele>
        <time>2010-09-21T08:51:18Z</time>
      </trkpt>
      <trkpt lat="46.411829" lon="14.739017">
        <ele>1908.9624</ele>
        <time>2010-09-21T08:51:25Z</time>
      </trkpt>
      <trkpt lat="46.411829" lon="14.739017">
        <ele>1908.9624</ele>
        <time>2010-09-21T08:51:31Z</time>
      </trkpt>
      <trkpt lat="46.411829" lon="14.739017">
        <ele>1908.9624</ele>
        <time>2010-09-21T08:51:36Z</time>
      </trkpt>
      <trkpt lat="46.411829" lon="14.739017">
        <ele>1908.9624</ele>
        <time>2010-09-21T08:51:43Z</time>
      </trkpt>
      <trkpt lat="46.411829" lon="14.739012">
        <ele>1908.9624</ele>
        <time>2010-09-21T08:51:48Z</time>
      </trkpt>
      <trkpt lat="46.411829" lon="14.739012">
        <ele>1908.9624</ele>
        <time>2010-09-21T08:51:55Z</time>
      </trkpt>
      <trkpt lat="46.411834" lon="14.739017">
        <ele>1908.9624</ele>
        <time>2010-09-21T08:52:00Z</time>
      </trkpt>
      <trkpt lat="46.411834" lon="14.739023">
        <ele>1908.048</ele>
        <time>2010-09-21T08:52:07Z</time>
      </trkpt>
      <trkpt lat="46.411829" lon="14.739017">
        <ele>1908.048</ele>
        <time>2010-09-21T08:52:12Z</time>
      </trkpt>
      <trkpt lat="46.411818" lon="14.739039">
        <ele>1908.048</ele>
        <time>2010-09-21T08:52:19Z</time>
      </trkpt>
      <trkpt lat="46.411829" lon="14.739125">
        <ele>1908.048</ele>
        <time>2010-09-21T08:52:25Z</time>
      </trkpt>
      <trkpt lat="46.411834" lon="14.739114">
        <ele>1909.8768</ele>
        <time>2010-09-21T08:52:30Z</time>
      </trkpt>
      <trkpt lat="46.411818" lon="14.739119">
        <ele>1912.0104</ele>
        <time>2010-09-21T08:52:37Z</time>
      </trkpt>
      <trkpt lat="46.411824" lon="14.739141">
        <ele>1914.144</ele>
        <time>2010-09-21T08:52:42Z</time>
      </trkpt>
      <trkpt lat="46.411818" lon="14.739173">
        <ele>1914.144</ele>
        <time>2010-09-21T08:52:49Z</time>
      </trkpt>
      <trkpt lat="46.411824" lon="14.739200">
        <ele>1915.0584</ele>
        <time>2010-09-21T08:52:54Z</time>
      </trkpt>
      <trkpt lat="46.411818" lon="14.739195">
        <ele>1915.9728</ele>
        <time>2010-09-21T08:53:01Z</time>
      </trkpt>
      <trkpt lat="46.411813" lon="14.739162">
        <ele>1918.1064</ele>
        <time>2010-09-21T08:53:06Z</time>
      </trkpt>
      <trkpt lat="46.411802" lon="14.739162">
        <ele>1919.9352</ele>
        <time>2010-09-21T08:53:13Z</time>
      </trkpt>
      <trkpt lat="46.411808" lon="14.739157">
        <ele>1920.8496</ele>
        <time>2010-09-21T08:53:19Z</time>
      </trkpt>
      <trkpt lat="46.411802" lon="14.739157">
        <ele>1920.8496</ele>
        <time>2010-09-21T08:53:24Z</time>
      </trkpt>
      <trkpt lat="46.411791" lon="14.739162">
        <ele>1922.9832</ele>
        <time>2010-09-21T08:53:31Z</time>
      </trkpt>
      <trkpt lat="46.411781" lon="14.739146">
        <ele>1925.1168</ele>
        <time>2010-09-21T08:53:36Z</time>
      </trkpt>
      <trkpt lat="46.411775" lon="14.739152">
        <ele>1925.1168</ele>
        <time>2010-09-21T08:53:43Z</time>
      </trkpt>
      <trkpt lat="46.411775" lon="14.739178">
        <ele>1926.0312</ele>
        <time>2010-09-21T08:53:48Z</time>
      </trkpt>
      <trkpt lat="46.411781" lon="14.739221">
        <ele>1927.86</ele>
        <time>2010-09-21T08:53:55Z</time>
      </trkpt>
      <trkpt lat="46.411770" lon="14.739237">
        <ele>1929.0792</ele>
        <time>2010-09-21T08:54:00Z</time>
      </trkpt>
      <trkpt lat="46.411775" lon="14.739232">
        <ele>1929.9936</ele>
        <time>2010-09-21T08:54:07Z</time>
      </trkpt>
      <trkpt lat="46.411770" lon="14.739237">
        <ele>1929.9936</ele>
        <time>2010-09-21T08:54:13Z</time>
      </trkpt>
      <trkpt lat="46.411765" lon="14.739232">
        <ele>1932.1272</ele>
        <time>2010-09-21T08:54:18Z</time>
      </trkpt>
      <trkpt lat="46.411749" lon="14.739232">
        <ele>1934.8704</ele>
        <time>2010-09-21T08:54:25Z</time>
      </trkpt>
      <trkpt lat="46.411732" lon="14.739227">
        <ele>1934.8704</ele>
        <time>2010-09-21T08:54:30Z</time>
      </trkpt>
      <trkpt lat="46.411732" lon="14.739221">
        <ele>1934.8704</ele>
        <time>2010-09-21T08:54:37Z</time>
      </trkpt>
      <trkpt lat="46.411732" lon="14.739216">
        <ele>1936.0896</ele>
        <time>2010-09-21T08:54:42Z</time>
      </trkpt>
      <trkpt lat="46.411727" lon="14.739216">
        <ele>1937.004</ele>
        <time>2010-09-21T08:54:49Z</time>
      </trkpt>
      <trkpt lat="46.411722" lon="14.739211">
        <ele>1937.9184</ele>
        <time>2010-09-21T08:54:54Z</time>
      </trkpt>
      <trkpt lat="46.411711" lon="14.739200">
        <ele>1937.9184</ele>
        <time>2010-09-21T08:55:01Z</time>
      </trkpt>
      <trkpt lat="46.411684" lon="14.739178">
        <ele>1939.1376</ele>
        <time>2010-09-21T08:55:07Z</time>
      </trkpt>
      <trkpt lat="46.411668" lon="14.739178">
        <ele>1940.9664</ele>
        <time>2010-09-21T08:55:12Z</time>
      </trkpt>
      <trkpt lat="46.411657" lon="14.739189">
        <ele>1940.9664</ele>
        <time>2010-09-21T08:55:19Z</time>
      </trkpt>
      <trkpt lat="46.411657" lon="14.739189">
        <ele>1941.8808</ele>
        <time>2010-09-21T08:55:24Z</time>
      </trkpt>
      <trkpt lat="46.411652" lon="14.739146">
        <ele>1943.1</ele>
        <time>2010-09-21T08:55:31Z</time>
      </trkpt>
      <trkpt lat="46.411647" lon="14.739130">
        <ele>1943.1</ele>
        <time>2010-09-21T08:55:36Z</time>
      </trkpt>
      <trkpt lat="46.411647" lon="14.739141">
        <ele>1943.1</ele>
        <time>2010-09-21T08:55:43Z</time>
      </trkpt>
      <trkpt lat="46.411636" lon="14.739141">
        <ele>1944.0144</ele>
        <time>2010-09-21T08:55:48Z</time>
      </trkpt>
      <trkpt lat="46.411641" lon="14.739114">
        <ele>1944.0144</ele>
        <time>2010-09-21T08:55:55Z</time>
      </trkpt>
      <trkpt lat="46.411636" lon="14.739103">
        <ele>1944.9288</ele>
        <time>2010-09-21T08:56:01Z</time>
      </trkpt>
      <trkpt lat="46.411636" lon="14.739103">
        <ele>1944.9288</ele>
        <time>2010-09-21T08:56:06Z</time>
      </trkpt>
      <trkpt lat="46.411636" lon="14.739103">
        <ele>1944.9288</ele>
        <time>2010-09-21T08:56:13Z</time>
      </trkpt>
      <trkpt lat="46.411636" lon="14.739103">
        <ele>1944.9288</ele>
        <time>2010-09-21T08:56:18Z</time>
      </trkpt>
      <trkpt lat="46.411641" lon="14.739119">
        <ele>1944.0144</ele>
        <time>2010-09-21T08:56:25Z</time>
      </trkpt>
      <trkpt lat="46.411631" lon="14.739093">
        <ele>1946.148</ele>
        <time>2010-09-21T08:56:30Z</time>
      </trkpt>
      <trkpt lat="46.411625" lon="14.739087">
        <ele>1947.9768</ele>
        <time>2010-09-21T08:56:37Z</time>
      </trkpt>
      <trkpt lat="46.411625" lon="14.739082">
        <ele>1948.8912</ele>
        <time>2010-09-21T08:56:42Z</time>
      </trkpt>
      <trkpt lat="46.411625" lon="14.739055">
        <ele>1952.8536</ele>
        <time>2010-09-21T08:56:49Z</time>
      </trkpt>
      <trkpt lat="46.411625" lon="14.739060">
        <ele>1952.8536</ele>
        <time>2010-09-21T08:56:55Z</time>
      </trkpt>
      <trkpt lat="46.411631" lon="14.739060">
        <ele>1954.0728</ele>
        <time>2010-09-21T08:57:00Z</time>
      </trkpt>
      <trkpt lat="46.411631" lon="14.739060">
        <ele>1954.0728</ele>
        <time>2010-09-21T08:57:07Z</time>
      </trkpt>
      <trkpt lat="46.411631" lon="14.739028">
        <ele>1954.9872</ele>
        <time>2010-09-21T08:57:12Z</time>
      </trkpt>
      <trkpt lat="46.411620" lon="14.739023">
        <ele>1954.9872</ele>
        <time>2010-09-21T08:57:19Z</time>
      </trkpt>
      <trkpt lat="46.411614" lon="14.739028">
        <ele>1954.9872</ele>
        <time>2010-09-21T08:57:24Z</time>
      </trkpt>
      <trkpt lat="46.411577" lon="14.739012">
        <ele>1955.9016</ele>
        <time>2010-09-21T08:57:31Z</time>
      </trkpt>
      <trkpt lat="46.411555" lon="14.738969">
        <ele>1957.1208</ele>
        <time>2010-09-21T08:57:36Z</time>
      </trkpt>
      <trkpt lat="46.411550" lon="14.738996">
        <ele>1958.0352</ele>
        <time>2010-09-21T08:57:43Z</time>
      </trkpt>
      <trkpt lat="46.411550" lon="14.738996">
        <ele>1959.864</ele>
        <time>2010-09-21T08:57:49Z</time>
      </trkpt>
      <trkpt lat="46.411534" lon="14.738975">
        <ele>1961.0832</ele>
        <time>2010-09-21T08:57:54Z</time>
      </trkpt>
      <trkpt lat="46.411555" lon="14.738969">
        <ele>1961.9976</ele>
        <time>2010-09-21T08:58:01Z</time>
      </trkpt>
      <trkpt lat="46.411529" lon="14.738964">
        <ele>1962.912</ele>
        <time>2010-09-21T08:58:06Z</time>
      </trkpt>
      <trkpt lat="46.411534" lon="14.738964">
        <ele>1962.912</ele>
        <time>2010-09-21T08:58:13Z</time>
      </trkpt>
      <trkpt lat="46.411512" lon="14.738991">
        <ele>1965.0456</ele>
        <time>2010-09-21T08:58:18Z</time>
      </trkpt>
      <trkpt lat="46.411507" lon="14.738980">
        <ele>1969.008</ele>
        <time>2010-09-21T08:58:25Z</time>
      </trkpt>
      <trkpt lat="46.411534" lon="14.738948">
        <ele>1971.1416</ele>
        <time>2010-09-21T08:58:30Z</time>
      </trkpt>
      <trkpt lat="46.411545" lon="14.738969">
        <ele>1975.104</ele>
        <time>2010-09-21T08:58:37Z</time>
      </trkpt>
      <trkpt lat="46.411555" lon="14.738980">
        <ele>1975.104</ele>
        <time>2010-09-21T08:58:43Z</time>
      </trkpt>
      <trkpt lat="46.411550" lon="14.738996">
        <ele>1976.9328</ele>
        <time>2010-09-21T08:58:48Z</time>
      </trkpt>
      <trkpt lat="46.411588" lon="14.738958">
        <ele>1978.152</ele>
        <time>2010-09-21T08:58:55Z</time>
      </trkpt>
      <trkpt lat="46.411523" lon="14.738948">
        <ele>1979.9808</ele>
        <time>2010-09-21T08:59:00Z</time>
      </trkpt>
      <trkpt lat="46.411512" lon="14.738899">
        <ele>1979.9808</ele>
        <time>2010-09-21T08:59:07Z</time>
      </trkpt>
      <trkpt lat="46.411534" lon="14.738996">
        <ele>1980.8952</ele>
        <time>2010-09-21T08:59:12Z</time>
      </trkpt>
      <trkpt lat="46.411539" lon="14.739060">
        <ele>1980.8952</ele>
        <time>2010-09-21T08:59:19Z</time>
      </trkpt>
      <trkpt lat="46.411550" lon="14.739066">
        <ele>1980.8952</ele>
        <time>2010-09-21T08:59:24Z</time>
      </trkpt>
      <trkpt lat="46.411550" lon="14.739060">
        <ele>1980.8952</ele>
        <time>2010-09-21T08:59:31Z</time>
      </trkpt>
      <trkpt lat="46.411555" lon="14.739060">
        <ele>1982.1144</ele>
        <time>2010-09-21T08:59:37Z</time>
      </trkpt>
      <trkpt lat="46.411550" lon="14.739060">
        <ele>1982.1144</ele>
        <time>2010-09-21T08:59:42Z</time>
      </trkpt>
      <trkpt lat="46.411529" lon="14.739039">
        <ele>1982.1144</ele>
        <time>2010-09-21T08:59:49Z</time>
      </trkpt>
      <trkpt lat="46.411523" lon="14.739039">
        <ele>1982.1144</ele>
        <time>2010-09-21T08:59:54Z</time>
      </trkpt>
      <trkpt lat="46.411523" lon="14.739039">
        <ele>1982.1144</ele>
        <time>2010-09-21T09:00:01Z</time>
      </trkpt>
      <trkpt lat="46.411523" lon="14.739039">
        <ele>1982.1144</ele>
        <time>2010-09-21T09:00:06Z</time>
      </trkpt>
      <trkpt lat="46.411529" lon="14.739017">
        <ele>1982.1144</ele>
        <time>2010-09-21T09:00:13Z</time>
      </trkpt>
      <trkpt lat="46.411453" lon="14.738980">
        <ele>1982.1144</ele>
        <time>2010-09-21T09:00:18Z</time>
      </trkpt>
      <trkpt lat="46.411416" lon="14.738980">
        <ele>1982.1144</ele>
        <time>2010-09-21T09:00:25Z</time>
      </trkpt>
      <trkpt lat="46.411443" lon="14.738985">
        <ele>1983.0288</ele>
        <time>2010-09-21T09:00:31Z</time>
      </trkpt>
      <trkpt lat="46.411448" lon="14.738996">
        <ele>1983.9432</ele>
        <time>2010-09-21T09:00:36Z</time>
      </trkpt>
      <trkpt lat="46.411448" lon="14.739034">
        <ele>1986.0768</ele>
        <time>2010-09-21T09:00:43Z</time>
      </trkpt>
      <trkpt lat="46.411405" lon="14.739039">
        <ele>1986.0768</ele>
        <time>2010-09-21T09:00:48Z</time>
      </trkpt>
      <trkpt lat="46.411421" lon="14.739060">
        <ele>1990.0392</ele>
        <time>2010-09-21T09:00:55Z</time>
      </trkpt>
      <trkpt lat="46.411432" lon="14.739060">
        <ele>1990.9536</ele>
        <time>2010-09-21T09:01:00Z</time>
      </trkpt>
      <trkpt lat="46.411475" lon="14.739087">
        <ele>1997.0496</ele>
        <time>2010-09-21T09:01:07Z</time>
      </trkpt>
      <trkpt lat="46.411491" lon="14.739103">
        <ele>2001.012</ele>
        <time>2010-09-21T09:01:12Z</time>
      </trkpt>
      <trkpt lat="46.411512" lon="14.739103">
        <ele>2004.9744</ele>
        <time>2010-09-21T09:01:19Z</time>
      </trkpt>
      <trkpt lat="46.411518" lon="14.739103">
        <ele>2004.9744</ele>
        <time>2010-09-21T09:01:25Z</time>
      </trkpt>
      <trkpt lat="46.411486" lon="14.739028">
        <ele>2007.108</ele>
        <time>2010-09-21T09:01:30Z</time>
      </trkpt>
      <trkpt lat="46.411475" lon="14.738991">
        <ele>2008.0224</ele>
        <time>2010-09-21T09:01:37Z</time>
      </trkpt>
      <trkpt lat="46.411496" lon="14.739001">
        <ele>2008.9368</ele>
        <time>2010-09-21T09:01:42Z</time>
      </trkpt>
      <trkpt lat="46.411496" lon="14.739001">
        <ele>2009.8512</ele>
        <time>2010-09-21T09:01:49Z</time>
      </trkpt>
      <trkpt lat="46.411502" lon="14.739001">
        <ele>2009.8512</ele>
        <time>2010-09-21T09:01:54Z</time>
      </trkpt>
      <trkpt lat="46.411502" lon="14.739001">
        <ele>2009.8512</ele>
        <time>2010-09-21T09:02:01Z</time>
      </trkpt>
      <trkpt lat="46.411502" lon="14.739001">
        <ele>2009.8512</ele>
        <time>2010-09-21T09:02:06Z</time>
      </trkpt>
      <trkpt lat="46.411260" lon="14.738942">
        <ele>2005.8888</ele>
        <time>2010-09-21T09:02:13Z</time>
      </trkpt>
      <trkpt lat="46.411330" lon="14.739007">
        <ele>2001.9264</ele>
        <time>2010-09-21T09:02:19Z</time>
      </trkpt>
      <trkpt lat="46.411357" lon="14.739007">
        <ele>2001.012</ele>
        <time>2010-09-21T09:02:24Z</time>
      </trkpt>
      <trkpt lat="46.411373" lon="14.738964">
        <ele>1996.1352</ele>
        <time>2010-09-21T09:02:31Z</time>
      </trkpt>
      <trkpt lat="46.411346" lon="14.738958">
        <ele>1991.868</ele>
        <time>2010-09-21T09:02:36Z</time>
      </trkpt>
      <trkpt lat="46.411346" lon="14.738932">
        <ele>1993.0872</ele>
        <time>2010-09-21T09:02:43Z</time>
      </trkpt>
      <trkpt lat="46.411346" lon="14.738932">
        <ele>1993.0872</ele>
        <time>2010-09-21T09:02:48Z</time>
      </trkpt>
      <trkpt lat="46.411357" lon="14.738937">
        <ele>1994.916</ele>
        <time>2010-09-21T09:02:55Z</time>
      </trkpt>
      <trkpt lat="46.411352" lon="14.738942">
        <ele>1994.916</ele>
        <time>2010-09-21T09:03:00Z</time>
      </trkpt>
      <trkpt lat="46.411357" lon="14.738937">
        <ele>1994.916</ele>
        <time>2010-09-21T09:03:07Z</time>
      </trkpt>
      <trkpt lat="46.411341" lon="14.738926">
        <ele>1993.0872</ele>
        <time>2010-09-21T09:03:13Z</time>
      </trkpt>
      <trkpt lat="46.411325" lon="14.738889">
        <ele>1994.916</ele>
        <time>2010-09-21T09:03:18Z</time>
      </trkpt>
      <trkpt lat="46.411325" lon="14.738878">
        <ele>1998.8784</ele>
        <time>2010-09-21T09:03:25Z</time>
      </trkpt>
      <trkpt lat="46.411314" lon="14.738873">
        <ele>2004.06</ele>
        <time>2010-09-21T09:03:30Z</time>
      </trkpt>
      <trkpt lat="46.411298" lon="14.738867">
        <ele>2005.8888</ele>
        <time>2010-09-21T09:03:37Z</time>
      </trkpt>
      <trkpt lat="46.411293" lon="14.738883">
        <ele>2008.9368</ele>
        <time>2010-09-21T09:03:42Z</time>
      </trkpt>
      <trkpt lat="46.411298" lon="14.738840">
        <ele>2009.8512</ele>
        <time>2010-09-21T09:03:49Z</time>
      </trkpt>
      <trkpt lat="46.411309" lon="14.738830">
        <ele>2008.9368</ele>
        <time>2010-09-21T09:03:54Z</time>
      </trkpt>
      <trkpt lat="46.411309" lon="14.738776">
        <ele>2008.9368</ele>
        <time>2010-09-21T09:04:01Z</time>
      </trkpt>
      <trkpt lat="46.411293" lon="14.738749">
        <ele>2008.9368</ele>
        <time>2010-09-21T09:04:07Z</time>
      </trkpt>
      <trkpt lat="46.411276" lon="14.738744">
        <ele>2008.0224</ele>
        <time>2010-09-21T09:04:12Z</time>
      </trkpt>
      <trkpt lat="46.411244" lon="14.738706">
        <ele>2005.8888</ele>
        <time>2010-09-21T09:04:19Z</time>
      </trkpt>
      <trkpt lat="46.411239" lon="14.738696">
        <ele>2004.9744</ele>
        <time>2010-09-21T09:04:24Z</time>
      </trkpt>
      <trkpt lat="46.411234" lon="14.738701">
        <ele>2004.9744</ele>
        <time>2010-09-21T09:04:31Z</time>
      </trkpt>
      <trkpt lat="46.411234" lon="14.738701">
        <ele>2004.9744</ele>
        <time>2010-09-21T09:04:36Z</time>
      </trkpt>
      <trkpt lat="46.411234" lon="14.738701">
        <ele>2004.9744</ele>
        <time>2010-09-21T09:04:43Z</time>
      </trkpt>
      <trkpt lat="46.411234" lon="14.738701">
        <ele>2004.9744</ele>
        <time>2010-09-21T09:04:48Z</time>
      </trkpt>
      <trkpt lat="46.411234" lon="14.738701">
        <ele>2004.9744</ele>
        <time>2010-09-21T09:04:55Z</time>
      </trkpt>
      <trkpt lat="46.411223" lon="14.738685">
        <ele>2004.06</ele>
        <time>2010-09-21T09:05:01Z</time>
      </trkpt>
      <trkpt lat="46.411201" lon="14.738647">
        <ele>2001.9264</ele>
        <time>2010-09-21T09:05:06Z</time>
      </trkpt>
      <trkpt lat="46.411164" lon="14.738647">
        <ele>2000.0976</ele>
        <time>2010-09-21T09:05:13Z</time>
      </trkpt>
      <trkpt lat="46.411142" lon="14.738642">
        <ele>1997.964</ele>
        <time>2010-09-21T09:05:18Z</time>
      </trkpt>
      <trkpt lat="46.411142" lon="14.738637">
        <ele>2000.0976</ele>
        <time>2010-09-21T09:05:25Z</time>
      </trkpt>
      <trkpt lat="46.411132" lon="14.738626">
        <ele>1998.8784</ele>
        <time>2010-09-21T09:05:30Z</time>
      </trkpt>
      <trkpt lat="46.411121" lon="14.738621">
        <ele>1998.8784</ele>
        <time>2010-09-21T09:05:37Z</time>
      </trkpt>
      <trkpt lat="46.411110" lon="14.738610">
        <ele>1997.964</ele>
        <time>2010-09-21T09:05:42Z</time>
      </trkpt>
      <trkpt lat="46.411099" lon="14.738604">
        <ele>1997.0496</ele>
        <time>2010-09-21T09:05:49Z</time>
      </trkpt>
      <trkpt lat="46.411099" lon="14.738594">
        <ele>1997.0496</ele>
        <time>2010-09-21T09:05:55Z</time>
      </trkpt>
      <trkpt lat="46.411110" lon="14.738578">
        <ele>1998.8784</ele>
        <time>2010-09-21T09:06:00Z</time>
      </trkpt>
      <trkpt lat="46.411116" lon="14.738535">
        <ele>2000.0976</ele>
        <time>2010-09-21T09:06:07Z</time>
      </trkpt>
      <trkpt lat="46.411121" lon="14.738529">
        <ele>2001.9264</ele>
        <time>2010-09-21T09:06:12Z</time>
      </trkpt>
      <trkpt lat="46.411116" lon="14.738529">
        <ele>2001.9264</ele>
        <time>2010-09-21T09:06:19Z</time>
      </trkpt>
      <trkpt lat="46.411105" lon="14.738524">
        <ele>2001.9264</ele>
        <time>2010-09-21T09:06:24Z</time>
      </trkpt>
      <trkpt lat="46.411099" lon="14.738486">
        <ele>2001.012</ele>
        <time>2010-09-21T09:06:31Z</time>
      </trkpt>
      <trkpt lat="46.411089" lon="14.738470">
        <ele>2001.012</ele>
        <time>2010-09-21T09:06:36Z</time>
      </trkpt>
      <trkpt lat="46.411099" lon="14.738481">
        <ele>2004.06</ele>
        <time>2010-09-21T09:06:43Z</time>
      </trkpt>
      <trkpt lat="46.411094" lon="14.738470">
        <ele>2004.9744</ele>
        <time>2010-09-21T09:06:49Z</time>
      </trkpt>
      <trkpt lat="46.411078" lon="14.738443">
        <ele>2003.1456</ele>
        <time>2010-09-21T09:06:54Z</time>
      </trkpt>
      <trkpt lat="46.411089" lon="14.738417">
        <ele>2001.9264</ele>
        <time>2010-09-21T09:07:01Z</time>
      </trkpt>
      <trkpt lat="46.411062" lon="14.738390">
        <ele>2001.9264</ele>
        <time>2010-09-21T09:07:06Z</time>
      </trkpt>
      <trkpt lat="46.411057" lon="14.738390">
        <ele>2000.0976</ele>
        <time>2010-09-21T09:07:13Z</time>
      </trkpt>
      <trkpt lat="46.411035" lon="14.738406">
        <ele>2001.012</ele>
        <time>2010-09-21T09:07:18Z</time>
      </trkpt>
      <trkpt lat="46.411040" lon="14.738417">
        <ele>2001.012</ele>
        <time>2010-09-21T09:07:25Z</time>
      </trkpt>
      <trkpt lat="46.411062" lon="14.738401">
        <ele>2003.1456</ele>
        <time>2010-09-21T09:07:30Z</time>
      </trkpt>
      <trkpt lat="46.411073" lon="14.738401">
        <ele>2003.1456</ele>
        <time>2010-09-21T09:07:37Z</time>
      </trkpt>
      <trkpt lat="46.411083" lon="14.738336">
        <ele>2004.9744</ele>
        <time>2010-09-21T09:07:43Z</time>
      </trkpt>
      <trkpt lat="46.411078" lon="14.738347">
        <ele>2007.108</ele>
        <time>2010-09-21T09:07:48Z</time>
      </trkpt>
      <trkpt lat="46.411083" lon="14.738336">
        <ele>2005.8888</ele>
        <time>2010-09-21T09:07:55Z</time>
      </trkpt>
      <trkpt lat="46.411051" lon="14.738336">
        <ele>2004.06</ele>
        <time>2010-09-21T09:08:00Z</time>
      </trkpt>
      <trkpt lat="46.411046" lon="14.738358">
        <ele>2007.108</ele>
        <time>2010-09-21T09:08:07Z</time>
      </trkpt>
      <trkpt lat="46.411035" lon="14.738363">
        <ele>2008.9368</ele>
        <time>2010-09-21T09:08:12Z</time>
      </trkpt>
      <trkpt lat="46.411014" lon="14.738358">
        <ele>2009.8512</ele>
        <time>2010-09-21T09:08:19Z</time>
      </trkpt>
      <trkpt lat="46.410987" lon="14.738352">
        <ele>2011.0704</ele>
        <time>2010-09-21T09:08:24Z</time>
      </trkpt>
      <trkpt lat="46.410976" lon="14.738379">
        <ele>2014.1184</ele>
        <time>2010-09-21T09:08:31Z</time>
      </trkpt>
      <trkpt lat="46.410971" lon="14.738379">
        <ele>2015.0328</ele>
        <time>2010-09-21T09:08:37Z</time>
      </trkpt>
      <trkpt lat="46.410965" lon="14.738384">
        <ele>2015.9472</ele>
        <time>2010-09-21T09:08:42Z</time>
      </trkpt>
      <trkpt lat="46.410955" lon="14.738401">
        <ele>2018.0808</ele>
        <time>2010-09-21T09:08:49Z</time>
      </trkpt>
      <trkpt lat="46.410949" lon="14.738422">
        <ele>2019.9096</ele>
        <time>2010-09-21T09:08:54Z</time>
      </trkpt>
      <trkpt lat="46.410939" lon="14.738422">
        <ele>2019.9096</ele>
        <time>2010-09-21T09:09:01Z</time>
      </trkpt>
      <trkpt lat="46.410944" lon="14.738417">
        <ele>2019.9096</ele>
        <time>2010-09-21T09:09:06Z</time>
      </trkpt>
      <trkpt lat="46.410928" lon="14.738411">
        <ele>2022.0432</ele>
        <time>2010-09-21T09:09:13Z</time>
      </trkpt>
      <trkpt lat="46.410922" lon="14.738406">
        <ele>2023.872</ele>
        <time>2010-09-21T09:09:18Z</time>
      </trkpt>
      <trkpt lat="46.410922" lon="14.738401">
        <ele>2025.0912</ele>
        <time>2010-09-21T09:09:25Z</time>
      </trkpt>
      <trkpt lat="46.410928" lon="14.738401">
        <ele>2029.0536</ele>
        <time>2010-09-21T09:09:31Z</time>
      </trkpt>
      <trkpt lat="46.410922" lon="14.738384">
        <ele>2032.1016</ele>
        <time>2010-09-21T09:09:36Z</time>
      </trkpt>
      <trkpt lat="46.410863" lon="14.738401">
        <ele>2033.9304</ele>
        <time>2010-09-21T09:09:43Z</time>
      </trkpt>
      <trkpt lat="46.410820" lon="14.738422">
        <ele>2035.1496</ele>
        <time>2010-09-21T09:09:48Z</time>
      </trkpt>
      <trkpt lat="46.410794" lon="14.738427">
        <ele>2036.064</ele>
        <time>2010-09-21T09:09:55Z</time>
      </trkpt>
      <trkpt lat="46.410756" lon="14.738427">
        <ele>2036.064</ele>
        <time>2010-09-21T09:10:00Z</time>
      </trkpt>
      <trkpt lat="46.410756" lon="14.738427">
        <ele>2036.064</ele>
        <time>2010-09-21T09:10:07Z</time>
      </trkpt>
      <trkpt lat="46.410756" lon="14.738427">
        <ele>2036.064</ele>
        <time>2010-09-21T09:10:12Z</time>
      </trkpt>
      <trkpt lat="46.410756" lon="14.738433">
        <ele>2036.064</ele>
        <time>2010-09-21T09:10:19Z</time>
      </trkpt>
      <trkpt lat="46.410756" lon="14.738433">
        <ele>2036.064</ele>
        <time>2010-09-21T09:10:25Z</time>
      </trkpt>
      <trkpt lat="46.410729" lon="14.738422">
        <ele>2036.9784</ele>
        <time>2010-09-21T09:10:30Z</time>
      </trkpt>
      <trkpt lat="46.410702" lon="14.738422">
        <ele>2037.8928</ele>
        <time>2010-09-21T09:10:37Z</time>
      </trkpt>
      <trkpt lat="46.410676" lon="14.738417">
        <ele>2039.112</ele>
        <time>2010-09-21T09:10:42Z</time>
      </trkpt>
      <trkpt lat="46.410649" lon="14.738417">
        <ele>2040.9408</ele>
        <time>2010-09-21T09:10:49Z</time>
      </trkpt>
      <trkpt lat="46.410617" lon="14.738395">
        <ele>2041.8552</ele>
        <time>2010-09-21T09:10:54Z</time>
      </trkpt>
      <trkpt lat="46.410584" lon="14.738384">
        <ele>2043.9888</ele>
        <time>2010-09-21T09:11:01Z</time>
      </trkpt>
      <trkpt lat="46.410579" lon="14.738411">
        <ele>2043.9888</ele>
        <time>2010-09-21T09:11:06Z</time>
      </trkpt>
      <trkpt lat="46.410584" lon="14.738433">
        <ele>2044.9032</ele>
        <time>2010-09-21T09:11:13Z</time>
      </trkpt>
      <trkpt lat="46.410590" lon="14.738465">
        <ele>2044.9032</ele>
        <time>2010-09-21T09:11:19Z</time>
      </trkpt>
      <trkpt lat="46.410590" lon="14.738486">
        <ele>2046.1224</ele>
        <time>2010-09-21T09:11:24Z</time>
      </trkpt>
      <trkpt lat="46.410590" lon="14.738503">
        <ele>2046.1224</ele>
        <time>2010-09-21T09:11:31Z</time>
      </trkpt>
      <trkpt lat="46.410606" lon="14.738540">
        <ele>2047.9512</ele>
        <time>2010-09-21T09:11:36Z</time>
      </trkpt>
      <trkpt lat="46.410627" lon="14.738572">
        <ele>2050.0848</ele>
        <time>2010-09-21T09:11:43Z</time>
      </trkpt>
      <trkpt lat="46.410638" lon="14.738588">
        <ele>2050.9992</ele>
        <time>2010-09-21T09:11:48Z</time>
      </trkpt>
      <trkpt lat="46.410617" lon="14.738604">
        <ele>2054.0472</ele>
        <time>2010-09-21T09:11:55Z</time>
      </trkpt>
      <trkpt lat="46.410617" lon="14.738610">
        <ele>2054.0472</ele>
        <time>2010-09-21T09:12:00Z</time>
      </trkpt>
      <trkpt lat="46.410606" lon="14.738615">
        <ele>2055.876</ele>
        <time>2010-09-21T09:12:07Z</time>
      </trkpt>
      <trkpt lat="46.410590" lon="14.738637">
        <ele>2057.0952</ele>
        <time>2010-09-21T09:12:13Z</time>
      </trkpt>
      <trkpt lat="46.410579" lon="14.738653">
        <ele>2058.924</ele>
        <time>2010-09-21T09:12:18Z</time>
      </trkpt>
      <trkpt lat="46.410579" lon="14.738647">
        <ele>2058.924</ele>
        <time>2010-09-21T09:12:25Z</time>
      </trkpt>
      <trkpt lat="46.410584" lon="14.738647">
        <ele>2058.924</ele>
        <time>2010-09-21T09:12:30Z</time>
      </trkpt>
      <trkpt lat="46.410579" lon="14.738647">
        <ele>2058.924</ele>
        <time>2010-09-21T09:12:37Z</time>
      </trkpt>
      <trkpt lat="46.410579" lon="14.738642">
        <ele>2060.1432</ele>
        <time>2010-09-21T09:12:42Z</time>
      </trkpt>
      <trkpt lat="46.410574" lon="14.738631">
        <ele>2060.1432</ele>
        <time>2010-09-21T09:12:49Z</time>
      </trkpt>
      <trkpt lat="46.410563" lon="14.738647">
        <ele>2061.972</ele>
        <time>2010-09-21T09:12:54Z</time>
      </trkpt>
      <trkpt lat="46.410547" lon="14.738653">
        <ele>2062.8864</ele>
        <time>2010-09-21T09:13:01Z</time>
      </trkpt>
      <trkpt lat="46.410542" lon="14.738680">
        <ele>2064.1056</ele>
        <time>2010-09-21T09:13:07Z</time>
      </trkpt>
      <trkpt lat="46.410525" lon="14.738690">
        <ele>2065.9344</ele>
        <time>2010-09-21T09:13:12Z</time>
      </trkpt>
      <trkpt lat="46.410520" lon="14.738722">
        <ele>2065.9344</ele>
        <time>2010-09-21T09:13:19Z</time>
      </trkpt>
      <trkpt lat="46.410509" lon="14.738749">
        <ele>2066.8488</ele>
        <time>2010-09-21T09:13:24Z</time>
      </trkpt>
      <trkpt lat="46.410509" lon="14.738749">
        <ele>2066.8488</ele>
        <time>2010-09-21T09:13:31Z</time>
      </trkpt>
      <trkpt lat="46.410509" lon="14.738749">
        <ele>2066.8488</ele>
        <time>2010-09-21T09:13:36Z</time>
      </trkpt>
      <trkpt lat="46.410504" lon="14.738755">
        <ele>2068.068</ele>
        <time>2010-09-21T09:13:43Z</time>
      </trkpt>
      <trkpt lat="46.410499" lon="14.738744">
        <ele>2068.9824</ele>
        <time>2010-09-21T09:13:48Z</time>
      </trkpt>
      <trkpt lat="46.410504" lon="14.738744">
        <ele>2069.8968</ele>
        <time>2010-09-21T09:13:55Z</time>
      </trkpt>
      <trkpt lat="46.410499" lon="14.738744">
        <ele>2069.8968</ele>
        <time>2010-09-21T09:14:01Z</time>
      </trkpt>
      <trkpt lat="46.410499" lon="14.738744">
        <ele>2069.8968</ele>
        <time>2010-09-21T09:14:06Z</time>
      </trkpt>
      <trkpt lat="46.410499" lon="14.738744">
        <ele>2069.8968</ele>
        <time>2010-09-21T09:14:13Z</time>
      </trkpt>
      <trkpt lat="46.410493" lon="14.738733">
        <ele>2072.0304</ele>
        <time>2010-09-21T09:14:18Z</time>
      </trkpt>
      <trkpt lat="46.410472" lon="14.738728">
        <ele>2073.8592</ele>
        <time>2010-09-21T09:14:25Z</time>
      </trkpt>
      <trkpt lat="46.410450" lon="14.738739">
        <ele>2075.0784</ele>
        <time>2010-09-21T09:14:30Z</time>
      </trkpt>
      <trkpt lat="46.410440" lon="14.738781">
        <ele>2075.9928</ele>
        <time>2010-09-21T09:14:37Z</time>
      </trkpt>
      <trkpt lat="46.410397" lon="14.738808">
        <ele>2076.9072</ele>
        <time>2010-09-21T09:14:42Z</time>
      </trkpt>
      <trkpt lat="46.410354" lon="14.738803">
        <ele>2079.0408</ele>
        <time>2010-09-21T09:14:49Z</time>
      </trkpt>
      <trkpt lat="46.410332" lon="14.738814">
        <ele>2079.0408</ele>
        <time>2010-09-21T09:14:55Z</time>
      </trkpt>
      <trkpt lat="46.410332" lon="14.738814">
        <ele>2079.9552</ele>
        <time>2010-09-21T09:15:00Z</time>
      </trkpt>
      <trkpt lat="46.410311" lon="14.738814">
        <ele>2079.9552</ele>
        <time>2010-09-21T09:15:07Z</time>
      </trkpt>
      <trkpt lat="46.410311" lon="14.738808">
        <ele>2079.9552</ele>
        <time>2010-09-21T09:15:12Z</time>
      </trkpt>
      <trkpt lat="46.410311" lon="14.738808">
        <ele>2079.9552</ele>
        <time>2010-09-21T09:15:19Z</time>
      </trkpt>
      <trkpt lat="46.410284" lon="14.738803">
        <ele>2080.8696</ele>
        <time>2010-09-21T09:15:24Z</time>
      </trkpt>
      <trkpt lat="46.410263" lon="14.738798">
        <ele>2080.8696</ele>
        <time>2010-09-21T09:15:31Z</time>
      </trkpt>
      <trkpt lat="46.410246" lon="14.738765">
        <ele>2083.0032</ele>
        <time>2010-09-21T09:15:36Z</time>
      </trkpt>
      <trkpt lat="46.410241" lon="14.738760">
        <ele>2083.0032</ele>
        <time>2010-09-21T09:15:43Z</time>
      </trkpt>
      <trkpt lat="46.410236" lon="14.738760">
        <ele>2083.0032</ele>
        <time>2010-09-21T09:15:49Z</time>
      </trkpt>
      <trkpt lat="46.410236" lon="14.738760">
        <ele>2083.0032</ele>
        <time>2010-09-21T09:15:54Z</time>
      </trkpt>
      <trkpt lat="46.410236" lon="14.738760">
        <ele>2083.0032</ele>
        <time>2010-09-21T09:16:01Z</time>
      </trkpt>
      <trkpt lat="46.410236" lon="14.738760">
        <ele>2083.0032</ele>
        <time>2010-09-21T09:16:06Z</time>
      </trkpt>
      <trkpt lat="46.410236" lon="14.738760">
        <ele>2083.0032</ele>
        <time>2010-09-21T09:16:13Z</time>
      </trkpt>
      <trkpt lat="46.410246" lon="14.738760">
        <ele>2083.0032</ele>
        <time>2010-09-21T09:16:18Z</time>
      </trkpt>
      <trkpt lat="46.410220" lon="14.738739">
        <ele>2083.9176</ele>
        <time>2010-09-21T09:16:25Z</time>
      </trkpt>
      <trkpt lat="46.410145" lon="14.738733">
        <ele>2086.0512</ele>
        <time>2010-09-21T09:16:30Z</time>
      </trkpt>
      <trkpt lat="46.410096" lon="14.738717">
        <ele>2086.9656</ele>
        <time>2010-09-21T09:16:37Z</time>
      </trkpt>
      <trkpt lat="46.410064" lon="14.738680">
        <ele>2089.0992</ele>
        <time>2010-09-21T09:16:43Z</time>
      </trkpt>
      <trkpt lat="46.410010" lon="14.738663">
        <ele>2089.0992</ele>
        <time>2010-09-21T09:16:48Z</time>
      </trkpt>
      <trkpt lat="46.409957" lon="14.738621">
        <ele>2089.0992</ele>
        <time>2010-09-21T09:16:55Z</time>
      </trkpt>
      <trkpt lat="46.409919" lon="14.738562">
        <ele>2090.928</ele>
        <time>2010-09-21T09:17:00Z</time>
      </trkpt>
      <trkpt lat="46.409903" lon="14.738503">
        <ele>2093.0616</ele>
        <time>2010-09-21T09:17:07Z</time>
      </trkpt>
      <trkpt lat="46.409909" lon="14.738449">
        <ele>2094.8904</ele>
        <time>2010-09-21T09:17:12Z</time>
      </trkpt>
      <trkpt lat="46.409951" lon="14.738422">
        <ele>2096.1096</ele>
        <time>2010-09-21T09:17:19Z</time>
      </trkpt>
      <trkpt lat="46.410005" lon="14.738406">
        <ele>2097.9384</ele>
        <time>2010-09-21T09:17:24Z</time>
      </trkpt>
      <trkpt lat="46.410053" lon="14.738401">
        <ele>2098.8528</ele>
        <time>2010-09-21T09:17:31Z</time>
      </trkpt>
      <trkpt lat="46.410091" lon="14.738374">
        <ele>2100.072</ele>
        <time>2010-09-21T09:17:37Z</time>
      </trkpt>
      <trkpt lat="46.410096" lon="14.738368">
        <ele>2100.072</ele>
        <time>2010-09-21T09:17:42Z</time>
      </trkpt>
      <trkpt lat="46.410096" lon="14.738368">
        <ele>2100.072</ele>
        <time>2010-09-21T09:17:49Z</time>
      </trkpt>
      <trkpt lat="46.410064" lon="14.738304">
        <ele>2100.9864</ele>
        <time>2010-09-21T09:17:54Z</time>
      </trkpt>
      <trkpt lat="46.410032" lon="14.738256">
        <ele>2103.12</ele>
        <time>2010-09-21T09:18:01Z</time>
      </trkpt>
      <trkpt lat="46.410021" lon="14.738197">
        <ele>2104.0344</ele>
        <time>2010-09-21T09:18:06Z</time>
      </trkpt>
      <trkpt lat="46.410037" lon="14.738159">
        <ele>2105.8632</ele>
        <time>2010-09-21T09:18:13Z</time>
      </trkpt>
      <trkpt lat="46.410021" lon="14.738106">
        <ele>2107.0824</ele>
        <time>2010-09-21T09:18:18Z</time>
      </trkpt>
      <trkpt lat="46.409994" lon="14.738047">
        <ele>2107.9968</ele>
        <time>2010-09-21T09:18:25Z</time>
      </trkpt>
      <trkpt lat="46.409973" lon="14.737988">
        <ele>2108.9112</ele>
        <time>2010-09-21T09:18:31Z</time>
      </trkpt>
      <trkpt lat="46.409941" lon="14.737939">
        <ele>2108.9112</ele>
        <time>2010-09-21T09:18:36Z</time>
      </trkpt>
      <trkpt lat="46.409930" lon="14.737870">
        <ele>2111.0448</ele>
        <time>2010-09-21T09:18:43Z</time>
      </trkpt>
      <trkpt lat="46.409930" lon="14.737794">
        <ele>2111.9592</ele>
        <time>2010-09-21T09:18:48Z</time>
      </trkpt>
      <trkpt lat="46.409935" lon="14.737757">
        <ele>2112.8736</ele>
        <time>2010-09-21T09:18:55Z</time>
      </trkpt>
      <trkpt lat="46.409919" lon="14.737687">
        <ele>2112.8736</ele>
        <time>2010-09-21T09:19:00Z</time>
      </trkpt>
      <trkpt lat="46.409919" lon="14.737666">
        <ele>2112.8736</ele>
        <time>2010-09-21T09:19:07Z</time>
      </trkpt>
      <trkpt lat="46.409925" lon="14.737666">
        <ele>2112.8736</ele>
        <time>2010-09-21T09:19:12Z</time>
      </trkpt>
      <trkpt lat="46.409925" lon="14.737666">
        <ele>2111.9592</ele>
        <time>2010-09-21T09:19:19Z</time>
      </trkpt>
      <trkpt lat="46.409914" lon="14.737671">
        <ele>2111.9592</ele>
        <time>2010-09-21T09:19:25Z</time>
      </trkpt>
      <trkpt lat="46.409898" lon="14.737682">
        <ele>2111.9592</ele>
        <time>2010-09-21T09:19:30Z</time>
      </trkpt>
      <trkpt lat="46.409903" lon="14.737687">
        <ele>2111.9592</ele>
        <time>2010-09-21T09:19:37Z</time>
      </trkpt>
      <trkpt lat="46.409892" lon="14.737660">
        <ele>2111.9592</ele>
        <time>2010-09-21T09:19:42Z</time>
      </trkpt>
      <trkpt lat="46.409903" lon="14.737660">
        <ele>2111.9592</ele>
        <time>2010-09-21T09:19:49Z</time>
      </trkpt>
      <trkpt lat="46.409919" lon="14.737660">
        <ele>2111.9592</ele>
        <time>2010-09-21T09:19:54Z</time>
      </trkpt>
      <trkpt lat="46.409914" lon="14.737655">
        <ele>2111.9592</ele>
        <time>2010-09-21T09:20:01Z</time>
      </trkpt>
      <trkpt lat="46.409909" lon="14.737655">
        <ele>2111.9592</ele>
        <time>2010-09-21T09:20:06Z</time>
      </trkpt>
      <trkpt lat="46.409871" lon="14.737650">
        <ele>2111.0448</ele>
        <time>2010-09-21T09:20:13Z</time>
      </trkpt>
      <trkpt lat="46.409887" lon="14.737591">
        <ele>2111.0448</ele>
        <time>2010-09-21T09:20:19Z</time>
      </trkpt>
      <trkpt lat="46.409882" lon="14.737601">
        <ele>2110.1304</ele>
        <time>2010-09-21T09:20:24Z</time>
      </trkpt>
      <trkpt lat="46.409882" lon="14.737601">
        <ele>2110.1304</ele>
        <time>2010-09-21T09:20:31Z</time>
      </trkpt>
      <trkpt lat="46.409882" lon="14.737596">
        <ele>2110.1304</ele>
        <time>2010-09-21T09:20:36Z</time>
      </trkpt>
      <trkpt lat="46.409882" lon="14.737601">
        <ele>2110.1304</ele>
        <time>2010-09-21T09:20:43Z</time>
      </trkpt>
      <trkpt lat="46.409882" lon="14.737601">
        <ele>2110.1304</ele>
        <time>2010-09-21T09:20:48Z</time>
      </trkpt>
      <trkpt lat="46.409882" lon="14.737601">
        <ele>2110.1304</ele>
        <time>2010-09-21T09:20:55Z</time>
      </trkpt>
      <trkpt lat="46.409882" lon="14.737601">
        <ele>2110.1304</ele>
        <time>2010-09-21T09:21:00Z</time>
      </trkpt>
      <trkpt lat="46.409882" lon="14.737601">
        <ele>2110.1304</ele>
        <time>2010-09-21T09:21:07Z</time>
      </trkpt>
      <trkpt lat="46.409882" lon="14.737601">
        <ele>2110.1304</ele>
        <time>2010-09-21T09:21:13Z</time>
      </trkpt>
      <trkpt lat="46.409882" lon="14.737601">
        <ele>2110.1304</ele>
        <time>2010-09-21T09:21:18Z</time>
      </trkpt>
      <trkpt lat="46.409882" lon="14.737601">
        <ele>2110.1304</ele>
        <time>2010-09-21T09:21:25Z</time>
      </trkpt>
      <trkpt lat="46.409876" lon="14.737591">
        <ele>2110.1304</ele>
        <time>2010-09-21T09:21:30Z</time>
      </trkpt>
      <trkpt lat="46.409876" lon="14.737569">
        <ele>2115.0072</ele>
        <time>2010-09-21T09:47:50Z</time>
      </trkpt>
      <trkpt lat="46.409876" lon="14.737569">
        <ele>2115.0072</ele>
        <time>2010-09-21T09:47:55Z</time>
      </trkpt>
      <trkpt lat="46.409876" lon="14.737574">
        <ele>2114.0928</ele>
        <time>2010-09-21T09:48:02Z</time>
      </trkpt>
      <trkpt lat="46.409876" lon="14.737580">
        <ele>2114.0928</ele>
        <time>2010-09-21T09:48:07Z</time>
      </trkpt>
      <trkpt lat="46.409876" lon="14.737596">
        <ele>2112.8736</ele>
        <time>2010-09-21T09:48:14Z</time>
      </trkpt>
      <trkpt lat="46.409876" lon="14.737591">
        <ele>2112.8736</ele>
        <time>2010-09-21T09:48:19Z</time>
      </trkpt>
      <trkpt lat="46.409876" lon="14.737596">
        <ele>2112.8736</ele>
        <time>2010-09-21T09:48:26Z</time>
      </trkpt>
      <trkpt lat="46.409871" lon="14.737596">
        <ele>2112.8736</ele>
        <time>2010-09-21T09:48:32Z</time>
      </trkpt>
      <trkpt lat="46.409844" lon="14.737569">
        <ele>2112.8736</ele>
        <time>2010-09-21T09:48:37Z</time>
      </trkpt>
      <trkpt lat="46.409839" lon="14.737515">
        <ele>2111.9592</ele>
        <time>2010-09-21T09:48:44Z</time>
      </trkpt>
      <trkpt lat="46.409850" lon="14.737483">
        <ele>2111.0448</ele>
        <time>2010-09-21T09:48:49Z</time>
      </trkpt>
      <trkpt lat="46.409876" lon="14.737473">
        <ele>2108.9112</ele>
        <time>2010-09-21T09:48:56Z</time>
      </trkpt>
      <trkpt lat="46.409882" lon="14.737473">
        <ele>2108.9112</ele>
        <time>2010-09-21T09:49:01Z</time>
      </trkpt>
      <trkpt lat="46.409882" lon="14.737473">
        <ele>2108.9112</ele>
        <time>2010-09-21T09:49:08Z</time>
      </trkpt>
      <trkpt lat="46.409860" lon="14.737505">
        <ele>2108.9112</ele>
        <time>2010-09-21T09:49:13Z</time>
      </trkpt>
      <trkpt lat="46.409866" lon="14.737558">
        <ele>2108.9112</ele>
        <time>2010-09-21T09:49:20Z</time>
      </trkpt>
      <trkpt lat="46.409871" lon="14.737553">
        <ele>2108.9112</ele>
        <time>2010-09-21T09:49:26Z</time>
      </trkpt>
      <trkpt lat="46.409876" lon="14.737553">
        <ele>2108.9112</ele>
        <time>2010-09-21T09:49:31Z</time>
      </trkpt>
      <trkpt lat="46.409887" lon="14.737569">
        <ele>2107.9968</ele>
        <time>2010-09-21T09:49:38Z</time>
      </trkpt>
      <trkpt lat="46.409882" lon="14.737558">
        <ele>2107.9968</ele>
        <time>2010-09-21T09:49:43Z</time>
      </trkpt>
      <trkpt lat="46.409839" lon="14.737553">
        <ele>2108.9112</ele>
        <time>2010-09-21T09:49:50Z</time>
      </trkpt>
      <trkpt lat="46.409839" lon="14.737548">
        <ele>2108.9112</ele>
        <time>2010-09-21T09:49:55Z</time>
      </trkpt>
      <trkpt lat="46.409807" lon="14.737542">
        <ele>2107.0824</ele>
        <time>2010-09-21T09:50:02Z</time>
      </trkpt>
      <trkpt lat="46.409807" lon="14.737548">
        <ele>2107.0824</ele>
        <time>2010-09-21T09:50:07Z</time>
      </trkpt>
      <trkpt lat="46.409753" lon="14.737526">
        <ele>2105.8632</ele>
        <time>2010-09-21T09:50:14Z</time>
      </trkpt>
      <trkpt lat="46.409726" lon="14.737510">
        <ele>2104.9488</ele>
        <time>2010-09-21T09:50:20Z</time>
      </trkpt>
      <trkpt lat="46.409699" lon="14.737462">
        <ele>2104.0344</ele>
        <time>2010-09-21T09:50:25Z</time>
      </trkpt>
      <trkpt lat="46.409667" lon="14.737419">
        <ele>2104.9488</ele>
        <time>2010-09-21T09:50:32Z</time>
      </trkpt>
      <trkpt lat="46.409662" lon="14.737515">
        <ele>2103.12</ele>
        <time>2010-09-21T09:50:37Z</time>
      </trkpt>
      <trkpt lat="46.409603" lon="14.737483">
        <ele>2101.9008</ele>
        <time>2010-09-21T09:50:44Z</time>
      </trkpt>
      <trkpt lat="46.409522" lon="14.737467">
        <ele>2101.9008</ele>
        <time>2010-09-21T09:50:49Z</time>
      </trkpt>
      <trkpt lat="46.409463" lon="14.737467">
        <ele>2100.9864</ele>
        <time>2010-09-21T09:50:56Z</time>
      </trkpt>
      <trkpt lat="46.409420" lon="14.737408">
        <ele>2098.8528</ele>
        <time>2010-09-21T09:51:01Z</time>
      </trkpt>
      <trkpt lat="46.409340" lon="14.737360">
        <ele>2097.024</ele>
        <time>2010-09-21T09:51:08Z</time>
      </trkpt>
      <trkpt lat="46.409265" lon="14.737290">
        <ele>2094.8904</ele>
        <time>2010-09-21T09:51:14Z</time>
      </trkpt>
      <trkpt lat="46.409227" lon="14.737285">
        <ele>2093.976</ele>
        <time>2010-09-21T09:51:19Z</time>
      </trkpt>
      <trkpt lat="46.409163" lon="14.737231">
        <ele>2093.976</ele>
        <time>2010-09-21T09:51:26Z</time>
      </trkpt>
      <trkpt lat="46.409109" lon="14.737188">
        <ele>2092.1472</ele>
        <time>2010-09-21T09:51:31Z</time>
      </trkpt>
      <trkpt lat="46.409045" lon="14.737177">
        <ele>2087.88</ele>
        <time>2010-09-21T09:51:38Z</time>
      </trkpt>
      <trkpt lat="46.408970" lon="14.737220">
        <ele>2083.9176</ele>
        <time>2010-09-21T09:51:43Z</time>
      </trkpt>
      <trkpt lat="46.408911" lon="14.737258">
        <ele>2080.8696</ele>
        <time>2010-09-21T09:51:50Z</time>
      </trkpt>
      <trkpt lat="46.408841" lon="14.737285">
        <ele>2079.9552</ele>
        <time>2010-09-21T09:51:55Z</time>
      </trkpt>
      <trkpt lat="46.408761" lon="14.737285">
        <ele>2080.8696</ele>
        <time>2010-09-21T09:52:02Z</time>
      </trkpt>
      <trkpt lat="46.408728" lon="14.737317">
        <ele>2080.8696</ele>
        <time>2010-09-21T09:52:08Z</time>
      </trkpt>
      <trkpt lat="46.408723" lon="14.737312">
        <ele>2079.9552</ele>
        <time>2010-09-21T09:52:13Z</time>
      </trkpt>
      <trkpt lat="46.408648" lon="14.737317">
        <ele>2076.9072</ele>
        <time>2010-09-21T09:52:20Z</time>
      </trkpt>
      <trkpt lat="46.408589" lon="14.737338">
        <ele>2072.9448</ele>
        <time>2010-09-21T09:52:25Z</time>
      </trkpt>
      <trkpt lat="46.408525" lon="14.737301">
        <ele>2071.116</ele>
        <time>2010-09-21T09:52:32Z</time>
      </trkpt>
      <trkpt lat="46.408444" lon="14.737253">
        <ele>2069.8968</ele>
        <time>2010-09-21T09:52:37Z</time>
      </trkpt>
      <trkpt lat="46.408401" lon="14.737188">
        <ele>2068.068</ele>
        <time>2010-09-21T09:52:44Z</time>
      </trkpt>
      <trkpt lat="46.408380" lon="14.737124">
        <ele>2068.9824</ele>
        <time>2010-09-21T09:52:49Z</time>
      </trkpt>
      <trkpt lat="46.408374" lon="14.737076">
        <ele>2068.9824</ele>
        <time>2010-09-21T09:52:56Z</time>
      </trkpt>
      <trkpt lat="46.408347" lon="14.736995">
        <ele>2068.9824</ele>
        <time>2010-09-21T09:53:02Z</time>
      </trkpt>
      <trkpt lat="46.408321" lon="14.736888">
        <ele>2071.116</ele>
        <time>2010-09-21T09:53:07Z</time>
      </trkpt>
      <trkpt lat="46.408288" lon="14.736818">
        <ele>2071.116</ele>
        <time>2010-09-21T09:53:14Z</time>
      </trkpt>
      <trkpt lat="46.408272" lon="14.736722">
        <ele>2071.116</ele>
        <time>2010-09-21T09:53:19Z</time>
      </trkpt>
      <trkpt lat="46.408246" lon="14.736630">
        <ele>2072.0304</ele>
        <time>2010-09-21T09:53:26Z</time>
      </trkpt>
      <trkpt lat="46.408208" lon="14.736539">
        <ele>2072.0304</ele>
        <time>2010-09-21T09:53:31Z</time>
      </trkpt>
      <trkpt lat="46.408187" lon="14.736448">
        <ele>2072.9448</ele>
        <time>2010-09-21T09:53:38Z</time>
      </trkpt>
      <trkpt lat="46.408170" lon="14.736362">
        <ele>2075.0784</ele>
        <time>2010-09-21T09:53:43Z</time>
      </trkpt>
      <trkpt lat="46.408133" lon="14.736282">
        <ele>2073.8592</ele>
        <time>2010-09-21T09:53:50Z</time>
      </trkpt>
      <trkpt lat="46.408090" lon="14.736196">
        <ele>2073.8592</ele>
        <time>2010-09-21T09:53:56Z</time>
      </trkpt>
      <trkpt lat="46.408063" lon="14.736126">
        <ele>2073.8592</ele>
        <time>2010-09-21T09:54:01Z</time>
      </trkpt>
      <trkpt lat="46.408036" lon="14.736062">
        <ele>2075.0784</ele>
        <time>2010-09-21T09:54:08Z</time>
      </trkpt>
      <trkpt lat="46.408015" lon="14.735987">
        <ele>2075.0784</ele>
        <time>2010-09-21T09:54:13Z</time>
      </trkpt>
      <trkpt lat="46.407972" lon="14.735933">
        <ele>2075.0784</ele>
        <time>2010-09-21T09:54:20Z</time>
      </trkpt>
      <trkpt lat="46.407934" lon="14.735847">
        <ele>2075.0784</ele>
        <time>2010-09-21T09:54:25Z</time>
      </trkpt>
      <trkpt lat="46.407892" lon="14.735756">
        <ele>2073.8592</ele>
        <time>2010-09-21T09:54:32Z</time>
      </trkpt>
      <trkpt lat="46.407854" lon="14.735670">
        <ele>2073.8592</ele>
        <time>2010-09-21T09:54:37Z</time>
      </trkpt>
      <trkpt lat="46.407784" lon="14.735633">
        <ele>2073.8592</ele>
        <time>2010-09-21T09:54:44Z</time>
      </trkpt>
      <trkpt lat="46.407720" lon="14.735622">
        <ele>2075.9928</ele>
        <time>2010-09-21T09:54:50Z</time>
      </trkpt>
      <trkpt lat="46.407655" lon="14.735622">
        <ele>2075.9928</ele>
        <time>2010-09-21T09:54:55Z</time>
      </trkpt>
      <trkpt lat="46.407602" lon="14.735606">
        <ele>2075.9928</ele>
        <time>2010-09-21T09:55:02Z</time>
      </trkpt>
      <trkpt lat="46.407548" lon="14.735600">
        <ele>2075.0784</ele>
        <time>2010-09-21T09:55:07Z</time>
      </trkpt>
      <trkpt lat="46.407495" lon="14.735595">
        <ele>2073.8592</ele>
        <time>2010-09-21T09:55:14Z</time>
      </trkpt>
      <trkpt lat="46.407446" lon="14.735536">
        <ele>2072.0304</ele>
        <time>2010-09-21T09:55:19Z</time>
      </trkpt>
      <trkpt lat="46.407403" lon="14.735477">
        <ele>2069.8968</ele>
        <time>2010-09-21T09:55:26Z</time>
      </trkpt>
      <trkpt lat="46.407355" lon="14.735413">
        <ele>2068.9824</ele>
        <time>2010-09-21T09:55:31Z</time>
      </trkpt>
      <trkpt lat="46.407323" lon="14.735386">
        <ele>2068.068</ele>
        <time>2010-09-21T09:55:38Z</time>
      </trkpt>
      <trkpt lat="46.407264" lon="14.735370">
        <ele>2068.9824</ele>
        <time>2010-09-21T09:55:44Z</time>
      </trkpt>
      <trkpt lat="46.407210" lon="14.735359">
        <ele>2068.068</ele>
        <time>2010-09-21T09:55:49Z</time>
      </trkpt>
      <trkpt lat="46.407146" lon="14.735332">
        <ele>2068.9824</ele>
        <time>2010-09-21T09:55:56Z</time>
      </trkpt>
      <trkpt lat="46.407092" lon="14.735295">
        <ele>2065.9344</ele>
        <time>2010-09-21T09:56:01Z</time>
      </trkpt>
      <trkpt lat="46.407055" lon="14.735289">
        <ele>2065.02</ele>
        <time>2010-09-21T09:56:08Z</time>
      </trkpt>
      <trkpt lat="46.407012" lon="14.735300">
        <ele>2064.1056</ele>
        <time>2010-09-21T09:56:13Z</time>
      </trkpt>
      <trkpt lat="46.406942" lon="14.735284">
        <ele>2061.972</ele>
        <time>2010-09-21T09:56:20Z</time>
      </trkpt>
      <trkpt lat="46.406894" lon="14.735230">
        <ele>2062.8864</ele>
        <time>2010-09-21T09:56:25Z</time>
      </trkpt>
      <trkpt lat="46.406862" lon="14.735160">
        <ele>2061.0576</ele>
        <time>2010-09-21T09:56:32Z</time>
      </trkpt>
      <trkpt lat="46.406829" lon="14.735112">
        <ele>2060.1432</ele>
        <time>2010-09-21T09:56:38Z</time>
      </trkpt>
      <trkpt lat="46.406797" lon="14.735053">
        <ele>2061.0576</ele>
        <time>2010-09-21T09:56:43Z</time>
      </trkpt>
      <trkpt lat="46.406786" lon="14.734994">
        <ele>2061.0576</ele>
        <time>2010-09-21T09:56:50Z</time>
      </trkpt>
      <trkpt lat="46.406754" lon="14.734935">
        <ele>2060.1432</ele>
        <time>2010-09-21T09:56:55Z</time>
      </trkpt>
      <trkpt lat="46.406722" lon="14.734882">
        <ele>2058.924</ele>
        <time>2010-09-21T09:57:02Z</time>
      </trkpt>
      <trkpt lat="46.406695" lon="14.734817">
        <ele>2058.0096</ele>
        <time>2010-09-21T09:57:07Z</time>
      </trkpt>
      <trkpt lat="46.406642" lon="14.734790">
        <ele>2058.0096</ele>
        <time>2010-09-21T09:57:14Z</time>
      </trkpt>
      <trkpt lat="46.406588" lon="14.734742">
        <ele>2055.876</ele>
        <time>2010-09-21T09:57:19Z</time>
      </trkpt>
      <trkpt lat="46.406545" lon="14.734694">
        <ele>2054.9616</ele>
        <time>2010-09-21T09:57:26Z</time>
      </trkpt>
      <trkpt lat="46.406502" lon="14.734651">
        <ele>2054.0472</ele>
        <time>2010-09-21T09:57:32Z</time>
      </trkpt>
      <trkpt lat="46.406438" lon="14.734613">
        <ele>2051.9136</ele>
        <time>2010-09-21T09:57:37Z</time>
      </trkpt>
      <trkpt lat="46.406384" lon="14.734544">
        <ele>2050.0848</ele>
        <time>2010-09-21T09:57:44Z</time>
      </trkpt>
      <trkpt lat="46.406347" lon="14.734490">
        <ele>2048.8656</ele>
        <time>2010-09-21T09:57:49Z</time>
      </trkpt>
      <trkpt lat="46.406314" lon="14.734415">
        <ele>2048.8656</ele>
        <time>2010-09-21T09:57:56Z</time>
      </trkpt>
      <trkpt lat="46.406298" lon="14.734345">
        <ele>2047.9512</ele>
        <time>2010-09-21T09:58:01Z</time>
      </trkpt>
      <trkpt lat="46.406255" lon="14.734291">
        <ele>2048.8656</ele>
        <time>2010-09-21T09:58:08Z</time>
      </trkpt>
      <trkpt lat="46.406218" lon="14.734222">
        <ele>2047.9512</ele>
        <time>2010-09-21T09:58:13Z</time>
      </trkpt>
      <trkpt lat="46.406180" lon="14.734147">
        <ele>2047.0368</ele>
        <time>2010-09-21T09:58:20Z</time>
      </trkpt>
      <trkpt lat="46.406148" lon="14.734066">
        <ele>2047.0368</ele>
        <time>2010-09-21T09:58:26Z</time>
      </trkpt>
      <trkpt lat="46.406111" lon="14.733986">
        <ele>2047.9512</ele>
        <time>2010-09-21T09:58:31Z</time>
      </trkpt>
      <trkpt lat="46.406073" lon="14.733916">
        <ele>2047.9512</ele>
        <time>2010-09-21T09:58:38Z</time>
      </trkpt>
      <trkpt lat="46.406046" lon="14.733852">
        <ele>2047.9512</ele>
        <time>2010-09-21T09:58:43Z</time>
      </trkpt>
      <trkpt lat="46.406019" lon="14.733793">
        <ele>2047.0368</ele>
        <time>2010-09-21T09:58:50Z</time>
      </trkpt>
      <trkpt lat="46.405998" lon="14.733744">
        <ele>2044.9032</ele>
        <time>2010-09-21T09:58:55Z</time>
      </trkpt>
      <trkpt lat="46.405960" lon="14.733685">
        <ele>2043.0744</ele>
        <time>2010-09-21T09:59:02Z</time>
      </trkpt>
      <trkpt lat="46.405923" lon="14.733637">
        <ele>2040.9408</ele>
        <time>2010-09-21T09:59:07Z</time>
      </trkpt>
      <trkpt lat="46.405901" lon="14.733599">
        <ele>2040.0264</ele>
        <time>2010-09-21T09:59:14Z</time>
      </trkpt>
      <trkpt lat="46.405869" lon="14.733578">
        <ele>2039.112</ele>
        <time>2010-09-21T09:59:20Z</time>
      </trkpt>
      <trkpt lat="46.405837" lon="14.733546">
        <ele>2037.8928</ele>
        <time>2010-09-21T09:59:25Z</time>
      </trkpt>
      <trkpt lat="46.405799" lon="14.733503">
        <ele>2037.8928</ele>
        <time>2010-09-21T09:59:32Z</time>
      </trkpt>
      <trkpt lat="46.405751" lon="14.733471">
        <ele>2037.8928</ele>
        <time>2010-09-21T09:59:37Z</time>
      </trkpt>
      <trkpt lat="46.405719" lon="14.733433">
        <ele>2039.112</ele>
        <time>2010-09-21T09:59:44Z</time>
      </trkpt>
      <trkpt lat="46.405681" lon="14.733379">
        <ele>2037.8928</ele>
        <time>2010-09-21T09:59:49Z</time>
      </trkpt>
      <trkpt lat="46.405655" lon="14.733310">
        <ele>2039.112</ele>
        <time>2010-09-21T09:59:56Z</time>
      </trkpt>
      <trkpt lat="46.405606" lon="14.733235">
        <ele>2039.112</ele>
        <time>2010-09-21T10:00:01Z</time>
      </trkpt>
      <trkpt lat="46.405563" lon="14.733138">
        <ele>2039.112</ele>
        <time>2010-09-21T10:00:08Z</time>
      </trkpt>
      <trkpt lat="46.405542" lon="14.733074">
        <ele>2040.0264</ele>
        <time>2010-09-21T10:00:14Z</time>
      </trkpt>
      <trkpt lat="46.405504" lon="14.733031">
        <ele>2039.112</ele>
        <time>2010-09-21T10:00:19Z</time>
      </trkpt>
      <trkpt lat="46.405467" lon="14.733004">
        <ele>2040.9408</ele>
        <time>2010-09-21T10:00:26Z</time>
      </trkpt>
      <trkpt lat="46.405440" lon="14.732972">
        <ele>2041.8552</ele>
        <time>2010-09-21T10:00:31Z</time>
      </trkpt>
      <trkpt lat="46.405419" lon="14.732924">
        <ele>2043.9888</ele>
        <time>2010-09-21T10:00:38Z</time>
      </trkpt>
      <trkpt lat="46.405392" lon="14.732886">
        <ele>2043.0744</ele>
        <time>2010-09-21T10:00:43Z</time>
      </trkpt>
      <trkpt lat="46.405402" lon="14.732886">
        <ele>2043.9888</ele>
        <time>2010-09-21T10:00:50Z</time>
      </trkpt>
      <trkpt lat="46.405408" lon="14.732881">
        <ele>2043.9888</ele>
        <time>2010-09-21T10:00:55Z</time>
      </trkpt>
      <trkpt lat="46.405402" lon="14.732875">
        <ele>2043.9888</ele>
        <time>2010-09-21T10:01:02Z</time>
      </trkpt>
      <trkpt lat="46.405402" lon="14.732875">
        <ele>2043.9888</ele>
        <time>2010-09-21T10:01:08Z</time>
      </trkpt>
      <trkpt lat="46.405386" lon="14.732881">
        <ele>2043.0744</ele>
        <time>2010-09-21T10:01:13Z</time>
      </trkpt>
      <trkpt lat="46.405381" lon="14.732864">
        <ele>2043.0744</ele>
        <time>2010-09-21T10:01:20Z</time>
      </trkpt>
      <trkpt lat="46.405386" lon="14.732864">
        <ele>2041.8552</ele>
        <time>2010-09-21T10:01:25Z</time>
      </trkpt>
      <trkpt lat="46.405376" lon="14.732864">
        <ele>2041.8552</ele>
        <time>2010-09-21T10:01:32Z</time>
      </trkpt>
      <trkpt lat="46.405376" lon="14.732859">
        <ele>2041.8552</ele>
        <time>2010-09-21T10:01:37Z</time>
      </trkpt>
      <trkpt lat="46.405354" lon="14.732827">
        <ele>2041.8552</ele>
        <time>2010-09-21T10:01:44Z</time>
      </trkpt>
      <trkpt lat="46.405338" lon="14.732752">
        <ele>2041.8552</ele>
        <time>2010-09-21T10:01:49Z</time>
      </trkpt>
      <trkpt lat="46.405317" lon="14.732671">
        <ele>2043.0744</ele>
        <time>2010-09-21T10:01:56Z</time>
      </trkpt>
      <trkpt lat="46.405290" lon="14.732607">
        <ele>2043.9888</ele>
        <time>2010-09-21T10:02:02Z</time>
      </trkpt>
      <trkpt lat="46.405284" lon="14.732607">
        <ele>2043.9888</ele>
        <time>2010-09-21T10:02:07Z</time>
      </trkpt>
      <trkpt lat="46.405274" lon="14.732591">
        <ele>2043.9888</ele>
        <time>2010-09-21T10:02:14Z</time>
      </trkpt>
      <trkpt lat="46.405258" lon="14.732559">
        <ele>2043.0744</ele>
        <time>2010-09-21T10:02:19Z</time>
      </trkpt>
      <trkpt lat="46.405263" lon="14.732559">
        <ele>2043.9888</ele>
        <time>2010-09-21T10:02:26Z</time>
      </trkpt>
      <trkpt lat="46.405263" lon="14.732559">
        <ele>2043.9888</ele>
        <time>2010-09-21T10:02:31Z</time>
      </trkpt>
      <trkpt lat="46.405258" lon="14.732553">
        <ele>2043.0744</ele>
        <time>2010-09-21T10:02:38Z</time>
      </trkpt>
      <trkpt lat="46.405231" lon="14.732516">
        <ele>2043.0744</ele>
        <time>2010-09-21T10:02:43Z</time>
      </trkpt>
      <trkpt lat="46.405231" lon="14.732516">
        <ele>2043.0744</ele>
        <time>2010-09-21T10:02:50Z</time>
      </trkpt>
      <trkpt lat="46.405231" lon="14.732516">
        <ele>2043.0744</ele>
        <time>2010-09-21T10:02:56Z</time>
      </trkpt>
      <trkpt lat="46.405209" lon="14.732484">
        <ele>2043.0744</ele>
        <time>2010-09-21T10:03:01Z</time>
      </trkpt>
      <trkpt lat="46.405177" lon="14.732441">
        <ele>2041.8552</ele>
        <time>2010-09-21T10:03:08Z</time>
      </trkpt>
      <trkpt lat="46.405172" lon="14.732430">
        <ele>2040.9408</ele>
        <time>2010-09-21T10:03:13Z</time>
      </trkpt>
      <trkpt lat="46.405177" lon="14.732425">
        <ele>2040.9408</ele>
        <time>2010-09-21T10:03:20Z</time>
      </trkpt>
      <trkpt lat="46.405172" lon="14.732419">
        <ele>2040.9408</ele>
        <time>2010-09-21T10:03:25Z</time>
      </trkpt>
      <trkpt lat="46.405172" lon="14.732419">
        <ele>2040.0264</ele>
        <time>2010-09-21T10:03:32Z</time>
      </trkpt>
      <trkpt lat="46.405172" lon="14.732419">
        <ele>2040.0264</ele>
        <time>2010-09-21T10:03:37Z</time>
      </trkpt>
      <trkpt lat="46.405172" lon="14.732419">
        <ele>2040.0264</ele>
        <time>2010-09-21T10:03:44Z</time>
      </trkpt>
      <trkpt lat="46.405172" lon="14.732419">
        <ele>2040.0264</ele>
        <time>2010-09-21T10:03:50Z</time>
      </trkpt>
      <trkpt lat="46.405166" lon="14.732414">
        <ele>2040.0264</ele>
        <time>2010-09-21T10:03:55Z</time>
      </trkpt>
      <trkpt lat="46.405161" lon="14.732419">
        <ele>2040.9408</ele>
        <time>2010-09-21T10:04:02Z</time>
      </trkpt>
      <trkpt lat="46.405161" lon="14.732435">
        <ele>2040.9408</ele>
        <time>2010-09-21T10:04:07Z</time>
      </trkpt>
      <trkpt lat="46.405161" lon="14.732430">
        <ele>2040.9408</ele>
        <time>2010-09-21T10:04:14Z</time>
      </trkpt>
      <trkpt lat="46.405161" lon="14.732430">
        <ele>2040.9408</ele>
        <time>2010-09-21T10:04:19Z</time>
      </trkpt>
      <trkpt lat="46.405097" lon="14.732398">
        <ele>2037.8928</ele>
        <time>2010-09-21T10:04:26Z</time>
      </trkpt>
      <trkpt lat="46.404995" lon="14.732398">
        <ele>2036.064</ele>
        <time>2010-09-21T10:04:31Z</time>
      </trkpt>
      <trkpt lat="46.404936" lon="14.732392">
        <ele>2033.9304</ele>
        <time>2010-09-21T10:04:38Z</time>
      </trkpt>
      <trkpt lat="46.404845" lon="14.732414">
        <ele>2030.8824</ele>
        <time>2010-09-21T10:04:44Z</time>
      </trkpt>
      <trkpt lat="46.404748" lon="14.732451">
        <ele>2028.1392</ele>
        <time>2010-09-21T10:04:49Z</time>
      </trkpt>
      <trkpt lat="46.404667" lon="14.732457">
        <ele>2022.9576</ele>
        <time>2010-09-21T10:04:56Z</time>
      </trkpt>
      <trkpt lat="46.404582" lon="14.732473">
        <ele>2019.9096</ele>
        <time>2010-09-21T10:05:01Z</time>
      </trkpt>
      <trkpt lat="46.404517" lon="14.732500">
        <ele>2018.0808</ele>
        <time>2010-09-21T10:05:08Z</time>
      </trkpt>
      <trkpt lat="46.404448" lon="14.732543">
        <ele>2014.1184</ele>
        <time>2010-09-21T10:05:13Z</time>
      </trkpt>
      <trkpt lat="46.404372" lon="14.732575">
        <ele>2011.0704</ele>
        <time>2010-09-21T10:05:20Z</time>
      </trkpt>
      <trkpt lat="46.404297" lon="14.732602">
        <ele>2009.8512</ele>
        <time>2010-09-21T10:05:25Z</time>
      </trkpt>
      <trkpt lat="46.404228" lon="14.732671">
        <ele>2008.9368</ele>
        <time>2010-09-21T10:05:32Z</time>
      </trkpt>
      <trkpt lat="46.404195" lon="14.732720">
        <ele>2005.8888</ele>
        <time>2010-09-21T10:05:38Z</time>
      </trkpt>
      <trkpt lat="46.404158" lon="14.732773">
        <ele>2003.1456</ele>
        <time>2010-09-21T10:05:43Z</time>
      </trkpt>
      <trkpt lat="46.404104" lon="14.732805">
        <ele>2001.9264</ele>
        <time>2010-09-21T10:05:50Z</time>
      </trkpt>
      <trkpt lat="46.404056" lon="14.732816">
        <ele>1998.8784</ele>
        <time>2010-09-21T10:05:55Z</time>
      </trkpt>
      <trkpt lat="46.404034" lon="14.732838">
        <ele>1994.916</ele>
        <time>2010-09-21T10:06:02Z</time>
      </trkpt>
      <trkpt lat="46.404018" lon="14.732902">
        <ele>1994.0016</ele>
        <time>2010-09-21T10:06:07Z</time>
      </trkpt>
      <trkpt lat="46.403986" lon="14.732950">
        <ele>1991.868</ele>
        <time>2010-09-21T10:06:14Z</time>
      </trkpt>
      <trkpt lat="46.403975" lon="14.733004">
        <ele>1990.0392</ele>
        <time>2010-09-21T10:06:19Z</time>
      </trkpt>
      <trkpt lat="46.403959" lon="14.733058">
        <ele>1987.9056</ele>
        <time>2010-09-21T10:06:26Z</time>
      </trkpt>
      <trkpt lat="46.403943" lon="14.733058">
        <ele>1986.0768</ele>
        <time>2010-09-21T10:06:32Z</time>
      </trkpt>
      <trkpt lat="46.403906" lon="14.733079">
        <ele>1984.8576</ele>
        <time>2010-09-21T10:06:37Z</time>
      </trkpt>
      <trkpt lat="46.403884" lon="14.733143">
        <ele>1983.0288</ele>
        <time>2010-09-21T10:06:44Z</time>
      </trkpt>
      <trkpt lat="46.403836" lon="14.733197">
        <ele>1979.9808</ele>
        <time>2010-09-21T10:06:49Z</time>
      </trkpt>
      <trkpt lat="46.403793" lon="14.733229">
        <ele>1979.0664</ele>
        <time>2010-09-21T10:06:56Z</time>
      </trkpt>
      <trkpt lat="46.403798" lon="14.733240">
        <ele>1979.0664</ele>
        <time>2010-09-21T10:07:01Z</time>
      </trkpt>
      <trkpt lat="46.403782" lon="14.733245">
        <ele>1978.152</ele>
        <time>2010-09-21T10:07:08Z</time>
      </trkpt>
      <trkpt lat="46.403772" lon="14.733294">
        <ele>1976.9328</ele>
        <time>2010-09-21T10:07:13Z</time>
      </trkpt>
      <trkpt lat="46.403772" lon="14.733401">
        <ele>1976.0184</ele>
        <time>2010-09-21T10:07:20Z</time>
      </trkpt>
      <trkpt lat="46.403734" lon="14.733487">
        <ele>1975.104</ele>
        <time>2010-09-21T10:07:26Z</time>
      </trkpt>
      <trkpt lat="46.403729" lon="14.733535">
        <ele>1973.8848</ele>
        <time>2010-09-21T10:07:31Z</time>
      </trkpt>
      <trkpt lat="46.403723" lon="14.733562">
        <ele>1972.9704</ele>
        <time>2010-09-21T10:07:38Z</time>
      </trkpt>
      <trkpt lat="46.403680" lon="14.733589">
        <ele>1972.9704</ele>
        <time>2010-09-21T10:07:43Z</time>
      </trkpt>
      <trkpt lat="46.403654" lon="14.733669">
        <ele>1972.056</ele>
        <time>2010-09-21T10:07:50Z</time>
      </trkpt>
      <trkpt lat="46.403611" lon="14.733728">
        <ele>1972.056</ele>
        <time>2010-09-21T10:07:55Z</time>
      </trkpt>
      <trkpt lat="46.403552" lon="14.733782">
        <ele>1969.9224</ele>
        <time>2010-09-21T10:08:02Z</time>
      </trkpt>
      <trkpt lat="46.403471" lon="14.733814">
        <ele>1969.008</ele>
        <time>2010-09-21T10:08:07Z</time>
      </trkpt>
      <trkpt lat="46.403401" lon="14.733814">
        <ele>1962.912</ele>
        <time>2010-09-21T10:08:14Z</time>
      </trkpt>
      <trkpt lat="46.403332" lon="14.733755">
        <ele>1958.9496</ele>
        <time>2010-09-21T10:08:20Z</time>
      </trkpt>
      <trkpt lat="46.403267" lon="14.733744">
        <ele>1958.0352</ele>
        <time>2010-09-21T10:08:25Z</time>
      </trkpt>
      <trkpt lat="46.403219" lon="14.733798">
        <ele>1955.9016</ele>
        <time>2010-09-21T10:08:32Z</time>
      </trkpt>
      <trkpt lat="46.403192" lon="14.733868">
        <ele>1952.8536</ele>
        <time>2010-09-21T10:08:37Z</time>
      </trkpt>
      <trkpt lat="46.403139" lon="14.733921">
        <ele>1951.9392</ele>
        <time>2010-09-21T10:08:44Z</time>
      </trkpt>
      <trkpt lat="46.403080" lon="14.733959">
        <ele>1950.1104</ele>
        <time>2010-09-21T10:08:49Z</time>
      </trkpt>
      <trkpt lat="46.403031" lon="14.733953">
        <ele>1947.0624</ele>
        <time>2010-09-21T10:08:56Z</time>
      </trkpt>
      <trkpt lat="46.402988" lon="14.733975">
        <ele>1943.1</ele>
        <time>2010-09-21T10:09:01Z</time>
      </trkpt>
      <trkpt lat="46.402956" lon="14.733996">
        <ele>1941.8808</ele>
        <time>2010-09-21T10:09:08Z</time>
      </trkpt>
      <trkpt lat="46.402940" lon="14.733996">
        <ele>1940.052</ele>
        <time>2010-09-21T10:09:14Z</time>
      </trkpt>
      <trkpt lat="46.402897" lon="14.734023">
        <ele>1937.004</ele>
        <time>2010-09-21T10:09:19Z</time>
      </trkpt>
      <trkpt lat="46.402822" lon="14.734002">
        <ele>1932.1272</ele>
        <time>2010-09-21T10:09:26Z</time>
      </trkpt>
      <trkpt lat="46.402752" lon="14.733986">
        <ele>1932.1272</ele>
        <time>2010-09-21T10:09:31Z</time>
      </trkpt>
      <trkpt lat="46.402688" lon="14.734023">
        <ele>1930.908</ele>
        <time>2010-09-21T10:09:38Z</time>
      </trkpt>
      <trkpt lat="46.402656" lon="14.734071">
        <ele>1929.0792</ele>
        <time>2010-09-21T10:09:43Z</time>
      </trkpt>
      <trkpt lat="46.402602" lon="14.734114">
        <ele>1926.0312</ele>
        <time>2010-09-21T10:09:50Z</time>
      </trkpt>
      <trkpt lat="46.402554" lon="14.734157">
        <ele>1922.0688</ele>
        <time>2010-09-21T10:09:55Z</time>
      </trkpt>
      <trkpt lat="46.402522" lon="14.734211">
        <ele>1920.8496</ele>
        <time>2010-09-21T10:10:02Z</time>
      </trkpt>
      <trkpt lat="46.402468" lon="14.734254">
        <ele>1916.8872</ele>
        <time>2010-09-21T10:10:08Z</time>
      </trkpt>
      <trkpt lat="46.402414" lon="14.734291">
        <ele>1912.9248</ele>
        <time>2010-09-21T10:10:13Z</time>
      </trkpt>
      <trkpt lat="46.402393" lon="14.734329">
        <ele>1908.048</ele>
        <time>2010-09-21T10:10:20Z</time>
      </trkpt>
      <trkpt lat="46.402323" lon="14.734367">
        <ele>1907.1336</ele>
        <time>2010-09-21T10:10:25Z</time>
      </trkpt>
      <trkpt lat="46.402313" lon="14.734377">
        <ele>1907.1336</ele>
        <time>2010-09-21T10:10:32Z</time>
      </trkpt>
      <trkpt lat="46.402270" lon="14.734372">
        <ele>1905</ele>
        <time>2010-09-21T10:10:37Z</time>
      </trkpt>
      <trkpt lat="46.402248" lon="14.734393">
        <ele>1901.0376</ele>
        <time>2010-09-21T10:10:44Z</time>
      </trkpt>
      <trkpt lat="46.402232" lon="14.734399">
        <ele>1901.0376</ele>
        <time>2010-09-21T10:10:49Z</time>
      </trkpt>
      <trkpt lat="46.402211" lon="14.734415">
        <ele>1898.904</ele>
        <time>2010-09-21T10:10:56Z</time>
      </trkpt>
      <trkpt lat="46.402157" lon="14.734431">
        <ele>1897.9896</ele>
        <time>2010-09-21T10:11:02Z</time>
      </trkpt>
      <trkpt lat="46.402103" lon="14.734393">
        <ele>1894.9416</ele>
        <time>2010-09-21T10:11:07Z</time>
      </trkpt>
      <trkpt lat="46.402076" lon="14.734431">
        <ele>1894.0272</ele>
        <time>2010-09-21T10:11:14Z</time>
      </trkpt>
      <trkpt lat="46.402028" lon="14.734474">
        <ele>1893.1128</ele>
        <time>2010-09-21T10:11:19Z</time>
      </trkpt>
      <trkpt lat="46.401996" lon="14.734511">
        <ele>1893.1128</ele>
        <time>2010-09-21T10:11:26Z</time>
      </trkpt>
      <trkpt lat="46.401964" lon="14.734554">
        <ele>1890.0648</ele>
        <time>2010-09-21T10:11:31Z</time>
      </trkpt>
      <trkpt lat="46.401926" lon="14.734544">
        <ele>1890.0648</ele>
        <time>2010-09-21T10:11:38Z</time>
      </trkpt>
      <trkpt lat="46.401905" lon="14.734576">
        <ele>1887.0168</ele>
        <time>2010-09-21T10:11:43Z</time>
      </trkpt>
      <trkpt lat="46.401873" lon="14.734619">
        <ele>1883.9688</ele>
        <time>2010-09-21T10:11:50Z</time>
      </trkpt>
      <trkpt lat="46.401835" lon="14.734651">
        <ele>1883.0544</ele>
        <time>2010-09-21T10:11:56Z</time>
      </trkpt>
      <trkpt lat="46.401803" lon="14.734699">
        <ele>1879.092</ele>
        <time>2010-09-21T10:12:01Z</time>
      </trkpt>
      <trkpt lat="46.401771" lon="14.734742">
        <ele>1877.8728</ele>
        <time>2010-09-21T10:12:08Z</time>
      </trkpt>
      <trkpt lat="46.401776" lon="14.734769">
        <ele>1876.9584</ele>
        <time>2010-09-21T10:12:13Z</time>
      </trkpt>
      <trkpt lat="46.401776" lon="14.734780">
        <ele>1876.9584</ele>
        <time>2010-09-21T10:12:20Z</time>
      </trkpt>
      <trkpt lat="46.401744" lon="14.734801">
        <ele>1876.044</ele>
        <time>2010-09-21T10:12:25Z</time>
      </trkpt>
      <trkpt lat="46.401690" lon="14.734817">
        <ele>1872.996</ele>
        <time>2010-09-21T10:12:32Z</time>
      </trkpt>
      <trkpt lat="46.401663" lon="14.734844">
        <ele>1872.996</ele>
        <time>2010-09-21T10:12:37Z</time>
      </trkpt>
      <trkpt lat="46.401615" lon="14.734903">
        <ele>1872.996</ele>
        <time>2010-09-21T10:12:44Z</time>
      </trkpt>
      <trkpt lat="46.401572" lon="14.734962">
        <ele>1869.0336</ele>
        <time>2010-09-21T10:12:50Z</time>
      </trkpt>
      <trkpt lat="46.401540" lon="14.734946">
        <ele>1866.9</ele>
        <time>2010-09-21T10:12:55Z</time>
      </trkpt>
      <trkpt lat="46.401492" lon="14.734935">
        <ele>1863.852</ele>
        <time>2010-09-21T10:13:02Z</time>
      </trkpt>
      <trkpt lat="46.401465" lon="14.734983">
        <ele>1863.852</ele>
        <time>2010-09-21T10:13:07Z</time>
      </trkpt>
      <trkpt lat="46.401406" lon="14.735021">
        <ele>1865.9856</ele>
        <time>2010-09-21T10:13:14Z</time>
      </trkpt>
      <trkpt lat="46.401320" lon="14.734983">
        <ele>1862.0232</ele>
        <time>2010-09-21T10:13:19Z</time>
      </trkpt>
      <trkpt lat="46.401256" lon="14.734957">
        <ele>1859.8896</ele>
        <time>2010-09-21T10:13:26Z</time>
      </trkpt>
      <trkpt lat="46.401197" lon="14.734946">
        <ele>1857.1464</ele>
        <time>2010-09-21T10:13:31Z</time>
      </trkpt>
      <trkpt lat="46.401159" lon="14.734962">
        <ele>1855.9272</ele>
        <time>2010-09-21T10:13:38Z</time>
      </trkpt>
      <trkpt lat="46.401095" lon="14.735000">
        <ele>1851.9648</ele>
        <time>2010-09-21T10:13:44Z</time>
      </trkpt>
      <trkpt lat="46.401063" lon="14.735021">
        <ele>1852.8792</ele>
        <time>2010-09-21T10:13:49Z</time>
      </trkpt>
      <trkpt lat="46.401057" lon="14.735021">
        <ele>1852.8792</ele>
        <time>2010-09-21T10:13:56Z</time>
      </trkpt>
      <trkpt lat="46.401052" lon="14.735021">
        <ele>1852.8792</ele>
        <time>2010-09-21T10:14:01Z</time>
      </trkpt>
      <trkpt lat="46.401041" lon="14.735032">
        <ele>1852.8792</ele>
        <time>2010-09-21T10:14:08Z</time>
      </trkpt>
      <trkpt lat="46.401004" lon="14.735080">
        <ele>1851.9648</ele>
        <time>2010-09-21T10:14:13Z</time>
      </trkpt>
      <trkpt lat="46.400950" lon="14.735134">
        <ele>1851.9648</ele>
        <time>2010-09-21T10:14:20Z</time>
      </trkpt>
      <trkpt lat="46.400907" lon="14.735171">
        <ele>1848.9168</ele>
        <time>2010-09-21T10:14:25Z</time>
      </trkpt>
      <trkpt lat="46.400859" lon="14.735209">
        <ele>1848.0024</ele>
        <time>2010-09-21T10:14:32Z</time>
      </trkpt>
      <trkpt lat="46.400853" lon="14.735225">
        <ele>1841.9064</ele>
        <time>2010-09-21T10:14:38Z</time>
      </trkpt>
      <trkpt lat="46.400810" lon="14.735252">
        <ele>1840.992</ele>
        <time>2010-09-21T10:14:43Z</time>
      </trkpt>
      <trkpt lat="46.400784" lon="14.735252">
        <ele>1838.8584</ele>
        <time>2010-09-21T10:14:50Z</time>
      </trkpt>
      <trkpt lat="46.400773" lon="14.735246">
        <ele>1837.944</ele>
        <time>2010-09-21T10:14:55Z</time>
      </trkpt>
      <trkpt lat="46.400746" lon="14.735246">
        <ele>1836.1152</ele>
        <time>2010-09-21T10:15:02Z</time>
      </trkpt>
      <trkpt lat="46.400682" lon="14.735262">
        <ele>1836.1152</ele>
        <time>2010-09-21T10:15:07Z</time>
      </trkpt>
      <trkpt lat="46.400660" lon="14.735257">
        <ele>1834.896</ele>
        <time>2010-09-21T10:15:14Z</time>
      </trkpt>
      <trkpt lat="46.400596" lon="14.735241">
        <ele>1834.896</ele>
        <time>2010-09-21T10:15:19Z</time>
      </trkpt>
      <trkpt lat="46.400521" lon="14.735241">
        <ele>1833.9816</ele>
        <time>2010-09-21T10:15:26Z</time>
      </trkpt>
      <trkpt lat="46.400467" lon="14.735273">
        <ele>1833.9816</ele>
        <time>2010-09-21T10:15:32Z</time>
      </trkpt>
      <trkpt lat="46.400414" lon="14.735311">
        <ele>1831.848</ele>
        <time>2010-09-21T10:15:37Z</time>
      </trkpt>
      <trkpt lat="46.400322" lon="14.735359">
        <ele>1830.0192</ele>
        <time>2010-09-21T10:15:44Z</time>
      </trkpt>
      <trkpt lat="46.400279" lon="14.735343">
        <ele>1829.1048</ele>
        <time>2010-09-21T10:15:49Z</time>
      </trkpt>
      <trkpt lat="46.400231" lon="14.735402">
        <ele>1827.8856</ele>
        <time>2010-09-21T10:15:56Z</time>
      </trkpt>
      <trkpt lat="46.400183" lon="14.735418">
        <ele>1826.9712</ele>
        <time>2010-09-21T10:16:01Z</time>
      </trkpt>
      <trkpt lat="46.400124" lon="14.735354">
        <ele>1823.9232</ele>
        <time>2010-09-21T10:16:08Z</time>
      </trkpt>
      <trkpt lat="46.400102" lon="14.735316">
        <ele>1822.0944</ele>
        <time>2010-09-21T10:16:13Z</time>
      </trkpt>
      <trkpt lat="46.400113" lon="14.735321">
        <ele>1822.0944</ele>
        <time>2010-09-21T10:16:20Z</time>
      </trkpt>
      <trkpt lat="46.400113" lon="14.735327">
        <ele>1823.0088</ele>
        <time>2010-09-21T10:16:26Z</time>
      </trkpt>
      <trkpt lat="46.400118" lon="14.735316">
        <ele>1823.0088</ele>
        <time>2010-09-21T10:16:31Z</time>
      </trkpt>
      <trkpt lat="46.400113" lon="14.735327">
        <ele>1823.0088</ele>
        <time>2010-09-21T10:16:38Z</time>
      </trkpt>
      <trkpt lat="46.400113" lon="14.735327">
        <ele>1823.0088</ele>
        <time>2010-09-21T10:16:43Z</time>
      </trkpt>
      <trkpt lat="46.400113" lon="14.735327">
        <ele>1820.8752</ele>
        <time>2010-09-21T10:16:50Z</time>
      </trkpt>
      <trkpt lat="46.400129" lon="14.735354">
        <ele>1822.0944</ele>
        <time>2010-09-21T10:16:55Z</time>
      </trkpt>
      <trkpt lat="46.400129" lon="14.735397">
        <ele>1820.8752</ele>
        <time>2010-09-21T10:17:02Z</time>
      </trkpt>
      <trkpt lat="46.400113" lon="14.735439">
        <ele>1819.9608</ele>
        <time>2010-09-21T10:17:07Z</time>
      </trkpt>
      <trkpt lat="46.400054" lon="14.735472">
        <ele>1818.132</ele>
        <time>2010-09-21T10:17:14Z</time>
      </trkpt>
      <trkpt lat="46.399931" lon="14.735498">
        <ele>1819.9608</ele>
        <time>2010-09-21T10:17:20Z</time>
      </trkpt>
      <trkpt lat="46.399899" lon="14.735557">
        <ele>1818.132</ele>
        <time>2010-09-21T10:17:25Z</time>
      </trkpt>
      <trkpt lat="46.399904" lon="14.735579">
        <ele>1815.9984</ele>
        <time>2010-09-21T10:17:32Z</time>
      </trkpt>
      <trkpt lat="46.399899" lon="14.735590">
        <ele>1815.084</ele>
        <time>2010-09-21T10:17:37Z</time>
      </trkpt>
      <trkpt lat="46.399866" lon="14.735584">
        <ele>1813.8648</ele>
        <time>2010-09-21T10:17:44Z</time>
      </trkpt>
      <trkpt lat="46.399861" lon="14.735579">
        <ele>1812.9504</ele>
        <time>2010-09-21T10:17:49Z</time>
      </trkpt>
      <trkpt lat="46.399861" lon="14.735574">
        <ele>1812.9504</ele>
        <time>2010-09-21T10:17:56Z</time>
      </trkpt>
      <trkpt lat="46.399861" lon="14.735627">
        <ele>1812.036</ele>
        <time>2010-09-21T10:18:01Z</time>
      </trkpt>
      <trkpt lat="46.399845" lon="14.735665">
        <ele>1811.1216</ele>
        <time>2010-09-21T10:18:08Z</time>
      </trkpt>
      <trkpt lat="46.399802" lon="14.735724">
        <ele>1808.988</ele>
        <time>2010-09-21T10:18:14Z</time>
      </trkpt>
      <trkpt lat="46.399764" lon="14.735745">
        <ele>1805.94</ele>
        <time>2010-09-21T10:18:19Z</time>
      </trkpt>
      <trkpt lat="46.399743" lon="14.735745">
        <ele>1805.0256</ele>
        <time>2010-09-21T10:18:26Z</time>
      </trkpt>
      <trkpt lat="46.399748" lon="14.735745">
        <ele>1805.0256</ele>
        <time>2010-09-21T10:18:31Z</time>
      </trkpt>
      <trkpt lat="46.399748" lon="14.735745">
        <ele>1804.1112</ele>
        <time>2010-09-21T10:18:38Z</time>
      </trkpt>
      <trkpt lat="46.399743" lon="14.735751">
        <ele>1804.1112</ele>
        <time>2010-09-21T10:18:43Z</time>
      </trkpt>
      <trkpt lat="46.399738" lon="14.735756">
        <ele>1802.892</ele>
        <time>2010-09-21T10:18:50Z</time>
      </trkpt>
      <trkpt lat="46.399738" lon="14.735756">
        <ele>1802.892</ele>
        <time>2010-09-21T10:18:55Z</time>
      </trkpt>
      <trkpt lat="46.399738" lon="14.735756">
        <ele>1802.892</ele>
        <time>2010-09-21T10:19:02Z</time>
      </trkpt>
      <trkpt lat="46.399738" lon="14.735804">
        <ele>1801.0632</ele>
        <time>2010-09-21T10:19:08Z</time>
      </trkpt>
      <trkpt lat="46.399716" lon="14.735836">
        <ele>1800.1488</ele>
        <time>2010-09-21T10:19:13Z</time>
      </trkpt>
      <trkpt lat="46.399700" lon="14.735917">
        <ele>1800.1488</ele>
        <time>2010-09-21T10:19:20Z</time>
      </trkpt>
      <trkpt lat="46.399657" lon="14.735933">
        <ele>1798.9296</ele>
        <time>2010-09-21T10:19:25Z</time>
      </trkpt>
      <trkpt lat="46.399625" lon="14.736003">
        <ele>1797.1008</ele>
        <time>2010-09-21T10:19:32Z</time>
      </trkpt>
      <trkpt lat="46.399603" lon="14.736078">
        <ele>1791.9192</ele>
        <time>2010-09-21T10:19:37Z</time>
      </trkpt>
      <trkpt lat="46.399614" lon="14.736115">
        <ele>1791.0048</ele>
        <time>2010-09-21T10:19:44Z</time>
      </trkpt>
      <trkpt lat="46.399630" lon="14.736201">
        <ele>1790.0904</ele>
        <time>2010-09-21T10:19:49Z</time>
      </trkpt>
      <trkpt lat="46.399668" lon="14.736239">
        <ele>1787.9568</ele>
        <time>2010-09-21T10:19:56Z</time>
      </trkpt>
      <trkpt lat="46.399711" lon="14.736287">
        <ele>1786.128</ele>
        <time>2010-09-21T10:20:02Z</time>
      </trkpt>
      <trkpt lat="46.399786" lon="14.736389">
        <ele>1776.0696</ele>
        <time>2010-09-21T10:20:07Z</time>
      </trkpt>
      <trkpt lat="46.399823" lon="14.736443">
        <ele>1773.0216</ele>
        <time>2010-09-21T10:20:14Z</time>
      </trkpt>
      <trkpt lat="46.399840" lon="14.736485">
        <ele>1770.888</ele>
        <time>2010-09-21T10:20:19Z</time>
      </trkpt>
      <trkpt lat="46.399920" lon="14.736534">
        <ele>1765.0968</ele>
        <time>2010-09-21T10:20:26Z</time>
      </trkpt>
      <trkpt lat="46.399963" lon="14.736577">
        <ele>1766.0112</ele>
        <time>2010-09-21T10:20:31Z</time>
      </trkpt>
      <trkpt lat="46.400000" lon="14.736636">
        <ele>1769.0592</ele>
        <time>2010-09-21T10:20:38Z</time>
      </trkpt>
      <trkpt lat="46.400059" lon="14.736700">
        <ele>1766.9256</ele>
        <time>2010-09-21T10:20:43Z</time>
      </trkpt>
      <trkpt lat="46.400102" lon="14.736759">
        <ele>1765.0968</ele>
        <time>2010-09-21T10:20:50Z</time>
      </trkpt>
      <trkpt lat="46.400161" lon="14.736856">
        <ele>1763.8776</ele>
        <time>2010-09-21T10:20:56Z</time>
      </trkpt>
      <trkpt lat="46.400194" lon="14.736909">
        <ele>1763.8776</ele>
        <time>2010-09-21T10:21:01Z</time>
      </trkpt>
      <trkpt lat="46.400242" lon="14.736974">
        <ele>1763.8776</ele>
        <time>2010-09-21T10:21:08Z</time>
      </trkpt>
      <trkpt lat="46.400279" lon="14.737027">
        <ele>1762.0488</ele>
        <time>2010-09-21T10:21:13Z</time>
      </trkpt>
      <trkpt lat="46.400328" lon="14.737070">
        <ele>1762.9632</ele>
        <time>2010-09-21T10:21:20Z</time>
      </trkpt>
      <trkpt lat="46.400349" lon="14.737145">
        <ele>1762.9632</ele>
        <time>2010-09-21T10:21:25Z</time>
      </trkpt>
      <trkpt lat="46.400387" lon="14.737161">
        <ele>1766.9256</ele>
        <time>2010-09-21T10:21:32Z</time>
      </trkpt>
      <trkpt lat="46.400414" lon="14.737194">
        <ele>1763.8776</ele>
        <time>2010-09-21T10:21:37Z</time>
      </trkpt>
      <trkpt lat="46.400440" lon="14.737263">
        <ele>1763.8776</ele>
        <time>2010-09-21T10:21:44Z</time>
      </trkpt>
      <trkpt lat="46.400467" lon="14.737360">
        <ele>1766.9256</ele>
        <time>2010-09-21T10:21:50Z</time>
      </trkpt>
      <trkpt lat="46.400521" lon="14.737387">
        <ele>1769.0592</ele>
        <time>2010-09-21T10:21:55Z</time>
      </trkpt>
      <trkpt lat="46.400553" lon="14.737408">
        <ele>1769.9736</ele>
        <time>2010-09-21T10:22:02Z</time>
      </trkpt>
      <trkpt lat="46.400607" lon="14.737430">
        <ele>1769.0592</ele>
        <time>2010-09-21T10:22:07Z</time>
      </trkpt>
      <trkpt lat="46.400655" lon="14.737462">
        <ele>1769.0592</ele>
        <time>2010-09-21T10:22:14Z</time>
      </trkpt>
      <trkpt lat="46.400676" lon="14.737532">
        <ele>1770.888</ele>
        <time>2010-09-21T10:22:19Z</time>
      </trkpt>
      <trkpt lat="46.400719" lon="14.737612">
        <ele>1769.0592</ele>
        <time>2010-09-21T10:22:26Z</time>
      </trkpt>
      <trkpt lat="46.400757" lon="14.737676">
        <ele>1766.9256</ele>
        <time>2010-09-21T10:22:31Z</time>
      </trkpt>
      <trkpt lat="46.400805" lon="14.737709">
        <ele>1768.1448</ele>
        <time>2010-09-21T10:22:38Z</time>
      </trkpt>
      <trkpt lat="46.400832" lon="14.737746">
        <ele>1766.9256</ele>
        <time>2010-09-21T10:22:44Z</time>
      </trkpt>
      <trkpt lat="46.400864" lon="14.737827">
        <ele>1766.9256</ele>
        <time>2010-09-21T10:22:49Z</time>
      </trkpt>
      <trkpt lat="46.400902" lon="14.737891">
        <ele>1766.9256</ele>
        <time>2010-09-21T10:22:56Z</time>
      </trkpt>
      <trkpt lat="46.400928" lon="14.737961">
        <ele>1766.9256</ele>
        <time>2010-09-21T10:23:01Z</time>
      </trkpt>
      <trkpt lat="46.400934" lon="14.738041">
        <ele>1766.0112</ele>
        <time>2010-09-21T10:23:08Z</time>
      </trkpt>
      <trkpt lat="46.400982" lon="14.738089">
        <ele>1765.0968</ele>
        <time>2010-09-21T10:23:13Z</time>
      </trkpt>
      <trkpt lat="46.400998" lon="14.738154">
        <ele>1763.8776</ele>
        <time>2010-09-21T10:23:20Z</time>
      </trkpt>
      <trkpt lat="46.401014" lon="14.738218">
        <ele>1761.1344</ele>
        <time>2010-09-21T10:23:25Z</time>
      </trkpt>
      <trkpt lat="46.401047" lon="14.738299">
        <ele>1761.1344</ele>
        <time>2010-09-21T10:23:32Z</time>
      </trkpt>
      <trkpt lat="46.401030" lon="14.738411">
        <ele>1768.1448</ele>
        <time>2010-09-21T10:23:38Z</time>
      </trkpt>
      <trkpt lat="46.401030" lon="14.738508">
        <ele>1773.0216</ele>
        <time>2010-09-21T10:23:43Z</time>
      </trkpt>
      <trkpt lat="46.401036" lon="14.738583">
        <ele>1769.9736</ele>
        <time>2010-09-21T10:23:50Z</time>
      </trkpt>
      <trkpt lat="46.401100" lon="14.738669">
        <ele>1758.0864</ele>
        <time>2010-09-21T10:23:55Z</time>
      </trkpt>
      <trkpt lat="46.401122" lon="14.738781">
        <ele>1744.98</ele>
        <time>2010-09-21T10:24:02Z</time>
      </trkpt>
      <trkpt lat="46.401122" lon="14.738840">
        <ele>1744.0656</ele>
        <time>2010-09-21T10:24:07Z</time>
      </trkpt>
      <trkpt lat="46.401122" lon="14.738889">
        <ele>1744.98</ele>
        <time>2010-09-21T10:24:14Z</time>
      </trkpt>
      <trkpt lat="46.401143" lon="14.738937">
        <ele>1741.0176</ele>
        <time>2010-09-21T10:24:19Z</time>
      </trkpt>
      <trkpt lat="46.401143" lon="14.738948">
        <ele>1740.1032</ele>
        <time>2010-09-21T10:24:26Z</time>
      </trkpt>
      <trkpt lat="46.401095" lon="14.739060">
        <ele>1751.076</ele>
        <time>2010-09-21T10:24:32Z</time>
      </trkpt>
      <trkpt lat="46.401127" lon="14.739189">
        <ele>1744.98</ele>
        <time>2010-09-21T10:24:37Z</time>
      </trkpt>
      <trkpt lat="46.401132" lon="14.739259">
        <ele>1737.9696</ele>
        <time>2010-09-21T10:24:44Z</time>
      </trkpt>
      <trkpt lat="46.401148" lon="14.739323">
        <ele>1734.9216</ele>
        <time>2010-09-21T10:24:49Z</time>
      </trkpt>
      <trkpt lat="46.401143" lon="14.739398">
        <ele>1736.1408</ele>
        <time>2010-09-21T10:24:56Z</time>
      </trkpt>
      <trkpt lat="46.401138" lon="14.739506">
        <ele>1734.0072</ele>
        <time>2010-09-21T10:25:01Z</time>
      </trkpt>
      <trkpt lat="46.401154" lon="14.739570">
        <ele>1736.1408</ele>
        <time>2010-09-21T10:25:08Z</time>
      </trkpt>
      <trkpt lat="46.401138" lon="14.739645">
        <ele>1737.9696</ele>
        <time>2010-09-21T10:25:13Z</time>
      </trkpt>
      <trkpt lat="46.401165" lon="14.739736">
        <ele>1736.1408</ele>
        <time>2010-09-21T10:25:20Z</time>
      </trkpt>
      <trkpt lat="46.401154" lon="14.739806">
        <ele>1737.9696</ele>
        <time>2010-09-21T10:25:26Z</time>
      </trkpt>
      <trkpt lat="46.401175" lon="14.739844">
        <ele>1734.9216</ele>
        <time>2010-09-21T10:25:31Z</time>
      </trkpt>
      <trkpt lat="46.401191" lon="14.739929">
        <ele>1736.1408</ele>
        <time>2010-09-21T10:25:38Z</time>
      </trkpt>
      <trkpt lat="46.401213" lon="14.739994">
        <ele>1741.0176</ele>
        <time>2010-09-21T10:25:43Z</time>
      </trkpt>
      <trkpt lat="46.401250" lon="14.740074">
        <ele>1737.0552</ele>
        <time>2010-09-21T10:25:50Z</time>
      </trkpt>
      <trkpt lat="46.401256" lon="14.740139">
        <ele>1740.1032</ele>
        <time>2010-09-21T10:25:55Z</time>
      </trkpt>
      <trkpt lat="46.401283" lon="14.740155">
        <ele>1740.1032</ele>
        <time>2010-09-21T10:26:02Z</time>
      </trkpt>
      <trkpt lat="46.401390" lon="14.740262">
        <ele>1730.9592</ele>
        <time>2010-09-21T10:26:07Z</time>
      </trkpt>
      <trkpt lat="46.401411" lon="14.740359">
        <ele>1729.1304</ele>
        <time>2010-09-21T10:26:14Z</time>
      </trkpt>
      <trkpt lat="46.401454" lon="14.740439">
        <ele>1730.9592</ele>
        <time>2010-09-21T10:26:20Z</time>
      </trkpt>
      <trkpt lat="46.401476" lon="14.740600">
        <ele>1729.1304</ele>
        <time>2010-09-21T10:26:25Z</time>
      </trkpt>
      <trkpt lat="46.401513" lon="14.740675">
        <ele>1724.8632</ele>
        <time>2010-09-21T10:26:32Z</time>
      </trkpt>
      <trkpt lat="46.401561" lon="14.740750">
        <ele>1723.9488</ele>
        <time>2010-09-21T10:26:37Z</time>
      </trkpt>
      <trkpt lat="46.401599" lon="14.740798">
        <ele>1722.12</ele>
        <time>2010-09-21T10:26:44Z</time>
      </trkpt>
      <trkpt lat="46.401599" lon="14.740895">
        <ele>1720.9008</ele>
        <time>2010-09-21T10:26:49Z</time>
      </trkpt>
      <trkpt lat="46.401588" lon="14.740927">
        <ele>1719.072</ele>
        <time>2010-09-21T10:26:56Z</time>
      </trkpt>
      <trkpt lat="46.401583" lon="14.740949">
        <ele>1717.8528</ele>
        <time>2010-09-21T10:27:01Z</time>
      </trkpt>
      <trkpt lat="46.401594" lon="14.740975">
        <ele>1717.8528</ele>
        <time>2010-09-21T10:27:08Z</time>
      </trkpt>
      <trkpt lat="46.401567" lon="14.741008">
        <ele>1717.8528</ele>
        <time>2010-09-21T10:27:14Z</time>
      </trkpt>
      <trkpt lat="46.401572" lon="14.741002">
        <ele>1717.8528</ele>
        <time>2010-09-21T10:27:19Z</time>
      </trkpt>
      <trkpt lat="46.401567" lon="14.741051">
        <ele>1716.024</ele>
        <time>2010-09-21T10:27:26Z</time>
      </trkpt>
      <trkpt lat="46.401583" lon="14.741045">
        <ele>1716.024</ele>
        <time>2010-09-21T10:27:31Z</time>
      </trkpt>
      <trkpt lat="46.401583" lon="14.741045">
        <ele>1716.024</ele>
        <time>2010-09-21T10:27:38Z</time>
      </trkpt>
      <trkpt lat="46.401583" lon="14.741045">
        <ele>1716.024</ele>
        <time>2010-09-21T10:27:43Z</time>
      </trkpt>
      <trkpt lat="46.401583" lon="14.741045">
        <ele>1716.024</ele>
        <time>2010-09-21T10:27:50Z</time>
      </trkpt>
      <trkpt lat="46.401588" lon="14.741045">
        <ele>1716.024</ele>
        <time>2010-09-21T10:27:55Z</time>
      </trkpt>
      <trkpt lat="46.401588" lon="14.741045">
        <ele>1716.024</ele>
        <time>2010-09-21T10:28:02Z</time>
      </trkpt>
      <trkpt lat="46.401588" lon="14.741045">
        <ele>1716.024</ele>
        <time>2010-09-21T10:28:08Z</time>
      </trkpt>
      <trkpt lat="46.401588" lon="14.741045">
        <ele>1716.024</ele>
        <time>2010-09-21T10:28:13Z</time>
      </trkpt>
      <trkpt lat="46.401588" lon="14.741045">
        <ele>1716.024</ele>
        <time>2010-09-21T10:28:20Z</time>
      </trkpt>
      <trkpt lat="46.401588" lon="14.741045">
        <ele>1716.024</ele>
        <time>2010-09-21T10:28:25Z</time>
      </trkpt>
      <trkpt lat="46.401588" lon="14.741045">
        <ele>1716.024</ele>
        <time>2010-09-21T10:28:32Z</time>
      </trkpt>
      <trkpt lat="46.401594" lon="14.741061">
        <ele>1716.9384</ele>
        <time>2010-09-21T10:28:37Z</time>
      </trkpt>
      <trkpt lat="46.401588" lon="14.741051">
        <ele>1713.8904</ele>
        <time>2010-09-21T10:28:44Z</time>
      </trkpt>
      <trkpt lat="46.401588" lon="14.741051">
        <ele>1715.1096</ele>
        <time>2010-09-21T10:28:49Z</time>
      </trkpt>
      <trkpt lat="46.401588" lon="14.741051">
        <ele>1712.976</ele>
        <time>2010-09-21T10:28:56Z</time>
      </trkpt>
      <trkpt lat="46.401588" lon="14.741051">
        <ele>1712.976</ele>
        <time>2010-09-21T10:29:02Z</time>
      </trkpt>
      <trkpt lat="46.401588" lon="14.741051">
        <ele>1712.976</ele>
        <time>2010-09-21T10:29:07Z</time>
      </trkpt>
      <trkpt lat="46.401588" lon="14.741051">
        <ele>1712.976</ele>
        <time>2010-09-21T10:29:14Z</time>
      </trkpt>
      <trkpt lat="46.401588" lon="14.741051">
        <ele>1712.976</ele>
        <time>2010-09-21T10:29:19Z</time>
      </trkpt>
      <trkpt lat="46.401594" lon="14.741056">
        <ele>1712.0616</ele>
        <time>2010-09-21T10:29:26Z</time>
      </trkpt>
      <trkpt lat="46.401599" lon="14.741067">
        <ele>1712.0616</ele>
        <time>2010-09-21T10:29:31Z</time>
      </trkpt>
      <trkpt lat="46.401604" lon="14.741072">
        <ele>1711.1472</ele>
        <time>2010-09-21T10:29:38Z</time>
      </trkpt>
      <trkpt lat="46.401615" lon="14.741110">
        <ele>1709.0136</ele>
        <time>2010-09-21T10:29:43Z</time>
      </trkpt>
      <trkpt lat="46.401594" lon="14.741169">
        <ele>1711.1472</ele>
        <time>2010-09-21T10:29:50Z</time>
      </trkpt>
      <trkpt lat="46.401583" lon="14.741169">
        <ele>1711.1472</ele>
        <time>2010-09-21T10:29:56Z</time>
      </trkpt>
      <trkpt lat="46.401578" lon="14.741195">
        <ele>1712.976</ele>
        <time>2010-09-21T10:30:01Z</time>
      </trkpt>
      <trkpt lat="46.401551" lon="14.741276">
        <ele>1712.0616</ele>
        <time>2010-09-21T10:30:08Z</time>
      </trkpt>
      <trkpt lat="46.401561" lon="14.741319">
        <ele>1711.1472</ele>
        <time>2010-09-21T10:30:13Z</time>
      </trkpt>
      <trkpt lat="46.401556" lon="14.741335">
        <ele>1711.1472</ele>
        <time>2010-09-21T10:30:20Z</time>
      </trkpt>
      <trkpt lat="46.401556" lon="14.741533">
        <ele>1705.9656</ele>
        <time>2010-09-21T10:30:25Z</time>
      </trkpt>
      <trkpt lat="46.401535" lon="14.741630">
        <ele>1711.1472</ele>
        <time>2010-09-21T10:30:32Z</time>
      </trkpt>
      <trkpt lat="46.401540" lon="14.741727">
        <ele>1705.9656</ele>
        <time>2010-09-21T10:30:37Z</time>
      </trkpt>
      <trkpt lat="46.401540" lon="14.741780">
        <ele>1704.1368</ele>
        <time>2010-09-21T10:30:44Z</time>
      </trkpt>
      <trkpt lat="46.401535" lon="14.741834">
        <ele>1704.1368</ele>
        <time>2010-09-21T10:30:50Z</time>
      </trkpt>
      <trkpt lat="46.401508" lon="14.741909">
        <ele>1704.1368</ele>
        <time>2010-09-21T10:30:55Z</time>
      </trkpt>
      <trkpt lat="46.401486" lon="14.741930">
        <ele>1702.9176</ele>
        <time>2010-09-21T10:31:02Z</time>
      </trkpt>
      <trkpt lat="46.401486" lon="14.741946">
        <ele>1702.9176</ele>
        <time>2010-09-21T10:31:07Z</time>
      </trkpt>
      <trkpt lat="46.401492" lon="14.741979">
        <ele>1701.0888</ele>
        <time>2010-09-21T10:31:14Z</time>
      </trkpt>
      <trkpt lat="46.401502" lon="14.742064">
        <ele>1698.0408</ele>
        <time>2010-09-21T10:31:19Z</time>
      </trkpt>
      <trkpt lat="46.401476" lon="14.742123">
        <ele>1695.9072</ele>
        <time>2010-09-21T10:31:26Z</time>
      </trkpt>
      <trkpt lat="46.401508" lon="14.742145">
        <ele>1692.8592</ele>
        <time>2010-09-21T10:31:31Z</time>
      </trkpt>
      <trkpt lat="46.401486" lon="14.742150">
        <ele>1691.9448</ele>
        <time>2010-09-21T10:31:38Z</time>
      </trkpt>
      <trkpt lat="46.401460" lon="14.742193">
        <ele>1691.9448</ele>
        <time>2010-09-21T10:31:44Z</time>
      </trkpt>
      <trkpt lat="46.401443" lon="14.742252">
        <ele>1694.0784</ele>
        <time>2010-09-21T10:31:49Z</time>
      </trkpt>
      <trkpt lat="46.401433" lon="14.742290">
        <ele>1698.0408</ele>
        <time>2010-09-21T10:31:56Z</time>
      </trkpt>
      <trkpt lat="46.401411" lon="14.742360">
        <ele>1701.0888</ele>
        <time>2010-09-21T10:32:01Z</time>
      </trkpt>
      <trkpt lat="46.401417" lon="14.742381">
        <ele>1698.0408</ele>
        <time>2010-09-21T10:32:08Z</time>
      </trkpt>
      <trkpt lat="46.401422" lon="14.742451">
        <ele>1698.0408</ele>
        <time>2010-09-21T10:32:13Z</time>
      </trkpt>
      <trkpt lat="46.401417" lon="14.742510">
        <ele>1697.1264</ele>
        <time>2010-09-21T10:32:20Z</time>
      </trkpt>
      <trkpt lat="46.401379" lon="14.742644">
        <ele>1691.9448</ele>
        <time>2010-09-21T10:32:25Z</time>
      </trkpt>
      <trkpt lat="46.401390" lon="14.742740">
        <ele>1688.8968</ele>
        <time>2010-09-21T10:32:32Z</time>
      </trkpt>
      <trkpt lat="46.401411" lon="14.742837">
        <ele>1685.8488</ele>
        <time>2010-09-21T10:32:38Z</time>
      </trkpt>
      <trkpt lat="46.401406" lon="14.742891">
        <ele>1683.1056</ele>
        <time>2010-09-21T10:32:43Z</time>
      </trkpt>
      <trkpt lat="46.401384" lon="14.742982">
        <ele>1688.8968</ele>
        <time>2010-09-21T10:32:50Z</time>
      </trkpt>
      <trkpt lat="46.401363" lon="14.743094">
        <ele>1698.9552</ele>
        <time>2010-09-21T10:32:55Z</time>
      </trkpt>
      <trkpt lat="46.401352" lon="14.743116">
        <ele>1702.0032</ele>
        <time>2010-09-21T10:33:02Z</time>
      </trkpt>
      <trkpt lat="46.401342" lon="14.743175">
        <ele>1695.9072</ele>
        <time>2010-09-21T10:33:07Z</time>
      </trkpt>
      <trkpt lat="46.401347" lon="14.743180">
        <ele>1695.9072</ele>
        <time>2010-09-21T10:33:14Z</time>
      </trkpt>
      <trkpt lat="46.401384" lon="14.743384">
        <ele>1687.068</ele>
        <time>2010-09-21T10:33:19Z</time>
      </trkpt>
      <trkpt lat="46.401363" lon="14.743422">
        <ele>1685.8488</ele>
        <time>2010-09-21T10:33:26Z</time>
      </trkpt>
      <trkpt lat="46.401347" lon="14.743438">
        <ele>1687.068</ele>
        <time>2010-09-21T10:33:32Z</time>
      </trkpt>
      <trkpt lat="46.401325" lon="14.743481">
        <ele>1684.02</ele>
        <time>2010-09-21T10:33:37Z</time>
      </trkpt>
      <trkpt lat="46.401401" lon="14.743518">
        <ele>1669.9992</ele>
        <time>2010-09-21T10:33:44Z</time>
      </trkpt>
      <trkpt lat="46.401422" lon="14.743518">
        <ele>1667.8656</ele>
        <time>2010-09-21T10:33:49Z</time>
      </trkpt>
      <trkpt lat="46.401422" lon="14.743550">
        <ele>1666.9512</ele>
        <time>2010-09-21T10:33:56Z</time>
      </trkpt>
      <trkpt lat="46.401460" lon="14.743652">
        <ele>1652.016</ele>
        <time>2010-09-21T10:34:01Z</time>
      </trkpt>
      <trkpt lat="46.401443" lon="14.743706">
        <ele>1641.9576</ele>
        <time>2010-09-21T10:34:08Z</time>
      </trkpt>
      <trkpt lat="46.401401" lon="14.743824">
        <ele>1637.0808</ele>
        <time>2010-09-21T10:34:13Z</time>
      </trkpt>
      <trkpt lat="46.401368" lon="14.743958">
        <ele>1631.8992</ele>
        <time>2010-09-21T10:34:20Z</time>
      </trkpt>
      <trkpt lat="46.401309" lon="14.744087">
        <ele>1627.9368</ele>
        <time>2010-09-21T10:34:26Z</time>
      </trkpt>
      <trkpt lat="46.401256" lon="14.744151">
        <ele>1623.06</ele>
        <time>2010-09-21T10:34:31Z</time>
      </trkpt>
      <trkpt lat="46.401234" lon="14.744221">
        <ele>1622.1456</ele>
        <time>2010-09-21T10:34:38Z</time>
      </trkpt>
      <trkpt lat="46.401213" lon="14.744280">
        <ele>1620.012</ele>
        <time>2010-09-21T10:34:43Z</time>
      </trkpt>
      <trkpt lat="46.401224" lon="14.744269">
        <ele>1620.012</ele>
        <time>2010-09-21T10:34:50Z</time>
      </trkpt>
      <trkpt lat="46.401229" lon="14.744264">
        <ele>1620.012</ele>
        <time>2010-09-21T10:34:55Z</time>
      </trkpt>
      <trkpt lat="46.401234" lon="14.744318">
        <ele>1619.0976</ele>
        <time>2010-09-21T10:35:02Z</time>
      </trkpt>
      <trkpt lat="46.401197" lon="14.744371">
        <ele>1616.0496</ele>
        <time>2010-09-21T10:35:07Z</time>
      </trkpt>
      <trkpt lat="46.401127" lon="14.744441">
        <ele>1612.0872</ele>
        <time>2010-09-21T10:35:14Z</time>
      </trkpt>
      <trkpt lat="46.401116" lon="14.744537">
        <ele>1609.9536</ele>
        <time>2010-09-21T10:35:20Z</time>
      </trkpt>
      <trkpt lat="46.401111" lon="14.744554">
        <ele>1609.0392</ele>
        <time>2010-09-21T10:35:25Z</time>
      </trkpt>
      <trkpt lat="46.401143" lon="14.744602">
        <ele>1606.9056</ele>
        <time>2010-09-21T10:35:32Z</time>
      </trkpt>
      <trkpt lat="46.401154" lon="14.744677">
        <ele>1606.9056</ele>
        <time>2010-09-21T10:35:37Z</time>
      </trkpt>
      <trkpt lat="46.401165" lon="14.744741">
        <ele>1606.9056</ele>
        <time>2010-09-21T10:35:44Z</time>
      </trkpt>
      <trkpt lat="46.401165" lon="14.744741">
        <ele>1608.1248</ele>
        <time>2010-09-21T10:35:49Z</time>
      </trkpt>
      <trkpt lat="46.401165" lon="14.744741">
        <ele>1606.9056</ele>
        <time>2010-09-21T10:35:56Z</time>
      </trkpt>
      <trkpt lat="46.401159" lon="14.744741">
        <ele>1608.1248</ele>
        <time>2010-09-21T10:36:01Z</time>
      </trkpt>
      <trkpt lat="46.401170" lon="14.744736">
        <ele>1606.9056</ele>
        <time>2010-09-21T10:36:08Z</time>
      </trkpt>
      <trkpt lat="46.401165" lon="14.744736">
        <ele>1606.9056</ele>
        <time>2010-09-21T10:36:14Z</time>
      </trkpt>
      <trkpt lat="46.401170" lon="14.744731">
        <ele>1605.9912</ele>
        <time>2010-09-21T10:36:19Z</time>
      </trkpt>
      <trkpt lat="46.401170" lon="14.744731">
        <ele>1606.9056</ele>
        <time>2010-09-21T10:36:26Z</time>
      </trkpt>
      <trkpt lat="46.401170" lon="14.744731">
        <ele>1606.9056</ele>
        <time>2010-09-21T10:36:31Z</time>
      </trkpt>
      <trkpt lat="46.401170" lon="14.744731">
        <ele>1606.9056</ele>
        <time>2010-09-21T10:36:38Z</time>
      </trkpt>
      <trkpt lat="46.401170" lon="14.744731">
        <ele>1606.9056</ele>
        <time>2010-09-21T10:36:43Z</time>
      </trkpt>
      <trkpt lat="46.401170" lon="14.744731">
        <ele>1606.9056</ele>
        <time>2010-09-21T10:36:50Z</time>
      </trkpt>
      <trkpt lat="46.401170" lon="14.744731">
        <ele>1606.9056</ele>
        <time>2010-09-21T10:36:55Z</time>
      </trkpt>
      <trkpt lat="46.401170" lon="14.744731">
        <ele>1606.9056</ele>
        <time>2010-09-21T10:37:02Z</time>
      </trkpt>
      <trkpt lat="46.401170" lon="14.744731">
        <ele>1606.9056</ele>
        <time>2010-09-21T10:37:08Z</time>
      </trkpt>
      <trkpt lat="46.401170" lon="14.744731">
        <ele>1606.9056</ele>
        <time>2010-09-21T10:37:13Z</time>
      </trkpt>
      <trkpt lat="46.401170" lon="14.744731">
        <ele>1606.9056</ele>
        <time>2010-09-21T10:37:20Z</time>
      </trkpt>
      <trkpt lat="46.401170" lon="14.744731">
        <ele>1606.9056</ele>
        <time>2010-09-21T10:37:25Z</time>
      </trkpt>
      <trkpt lat="46.401170" lon="14.744731">
        <ele>1606.9056</ele>
        <time>2010-09-21T10:37:32Z</time>
      </trkpt>
      <trkpt lat="46.401170" lon="14.744731">
        <ele>1606.9056</ele>
        <time>2010-09-21T10:37:37Z</time>
      </trkpt>
      <trkpt lat="46.401159" lon="14.744720">
        <ele>1606.9056</ele>
        <time>2010-09-21T10:37:44Z</time>
      </trkpt>
      <trkpt lat="46.401170" lon="14.744731">
        <ele>1609.0392</ele>
        <time>2010-09-21T10:37:49Z</time>
      </trkpt>
      <trkpt lat="46.401154" lon="14.744720">
        <ele>1608.1248</ele>
        <time>2010-09-21T10:37:56Z</time>
      </trkpt>
      <trkpt lat="46.401170" lon="14.744714">
        <ele>1608.1248</ele>
        <time>2010-09-21T10:38:02Z</time>
      </trkpt>
      <trkpt lat="46.401143" lon="14.744682">
        <ele>1608.1248</ele>
        <time>2010-09-21T10:38:07Z</time>
      </trkpt>
      <trkpt lat="46.401111" lon="14.744623">
        <ele>1605.0768</ele>
        <time>2010-09-21T10:38:14Z</time>
      </trkpt>
      <trkpt lat="46.401063" lon="14.744570">
        <ele>1601.1144</ele>
        <time>2010-09-21T10:38:19Z</time>
      </trkpt>
      <trkpt lat="46.400993" lon="14.744500">
        <ele>1598.0664</ele>
        <time>2010-09-21T10:38:26Z</time>
      </trkpt>
      <trkpt lat="46.400939" lon="14.744436">
        <ele>1595.0184</ele>
        <time>2010-09-21T10:38:31Z</time>
      </trkpt>
      <trkpt lat="46.400880" lon="14.744377">
        <ele>1590.1416</ele>
        <time>2010-09-21T10:38:38Z</time>
      </trkpt>
      <trkpt lat="46.400832" lon="14.744291">
        <ele>1585.8744</ele>
        <time>2010-09-21T10:38:43Z</time>
      </trkpt>
      <trkpt lat="46.400789" lon="14.744194">
        <ele>1584.0456</ele>
        <time>2010-09-21T10:38:50Z</time>
      </trkpt>
      <trkpt lat="46.400746" lon="14.744103">
        <ele>1580.9976</ele>
        <time>2010-09-21T10:38:56Z</time>
      </trkpt>
      <trkpt lat="46.400687" lon="14.744044">
        <ele>1578.864</ele>
        <time>2010-09-21T10:39:01Z</time>
      </trkpt>
      <trkpt lat="46.400623" lon="14.743990">
        <ele>1578.864</ele>
        <time>2010-09-21T10:39:08Z</time>
      </trkpt>
      <trkpt lat="46.400558" lon="14.743915">
        <ele>1577.9496</ele>
        <time>2010-09-21T10:39:13Z</time>
      </trkpt>
      <trkpt lat="46.400499" lon="14.743845">
        <ele>1576.1208</ele>
        <time>2010-09-21T10:39:20Z</time>
      </trkpt>
      <trkpt lat="46.400440" lon="14.743786">
        <ele>1574.9016</ele>
        <time>2010-09-21T10:39:25Z</time>
      </trkpt>
      <trkpt lat="46.400381" lon="14.743727">
        <ele>1573.0728</ele>
        <time>2010-09-21T10:39:32Z</time>
      </trkpt>
      <trkpt lat="46.400306" lon="14.743679">
        <ele>1571.8536</ele>
        <time>2010-09-21T10:39:37Z</time>
      </trkpt>
      <trkpt lat="46.400215" lon="14.743663">
        <ele>1573.0728</ele>
        <time>2010-09-21T10:39:44Z</time>
      </trkpt>
      <trkpt lat="46.400118" lon="14.743647">
        <ele>1570.9392</ele>
        <time>2010-09-21T10:39:50Z</time>
      </trkpt>
      <trkpt lat="46.400049" lon="14.743609">
        <ele>1570.9392</ele>
        <time>2010-09-21T10:39:55Z</time>
      </trkpt>
      <trkpt lat="46.400011" lon="14.743593">
        <ele>1571.8536</ele>
        <time>2010-09-21T10:40:02Z</time>
      </trkpt>
      <trkpt lat="46.399936" lon="14.743620">
        <ele>1573.0728</ele>
        <time>2010-09-21T10:40:07Z</time>
      </trkpt>
      <trkpt lat="46.399920" lon="14.743593">
        <ele>1574.9016</ele>
        <time>2010-09-21T10:40:14Z</time>
      </trkpt>
      <trkpt lat="46.399888" lon="14.743609">
        <ele>1577.9496</ele>
        <time>2010-09-21T10:40:19Z</time>
      </trkpt>
      <trkpt lat="46.399872" lon="14.743561">
        <ele>1577.9496</ele>
        <time>2010-09-21T10:40:26Z</time>
      </trkpt>
      <trkpt lat="46.399791" lon="14.743550">
        <ele>1577.9496</ele>
        <time>2010-09-21T10:40:31Z</time>
      </trkpt>
      <trkpt lat="46.399641" lon="14.743518">
        <ele>1577.0352</ele>
        <time>2010-09-21T10:40:38Z</time>
      </trkpt>
      <trkpt lat="46.399582" lon="14.743422">
        <ele>1576.1208</ele>
        <time>2010-09-21T10:40:44Z</time>
      </trkpt>
      <trkpt lat="46.399577" lon="14.743411">
        <ele>1577.0352</ele>
        <time>2010-09-21T10:40:49Z</time>
      </trkpt>
      <trkpt lat="46.399518" lon="14.743406">
        <ele>1576.1208</ele>
        <time>2010-09-21T10:40:56Z</time>
      </trkpt>
      <trkpt lat="46.399491" lon="14.743400">
        <ele>1577.0352</ele>
        <time>2010-09-21T10:41:01Z</time>
      </trkpt>
      <trkpt lat="46.399298" lon="14.743336">
        <ele>1574.9016</ele>
        <time>2010-09-21T10:41:08Z</time>
      </trkpt>
      <trkpt lat="46.399255" lon="14.743282">
        <ele>1573.9872</ele>
        <time>2010-09-21T10:41:13Z</time>
      </trkpt>
      <trkpt lat="46.399217" lon="14.743261">
        <ele>1571.8536</ele>
        <time>2010-09-21T10:41:20Z</time>
      </trkpt>
      <trkpt lat="46.399207" lon="14.743234">
        <ele>1570.9392</ele>
        <time>2010-09-21T10:41:25Z</time>
      </trkpt>
      <trkpt lat="46.399201" lon="14.743245">
        <ele>1570.0248</ele>
        <time>2010-09-21T10:41:32Z</time>
      </trkpt>
      <trkpt lat="46.399019" lon="14.743170">
        <ele>1563.9288</ele>
        <time>2010-09-21T10:41:38Z</time>
      </trkpt>
      <trkpt lat="46.398997" lon="14.743164">
        <ele>1565.148</ele>
        <time>2010-09-21T10:41:43Z</time>
      </trkpt>
      <trkpt lat="46.398987" lon="14.743164">
        <ele>1563.0144</ele>
        <time>2010-09-21T10:41:50Z</time>
      </trkpt>
      <trkpt lat="46.398879" lon="14.743111">
        <ele>1563.0144</ele>
        <time>2010-09-21T10:41:55Z</time>
      </trkpt>
      <trkpt lat="46.398793" lon="14.743019">
        <ele>1563.0144</ele>
        <time>2010-09-21T10:42:02Z</time>
      </trkpt>
      <trkpt lat="46.398665" lon="14.742955">
        <ele>1565.148</ele>
        <time>2010-09-21T10:42:07Z</time>
      </trkpt>
      <trkpt lat="46.398600" lon="14.742901">
        <ele>1569.1104</ele>
        <time>2010-09-21T10:42:14Z</time>
      </trkpt>
      <trkpt lat="46.398482" lon="14.742869">
        <ele>1570.0248</ele>
        <time>2010-09-21T10:42:19Z</time>
      </trkpt>
      <trkpt lat="46.398407" lon="14.742783">
        <ele>1567.8912</ele>
        <time>2010-09-21T10:42:26Z</time>
      </trkpt>
      <trkpt lat="46.398370" lon="14.742676">
        <ele>1565.148</ele>
        <time>2010-09-21T10:42:32Z</time>
      </trkpt>
      <trkpt lat="46.398375" lon="14.742558">
        <ele>1565.148</ele>
        <time>2010-09-21T10:42:37Z</time>
      </trkpt>
      <trkpt lat="46.398327" lon="14.742445">
        <ele>1566.0624</ele>
        <time>2010-09-21T10:42:44Z</time>
      </trkpt>
      <trkpt lat="46.398305" lon="14.742354">
        <ele>1563.9288</ele>
        <time>2010-09-21T10:42:49Z</time>
      </trkpt>
      <trkpt lat="46.398311" lon="14.742274">
        <ele>1562.1</ele>
        <time>2010-09-21T10:42:56Z</time>
      </trkpt>
      <trkpt lat="46.398337" lon="14.742242">
        <ele>1563.0144</ele>
        <time>2010-09-21T10:43:01Z</time>
      </trkpt>
      <trkpt lat="46.398332" lon="14.742220">
        <ele>1562.1</ele>
        <time>2010-09-21T10:43:08Z</time>
      </trkpt>
      <trkpt lat="46.398311" lon="14.742172">
        <ele>1563.9288</ele>
        <time>2010-09-21T10:43:13Z</time>
      </trkpt>
      <trkpt lat="46.398327" lon="14.742166">
        <ele>1563.0144</ele>
        <time>2010-09-21T10:43:20Z</time>
      </trkpt>
      <trkpt lat="46.398364" lon="14.742140">
        <ele>1563.9288</ele>
        <time>2010-09-21T10:43:26Z</time>
      </trkpt>
      <trkpt lat="46.398354" lon="14.742113">
        <ele>1569.1104</ele>
        <time>2010-09-21T10:43:31Z</time>
      </trkpt>
      <trkpt lat="46.398354" lon="14.742118">
        <ele>1571.8536</ele>
        <time>2010-09-21T10:43:38Z</time>
      </trkpt>
      <trkpt lat="46.398316" lon="14.742102">
        <ele>1573.9872</ele>
        <time>2010-09-21T10:43:43Z</time>
      </trkpt>
      <trkpt lat="46.398289" lon="14.742097">
        <ele>1574.9016</ele>
        <time>2010-09-21T10:43:50Z</time>
      </trkpt>
      <trkpt lat="46.398278" lon="14.742102">
        <ele>1574.9016</ele>
        <time>2010-09-21T10:43:55Z</time>
      </trkpt>
      <trkpt lat="46.398284" lon="14.742107">
        <ele>1576.1208</ele>
        <time>2010-09-21T10:44:02Z</time>
      </trkpt>
      <trkpt lat="46.398284" lon="14.742113">
        <ele>1576.1208</ele>
        <time>2010-09-21T10:44:07Z</time>
      </trkpt>
      <trkpt lat="46.398284" lon="14.742113">
        <ele>1576.1208</ele>
        <time>2010-09-21T10:44:14Z</time>
      </trkpt>
      <trkpt lat="46.398284" lon="14.742118">
        <ele>1577.0352</ele>
        <time>2010-09-21T10:44:20Z</time>
      </trkpt>
      <trkpt lat="46.398273" lon="14.742107">
        <ele>1578.864</ele>
        <time>2010-09-21T10:44:25Z</time>
      </trkpt>
      <trkpt lat="46.398278" lon="14.742129">
        <ele>1580.9976</ele>
        <time>2010-09-21T10:44:32Z</time>
      </trkpt>
      <trkpt lat="46.398284" lon="14.742123">
        <ele>1580.9976</ele>
        <time>2010-09-21T10:44:37Z</time>
      </trkpt>
      <trkpt lat="46.398198" lon="14.742081">
        <ele>1577.0352</ele>
        <time>2010-09-21T10:44:44Z</time>
      </trkpt>
      <trkpt lat="46.398225" lon="14.742081">
        <ele>1577.0352</ele>
        <time>2010-09-21T10:44:49Z</time>
      </trkpt>
      <trkpt lat="46.398241" lon="14.742059">
        <ele>1577.9496</ele>
        <time>2010-09-21T10:44:56Z</time>
      </trkpt>
      <trkpt lat="46.398262" lon="14.742022">
        <ele>1577.9496</ele>
        <time>2010-09-21T10:45:01Z</time>
      </trkpt>
      <trkpt lat="46.398262" lon="14.742022">
        <ele>1577.9496</ele>
        <time>2010-09-21T10:45:08Z</time>
      </trkpt>
      <trkpt lat="46.398262" lon="14.742016">
        <ele>1577.9496</ele>
        <time>2010-09-21T10:45:14Z</time>
      </trkpt>
      <trkpt lat="46.398214" lon="14.741936">
        <ele>1578.864</ele>
        <time>2010-09-21T10:45:19Z</time>
      </trkpt>
      <trkpt lat="46.398177" lon="14.741914">
        <ele>1584.96</ele>
        <time>2010-09-21T10:45:26Z</time>
      </trkpt>
      <trkpt lat="46.398160" lon="14.741946">
        <ele>1584.96</ele>
        <time>2010-09-21T10:45:31Z</time>
      </trkpt>
      <trkpt lat="46.398107" lon="14.741936">
        <ele>1588.9224</ele>
        <time>2010-09-21T10:45:38Z</time>
      </trkpt>
      <trkpt lat="46.398091" lon="14.741909">
        <ele>1588.9224</ele>
        <time>2010-09-21T10:45:43Z</time>
      </trkpt>
      <trkpt lat="46.398091" lon="14.741882">
        <ele>1588.9224</ele>
        <time>2010-09-21T10:45:50Z</time>
      </trkpt>
      <trkpt lat="46.398064" lon="14.741845">
        <ele>1588.9224</ele>
        <time>2010-09-21T10:45:55Z</time>
      </trkpt>
      <trkpt lat="46.398064" lon="14.741807">
        <ele>1588.9224</ele>
        <time>2010-09-21T10:46:02Z</time>
      </trkpt>
      <trkpt lat="46.398048" lon="14.741823">
        <ele>1590.1416</ele>
        <time>2010-09-21T10:46:08Z</time>
      </trkpt>
      <trkpt lat="46.398010" lon="14.741845">
        <ele>1591.9704</ele>
        <time>2010-09-21T10:46:13Z</time>
      </trkpt>
      <trkpt lat="46.397967" lon="14.741866">
        <ele>1592.8848</ele>
        <time>2010-09-21T10:46:20Z</time>
      </trkpt>
      <trkpt lat="46.397935" lon="14.741877">
        <ele>1591.9704</ele>
        <time>2010-09-21T10:46:25Z</time>
      </trkpt>
      <trkpt lat="46.397930" lon="14.741882">
        <ele>1592.8848</ele>
        <time>2010-09-21T10:46:32Z</time>
      </trkpt>
      <trkpt lat="46.397935" lon="14.741882">
        <ele>1592.8848</ele>
        <time>2010-09-21T10:46:37Z</time>
      </trkpt>
      <trkpt lat="46.397924" lon="14.741850">
        <ele>1594.104</ele>
        <time>2010-09-21T10:46:44Z</time>
      </trkpt>
      <trkpt lat="46.397919" lon="14.741845">
        <ele>1594.104</ele>
        <time>2010-09-21T10:46:49Z</time>
      </trkpt>
      <trkpt lat="46.397919" lon="14.741839">
        <ele>1594.104</ele>
        <time>2010-09-21T10:46:56Z</time>
      </trkpt>
      <trkpt lat="46.397914" lon="14.741839">
        <ele>1594.104</ele>
        <time>2010-09-21T10:47:02Z</time>
      </trkpt>
      <trkpt lat="46.397914" lon="14.741839">
        <ele>1594.104</ele>
        <time>2010-09-21T10:47:07Z</time>
      </trkpt>
      <trkpt lat="46.397919" lon="14.741845">
        <ele>1594.104</ele>
        <time>2010-09-21T10:47:14Z</time>
      </trkpt>
      <trkpt lat="46.397914" lon="14.741845">
        <ele>1594.104</ele>
        <time>2010-09-21T10:47:19Z</time>
      </trkpt>
      <trkpt lat="46.397914" lon="14.741845">
        <ele>1592.8848</ele>
        <time>2010-09-21T10:47:26Z</time>
      </trkpt>
      <trkpt lat="46.397914" lon="14.741845">
        <ele>1594.104</ele>
        <time>2010-09-21T10:47:31Z</time>
      </trkpt>
      <trkpt lat="46.397914" lon="14.741839">
        <ele>1592.8848</ele>
        <time>2010-09-21T10:47:38Z</time>
      </trkpt>
      <trkpt lat="46.397914" lon="14.741839">
        <ele>1592.8848</ele>
        <time>2010-09-21T10:47:43Z</time>
      </trkpt>
      <trkpt lat="46.397914" lon="14.741839">
        <ele>1592.8848</ele>
        <time>2010-09-21T10:47:50Z</time>
      </trkpt>
      <trkpt lat="46.397914" lon="14.741839">
        <ele>1592.8848</ele>
        <time>2010-09-21T10:47:56Z</time>
      </trkpt>
      <trkpt lat="46.397914" lon="14.741845">
        <ele>1592.8848</ele>
        <time>2010-09-21T10:48:01Z</time>
      </trkpt>
      <trkpt lat="46.397914" lon="14.741845">
        <ele>1592.8848</ele>
        <time>2010-09-21T10:48:08Z</time>
      </trkpt>
      <trkpt lat="46.397914" lon="14.741845">
        <ele>1592.8848</ele>
        <time>2010-09-21T10:48:13Z</time>
      </trkpt>
      <trkpt lat="46.397914" lon="14.741845">
        <ele>1592.8848</ele>
        <time>2010-09-21T10:48:20Z</time>
      </trkpt>
      <trkpt lat="46.397914" lon="14.741845">
        <ele>1592.8848</ele>
        <time>2010-09-21T10:48:25Z</time>
      </trkpt>
      <trkpt lat="46.397914" lon="14.741845">
        <ele>1592.8848</ele>
        <time>2010-09-21T10:48:32Z</time>
      </trkpt>
      <trkpt lat="46.397914" lon="14.741845">
        <ele>1592.8848</ele>
        <time>2010-09-21T10:48:37Z</time>
      </trkpt>
      <trkpt lat="46.397914" lon="14.741845">
        <ele>1592.8848</ele>
        <time>2010-09-21T10:48:44Z</time>
      </trkpt>
      <trkpt lat="46.397914" lon="14.741845">
        <ele>1592.8848</ele>
        <time>2010-09-21T10:48:50Z</time>
      </trkpt>
      <trkpt lat="46.397914" lon="14.741845">
        <ele>1592.8848</ele>
        <time>2010-09-21T10:48:55Z</time>
      </trkpt>
      <trkpt lat="46.397914" lon="14.741845">
        <ele>1592.8848</ele>
        <time>2010-09-21T10:49:02Z</time>
      </trkpt>
      <trkpt lat="46.397914" lon="14.741845">
        <ele>1592.8848</ele>
        <time>2010-09-21T10:49:07Z</time>
      </trkpt>
      <trkpt lat="46.397908" lon="14.741732">
        <ele>1591.9704</ele>
        <time>2010-09-21T11:04:26Z</time>
      </trkpt>
      <trkpt lat="46.397908" lon="14.741732">
        <ele>1591.9704</ele>
        <time>2010-09-21T11:04:33Z</time>
      </trkpt>
      <trkpt lat="46.397908" lon="14.741732">
        <ele>1591.9704</ele>
        <time>2010-09-21T11:04:39Z</time>
      </trkpt>
      <trkpt lat="46.397941" lon="14.741694">
        <ele>1591.9704</ele>
        <time>2010-09-21T11:04:44Z</time>
      </trkpt>
      <trkpt lat="46.397903" lon="14.741668">
        <ele>1592.8848</ele>
        <time>2010-09-21T11:04:51Z</time>
      </trkpt>
      <trkpt lat="46.397898" lon="14.741705">
        <ele>1594.104</ele>
        <time>2010-09-21T11:04:56Z</time>
      </trkpt>
      <trkpt lat="46.397898" lon="14.741705">
        <ele>1594.104</ele>
        <time>2010-09-21T11:05:03Z</time>
      </trkpt>
      <trkpt lat="46.397898" lon="14.741705">
        <ele>1594.104</ele>
        <time>2010-09-21T11:05:08Z</time>
      </trkpt>
      <trkpt lat="46.397908" lon="14.741705">
        <ele>1592.8848</ele>
        <time>2010-09-21T11:05:15Z</time>
      </trkpt>
      <trkpt lat="46.397908" lon="14.741705">
        <ele>1592.8848</ele>
        <time>2010-09-21T11:05:20Z</time>
      </trkpt>
      <trkpt lat="46.397908" lon="14.741705">
        <ele>1592.8848</ele>
        <time>2010-09-21T11:05:27Z</time>
      </trkpt>
      <trkpt lat="46.397908" lon="14.741700">
        <ele>1592.8848</ele>
        <time>2010-09-21T11:05:33Z</time>
      </trkpt>
      <trkpt lat="46.397908" lon="14.741700">
        <ele>1592.8848</ele>
        <time>2010-09-21T11:05:38Z</time>
      </trkpt>
      <trkpt lat="46.397908" lon="14.741662">
        <ele>1594.104</ele>
        <time>2010-09-21T11:05:45Z</time>
      </trkpt>
      <trkpt lat="46.397898" lon="14.741641">
        <ele>1592.8848</ele>
        <time>2010-09-21T11:05:50Z</time>
      </trkpt>
      <trkpt lat="46.397865" lon="14.741651">
        <ele>1591.9704</ele>
        <time>2010-09-21T11:05:57Z</time>
      </trkpt>
      <trkpt lat="46.397855" lon="14.741710">
        <ele>1592.8848</ele>
        <time>2010-09-21T11:06:02Z</time>
      </trkpt>
      <trkpt lat="46.397908" lon="14.741678">
        <ele>1591.9704</ele>
        <time>2010-09-21T11:06:09Z</time>
      </trkpt>
      <trkpt lat="46.397919" lon="14.741694">
        <ele>1594.104</ele>
        <time>2010-09-21T11:06:14Z</time>
      </trkpt>
      <trkpt lat="46.398005" lon="14.741646">
        <ele>1591.9704</ele>
        <time>2010-09-21T11:06:21Z</time>
      </trkpt>
      <trkpt lat="46.398101" lon="14.741592">
        <ele>1592.8848</ele>
        <time>2010-09-21T11:06:27Z</time>
      </trkpt>
      <trkpt lat="46.398150" lon="14.741619">
        <ele>1591.9704</ele>
        <time>2010-09-21T11:06:32Z</time>
      </trkpt>
      <trkpt lat="46.398032" lon="14.741952">
        <ele>1603.8576</ele>
        <time>2010-09-21T11:06:39Z</time>
      </trkpt>
      <trkpt lat="46.398037" lon="14.741963">
        <ele>1606.9056</ele>
        <time>2010-09-21T11:06:44Z</time>
      </trkpt>
      <trkpt lat="46.398059" lon="14.741936">
        <ele>1608.1248</ele>
        <time>2010-09-21T11:06:51Z</time>
      </trkpt>
      <trkpt lat="46.398075" lon="14.741920">
        <ele>1609.0392</ele>
        <time>2010-09-21T11:06:56Z</time>
      </trkpt>
      <trkpt lat="46.398037" lon="14.742043">
        <ele>1609.9536</ele>
        <time>2010-09-21T11:07:03Z</time>
      </trkpt>
      <trkpt lat="46.398053" lon="14.742016">
        <ele>1612.0872</ele>
        <time>2010-09-21T11:07:08Z</time>
      </trkpt>
      <trkpt lat="46.398048" lon="14.742005">
        <ele>1613.0016</ele>
        <time>2010-09-21T11:07:15Z</time>
      </trkpt>
      <trkpt lat="46.398059" lon="14.742086">
        <ele>1610.868</ele>
        <time>2010-09-21T11:07:21Z</time>
      </trkpt>
      <trkpt lat="46.398101" lon="14.742075">
        <ele>1612.0872</ele>
        <time>2010-09-21T11:07:26Z</time>
      </trkpt>
      <trkpt lat="46.398144" lon="14.742172">
        <ele>1608.1248</ele>
        <time>2010-09-21T11:07:33Z</time>
      </trkpt>
      <trkpt lat="46.398193" lon="14.742204">
        <ele>1606.9056</ele>
        <time>2010-09-21T11:07:38Z</time>
      </trkpt>
      <trkpt lat="46.398289" lon="14.742177">
        <ele>1598.0664</ele>
        <time>2010-09-21T11:07:45Z</time>
      </trkpt>
      <trkpt lat="46.398354" lon="14.742236">
        <ele>1590.1416</ele>
        <time>2010-09-21T11:07:50Z</time>
      </trkpt>
      <trkpt lat="46.398370" lon="14.742284">
        <ele>1587.0936</ele>
        <time>2010-09-21T11:07:57Z</time>
      </trkpt>
      <trkpt lat="46.398348" lon="14.742268">
        <ele>1587.0936</ele>
        <time>2010-09-21T11:08:02Z</time>
      </trkpt>
      <trkpt lat="46.398343" lon="14.742252">
        <ele>1588.9224</ele>
        <time>2010-09-21T11:08:09Z</time>
      </trkpt>
      <trkpt lat="46.398354" lon="14.742242">
        <ele>1588.9224</ele>
        <time>2010-09-21T11:08:15Z</time>
      </trkpt>
      <trkpt lat="46.398354" lon="14.742247">
        <ele>1588.9224</ele>
        <time>2010-09-21T11:08:20Z</time>
      </trkpt>
      <trkpt lat="46.398354" lon="14.742247">
        <ele>1588.9224</ele>
        <time>2010-09-21T11:08:27Z</time>
      </trkpt>
      <trkpt lat="46.398354" lon="14.742247">
        <ele>1588.9224</ele>
        <time>2010-09-21T11:08:32Z</time>
      </trkpt>
      <trkpt lat="46.398354" lon="14.742247">
        <ele>1588.9224</ele>
        <time>2010-09-21T11:08:39Z</time>
      </trkpt>
      <trkpt lat="46.398348" lon="14.742252">
        <ele>1588.9224</ele>
        <time>2010-09-21T11:08:44Z</time>
      </trkpt>
      <trkpt lat="46.398348" lon="14.742252">
        <ele>1588.9224</ele>
        <time>2010-09-21T11:08:51Z</time>
      </trkpt>
      <trkpt lat="46.398348" lon="14.742252">
        <ele>1588.9224</ele>
        <time>2010-09-21T11:08:56Z</time>
      </trkpt>
      <trkpt lat="46.398348" lon="14.742252">
        <ele>1588.9224</ele>
        <time>2010-09-21T11:09:03Z</time>
      </trkpt>
      <trkpt lat="46.398348" lon="14.742252">
        <ele>1588.9224</ele>
        <time>2010-09-21T11:09:09Z</time>
      </trkpt>
      <trkpt lat="46.398348" lon="14.742252">
        <ele>1588.9224</ele>
        <time>2010-09-21T11:09:14Z</time>
      </trkpt>
      <trkpt lat="46.398348" lon="14.742252">
        <ele>1588.9224</ele>
        <time>2010-09-21T11:09:21Z</time>
      </trkpt>
      <trkpt lat="46.398348" lon="14.742252">
        <ele>1588.9224</ele>
        <time>2010-09-21T11:09:26Z</time>
      </trkpt>
      <trkpt lat="46.398348" lon="14.742252">
        <ele>1588.9224</ele>
        <time>2010-09-21T11:09:33Z</time>
      </trkpt>
      <trkpt lat="46.398348" lon="14.742252">
        <ele>1588.9224</ele>
        <time>2010-09-21T11:09:38Z</time>
      </trkpt>
      <trkpt lat="46.398348" lon="14.742252">
        <ele>1588.9224</ele>
        <time>2010-09-21T11:09:45Z</time>
      </trkpt>
      <trkpt lat="46.398348" lon="14.742252">
        <ele>1588.9224</ele>
        <time>2010-09-21T11:09:50Z</time>
      </trkpt>
      <trkpt lat="46.398348" lon="14.742252">
        <ele>1588.9224</ele>
        <time>2010-09-21T11:09:57Z</time>
      </trkpt>
      <trkpt lat="46.398359" lon="14.742274">
        <ele>1588.9224</ele>
        <time>2010-09-21T11:10:03Z</time>
      </trkpt>
      <trkpt lat="46.398354" lon="14.742306">
        <ele>1590.1416</ele>
        <time>2010-09-21T11:10:08Z</time>
      </trkpt>
      <trkpt lat="46.398348" lon="14.742317">
        <ele>1591.056</ele>
        <time>2010-09-21T11:10:15Z</time>
      </trkpt>
      <trkpt lat="46.398359" lon="14.742338">
        <ele>1587.0936</ele>
        <time>2010-09-21T11:10:20Z</time>
      </trkpt>
      <trkpt lat="46.398343" lon="14.742274">
        <ele>1584.0456</ele>
        <time>2010-09-21T11:10:27Z</time>
      </trkpt>
      <trkpt lat="46.398321" lon="14.742263">
        <ele>1581.912</ele>
        <time>2010-09-21T11:10:32Z</time>
      </trkpt>
      <trkpt lat="46.398332" lon="14.742247">
        <ele>1580.9976</ele>
        <time>2010-09-21T11:10:39Z</time>
      </trkpt>
      <trkpt lat="46.398396" lon="14.742231">
        <ele>1573.0728</ele>
        <time>2010-09-21T11:10:44Z</time>
      </trkpt>
      <trkpt lat="46.398456" lon="14.742284">
        <ele>1571.8536</ele>
        <time>2010-09-21T11:10:51Z</time>
      </trkpt>
      <trkpt lat="46.398488" lon="14.742247">
        <ele>1573.9872</ele>
        <time>2010-09-21T11:10:57Z</time>
      </trkpt>
      <trkpt lat="46.398477" lon="14.742295">
        <ele>1577.0352</ele>
        <time>2010-09-21T11:11:02Z</time>
      </trkpt>
      <trkpt lat="46.398536" lon="14.742402">
        <ele>1574.9016</ele>
        <time>2010-09-21T11:11:09Z</time>
      </trkpt>
      <trkpt lat="46.398563" lon="14.742440">
        <ele>1573.0728</ele>
        <time>2010-09-21T11:11:14Z</time>
      </trkpt>
      <trkpt lat="46.398584" lon="14.742467">
        <ele>1571.8536</ele>
        <time>2010-09-21T11:11:21Z</time>
      </trkpt>
      <trkpt lat="46.398649" lon="14.742510">
        <ele>1570.0248</ele>
        <time>2010-09-21T11:11:26Z</time>
      </trkpt>
      <trkpt lat="46.398616" lon="14.742649">
        <ele>1569.1104</ele>
        <time>2010-09-21T11:11:33Z</time>
      </trkpt>
      <trkpt lat="46.398616" lon="14.742708">
        <ele>1569.1104</ele>
        <time>2010-09-21T11:11:38Z</time>
      </trkpt>
      <trkpt lat="46.398708" lon="14.742885">
        <ele>1571.8536</ele>
        <time>2010-09-21T11:11:45Z</time>
      </trkpt>
      <trkpt lat="46.398713" lon="14.743025">
        <ele>1577.9496</ele>
        <time>2010-09-21T11:11:51Z</time>
      </trkpt>
      <trkpt lat="46.398799" lon="14.743127">
        <ele>1580.9976</ele>
        <time>2010-09-21T11:11:56Z</time>
      </trkpt>
      <trkpt lat="46.398895" lon="14.743111">
        <ele>1574.9016</ele>
        <time>2010-09-21T11:12:03Z</time>
      </trkpt>
      <trkpt lat="46.398960" lon="14.743132">
        <ele>1576.1208</ele>
        <time>2010-09-21T11:12:08Z</time>
      </trkpt>
      <trkpt lat="46.398987" lon="14.743159">
        <ele>1583.1312</ele>
        <time>2010-09-21T11:12:15Z</time>
      </trkpt>
      <trkpt lat="46.399094" lon="14.743175">
        <ele>1580.9976</ele>
        <time>2010-09-21T11:12:20Z</time>
      </trkpt>
      <trkpt lat="46.399153" lon="14.743186">
        <ele>1578.864</ele>
        <time>2010-09-21T11:12:27Z</time>
      </trkpt>
      <trkpt lat="46.399212" lon="14.743202">
        <ele>1580.0832</ele>
        <time>2010-09-21T11:12:32Z</time>
      </trkpt>
      <trkpt lat="46.399266" lon="14.743229">
        <ele>1578.864</ele>
        <time>2010-09-21T11:12:39Z</time>
      </trkpt>
      <trkpt lat="46.399303" lon="14.743250">
        <ele>1580.0832</ele>
        <time>2010-09-21T11:12:45Z</time>
      </trkpt>
      <trkpt lat="46.399357" lon="14.743271">
        <ele>1581.912</ele>
        <time>2010-09-21T11:12:50Z</time>
      </trkpt>
      <trkpt lat="46.399405" lon="14.743277">
        <ele>1581.912</ele>
        <time>2010-09-21T11:12:57Z</time>
      </trkpt>
      <trkpt lat="46.399448" lon="14.743341">
        <ele>1583.1312</ele>
        <time>2010-09-21T11:13:02Z</time>
      </trkpt>
      <trkpt lat="46.399475" lon="14.743347">
        <ele>1591.056</ele>
        <time>2010-09-21T11:13:09Z</time>
      </trkpt>
      <trkpt lat="46.399512" lon="14.743389">
        <ele>1597.152</ele>
        <time>2010-09-21T11:13:14Z</time>
      </trkpt>
      <trkpt lat="46.399566" lon="14.743427">
        <ele>1598.0664</ele>
        <time>2010-09-21T11:13:21Z</time>
      </trkpt>
      <trkpt lat="46.399603" lon="14.743497">
        <ele>1595.9328</ele>
        <time>2010-09-21T11:13:26Z</time>
      </trkpt>
      <trkpt lat="46.399716" lon="14.743475">
        <ele>1590.1416</ele>
        <time>2010-09-21T11:13:33Z</time>
      </trkpt>
      <trkpt lat="46.399786" lon="14.743486">
        <ele>1590.1416</ele>
        <time>2010-09-21T11:13:39Z</time>
      </trkpt>
      <trkpt lat="46.399823" lon="14.743508">
        <ele>1591.9704</ele>
        <time>2010-09-21T11:13:44Z</time>
      </trkpt>
      <trkpt lat="46.399850" lon="14.743550">
        <ele>1599.8952</ele>
        <time>2010-09-21T11:13:51Z</time>
      </trkpt>
      <trkpt lat="46.399899" lon="14.743593">
        <ele>1603.8576</ele>
        <time>2010-09-21T11:13:56Z</time>
      </trkpt>
      <trkpt lat="46.399968" lon="14.743609">
        <ele>1598.9808</ele>
        <time>2010-09-21T11:14:03Z</time>
      </trkpt>
      <trkpt lat="46.400027" lon="14.743636">
        <ele>1595.9328</ele>
        <time>2010-09-21T11:14:08Z</time>
      </trkpt>
      <trkpt lat="46.400129" lon="14.743620">
        <ele>1587.0936</ele>
        <time>2010-09-21T11:14:15Z</time>
      </trkpt>
      <trkpt lat="46.400172" lon="14.743631">
        <ele>1591.9704</ele>
        <time>2010-09-21T11:14:20Z</time>
      </trkpt>
      <trkpt lat="46.400210" lon="14.743636">
        <ele>1591.9704</ele>
        <time>2010-09-21T11:14:27Z</time>
      </trkpt>
      <trkpt lat="46.400258" lon="14.743647">
        <ele>1594.104</ele>
        <time>2010-09-21T11:14:33Z</time>
      </trkpt>
      <trkpt lat="46.400295" lon="14.743679">
        <ele>1595.9328</ele>
        <time>2010-09-21T11:14:38Z</time>
      </trkpt>
      <trkpt lat="46.400344" lon="14.743717">
        <ele>1598.0664</ele>
        <time>2010-09-21T11:14:45Z</time>
      </trkpt>
      <trkpt lat="46.400392" lon="14.743749">
        <ele>1598.0664</ele>
        <time>2010-09-21T11:14:50Z</time>
      </trkpt>
      <trkpt lat="46.400435" lon="14.743781">
        <ele>1598.0664</ele>
        <time>2010-09-21T11:14:57Z</time>
      </trkpt>
      <trkpt lat="46.400478" lon="14.743835">
        <ele>1598.0664</ele>
        <time>2010-09-21T11:15:02Z</time>
      </trkpt>
      <trkpt lat="46.400526" lon="14.743867">
        <ele>1597.152</ele>
        <time>2010-09-21T11:15:09Z</time>
      </trkpt>
      <trkpt lat="46.400569" lon="14.743899">
        <ele>1598.0664</ele>
        <time>2010-09-21T11:15:14Z</time>
      </trkpt>
      <trkpt lat="46.400612" lon="14.743931">
        <ele>1598.9808</ele>
        <time>2010-09-21T11:15:21Z</time>
      </trkpt>
      <trkpt lat="46.400650" lon="14.743969">
        <ele>1599.8952</ele>
        <time>2010-09-21T11:15:27Z</time>
      </trkpt>
      <trkpt lat="46.400687" lon="14.744017">
        <ele>1601.1144</ele>
        <time>2010-09-21T11:15:32Z</time>
      </trkpt>
      <trkpt lat="46.400730" lon="14.744055">
        <ele>1602.9432</ele>
        <time>2010-09-21T11:15:39Z</time>
      </trkpt>
      <trkpt lat="46.400757" lon="14.744108">
        <ele>1602.9432</ele>
        <time>2010-09-21T11:15:44Z</time>
      </trkpt>
      <trkpt lat="46.400757" lon="14.744130">
        <ele>1602.9432</ele>
        <time>2010-09-21T11:15:51Z</time>
      </trkpt>
      <trkpt lat="46.400773" lon="14.744205">
        <ele>1602.9432</ele>
        <time>2010-09-21T11:15:56Z</time>
      </trkpt>
      <trkpt lat="46.400805" lon="14.744253">
        <ele>1605.0768</ele>
        <time>2010-09-21T11:16:03Z</time>
      </trkpt>
      <trkpt lat="46.400843" lon="14.744307">
        <ele>1605.0768</ele>
        <time>2010-09-21T11:16:08Z</time>
      </trkpt>
      <trkpt lat="46.400886" lon="14.744360">
        <ele>1605.9912</ele>
        <time>2010-09-21T11:16:15Z</time>
      </trkpt>
      <trkpt lat="46.400928" lon="14.744398">
        <ele>1606.9056</ele>
        <time>2010-09-21T11:16:21Z</time>
      </trkpt>
      <trkpt lat="46.400971" lon="14.744446">
        <ele>1608.1248</ele>
        <time>2010-09-21T11:16:26Z</time>
      </trkpt>
      <trkpt lat="46.401009" lon="14.744478">
        <ele>1609.0392</ele>
        <time>2010-09-21T11:16:33Z</time>
      </trkpt>
      <trkpt lat="46.401047" lon="14.744521">
        <ele>1609.9536</ele>
        <time>2010-09-21T11:16:38Z</time>
      </trkpt>
      <trkpt lat="46.401057" lon="14.744527">
        <ele>1609.9536</ele>
        <time>2010-09-21T11:16:45Z</time>
      </trkpt>
      <trkpt lat="46.401106" lon="14.744575">
        <ele>1610.868</ele>
        <time>2010-09-21T11:16:50Z</time>
      </trkpt>
      <trkpt lat="46.401143" lon="14.744618">
        <ele>1612.0872</ele>
        <time>2010-09-21T11:16:57Z</time>
      </trkpt>
      <trkpt lat="46.401154" lon="14.744661">
        <ele>1612.0872</ele>
        <time>2010-09-21T11:17:02Z</time>
      </trkpt>
      <trkpt lat="46.401165" lon="14.744672">
        <ele>1612.0872</ele>
        <time>2010-09-21T11:17:09Z</time>
      </trkpt>
      <trkpt lat="46.401165" lon="14.744704">
        <ele>1612.0872</ele>
        <time>2010-09-21T11:17:15Z</time>
      </trkpt>
      <trkpt lat="46.401175" lon="14.744795">
        <ele>1609.9536</ele>
        <time>2010-09-21T11:17:20Z</time>
      </trkpt>
      <trkpt lat="46.401202" lon="14.744892">
        <ele>1609.0392</ele>
        <time>2010-09-21T11:17:27Z</time>
      </trkpt>
      <trkpt lat="46.401229" lon="14.744988">
        <ele>1609.0392</ele>
        <time>2010-09-21T11:17:32Z</time>
      </trkpt>
      <trkpt lat="46.401272" lon="14.745074">
        <ele>1609.9536</ele>
        <time>2010-09-21T11:17:39Z</time>
      </trkpt>
      <trkpt lat="46.401315" lon="14.745138">
        <ele>1609.9536</ele>
        <time>2010-09-21T11:17:44Z</time>
      </trkpt>
      <trkpt lat="46.401352" lon="14.745208">
        <ele>1612.0872</ele>
        <time>2010-09-21T11:17:51Z</time>
      </trkpt>
      <trkpt lat="46.401374" lon="14.745299">
        <ele>1609.9536</ele>
        <time>2010-09-21T11:17:56Z</time>
      </trkpt>
      <trkpt lat="46.401401" lon="14.745374">
        <ele>1609.9536</ele>
        <time>2010-09-21T11:18:03Z</time>
      </trkpt>
      <trkpt lat="46.401438" lon="14.745449">
        <ele>1610.868</ele>
        <time>2010-09-21T11:18:09Z</time>
      </trkpt>
      <trkpt lat="46.401476" lon="14.745525">
        <ele>1612.0872</ele>
        <time>2010-09-21T11:18:14Z</time>
      </trkpt>
      <trkpt lat="46.401502" lon="14.745594">
        <ele>1613.916</ele>
        <time>2010-09-21T11:18:21Z</time>
      </trkpt>
      <trkpt lat="46.401519" lon="14.745685">
        <ele>1613.0016</ele>
        <time>2010-09-21T11:18:26Z</time>
      </trkpt>
      <trkpt lat="46.401545" lon="14.745766">
        <ele>1613.916</ele>
        <time>2010-09-21T11:18:33Z</time>
      </trkpt>
      <trkpt lat="46.401545" lon="14.745846">
        <ele>1615.1352</ele>
        <time>2010-09-21T11:18:38Z</time>
      </trkpt>
      <trkpt lat="46.401535" lon="14.745943">
        <ele>1615.1352</ele>
        <time>2010-09-21T11:18:45Z</time>
      </trkpt>
      <trkpt lat="46.401535" lon="14.746023">
        <ele>1613.916</ele>
        <time>2010-09-21T11:18:50Z</time>
      </trkpt>
      <trkpt lat="46.401519" lon="14.746131">
        <ele>1613.916</ele>
        <time>2010-09-21T11:18:57Z</time>
      </trkpt>
      <trkpt lat="46.401519" lon="14.746233">
        <ele>1613.916</ele>
        <time>2010-09-21T11:19:03Z</time>
      </trkpt>
      <trkpt lat="46.401529" lon="14.746318">
        <ele>1613.916</ele>
        <time>2010-09-21T11:19:08Z</time>
      </trkpt>
      <trkpt lat="46.401529" lon="14.746372">
        <ele>1615.1352</ele>
        <time>2010-09-21T11:19:15Z</time>
      </trkpt>
      <trkpt lat="46.401556" lon="14.746458">
        <ele>1615.1352</ele>
        <time>2010-09-21T11:19:20Z</time>
      </trkpt>
      <trkpt lat="46.401583" lon="14.746538">
        <ele>1615.1352</ele>
        <time>2010-09-21T11:19:27Z</time>
      </trkpt>
      <trkpt lat="46.401615" lon="14.746619">
        <ele>1616.0496</ele>
        <time>2010-09-21T11:19:32Z</time>
      </trkpt>
      <trkpt lat="46.401658" lon="14.746705">
        <ele>1615.1352</ele>
        <time>2010-09-21T11:19:39Z</time>
      </trkpt>
      <trkpt lat="46.401674" lon="14.746769">
        <ele>1615.1352</ele>
        <time>2010-09-21T11:19:44Z</time>
      </trkpt>
      <trkpt lat="46.401701" lon="14.746866">
        <ele>1616.0496</ele>
        <time>2010-09-21T11:19:51Z</time>
      </trkpt>
      <trkpt lat="46.401728" lon="14.746925">
        <ele>1615.1352</ele>
        <time>2010-09-21T11:19:57Z</time>
      </trkpt>
      <trkpt lat="46.401814" lon="14.746935">
        <ele>1616.0496</ele>
        <time>2010-09-21T11:20:02Z</time>
      </trkpt>
      <trkpt lat="46.401867" lon="14.746968">
        <ele>1620.9264</ele>
        <time>2010-09-21T11:20:09Z</time>
      </trkpt>
      <trkpt lat="46.401889" lon="14.747048">
        <ele>1623.06</ele>
        <time>2010-09-21T11:20:14Z</time>
      </trkpt>
      <trkpt lat="46.401937" lon="14.747086">
        <ele>1624.8888</ele>
        <time>2010-09-21T11:20:21Z</time>
      </trkpt>
      <trkpt lat="46.401969" lon="14.747134">
        <ele>1626.108</ele>
        <time>2010-09-21T11:20:26Z</time>
      </trkpt>
      <trkpt lat="46.402001" lon="14.747161">
        <ele>1628.8512</ele>
        <time>2010-09-21T11:20:33Z</time>
      </trkpt>
      <trkpt lat="46.402039" lon="14.747198">
        <ele>1630.9848</ele>
        <time>2010-09-21T11:20:38Z</time>
      </trkpt>
      <trkpt lat="46.402082" lon="14.747241">
        <ele>1631.8992</ele>
        <time>2010-09-21T11:20:45Z</time>
      </trkpt>
      <trkpt lat="46.402125" lon="14.747300">
        <ele>1631.8992</ele>
        <time>2010-09-21T11:20:51Z</time>
      </trkpt>
      <trkpt lat="46.402152" lon="14.747391">
        <ele>1634.0328</ele>
        <time>2010-09-21T11:20:56Z</time>
      </trkpt>
      <trkpt lat="46.402168" lon="14.747456">
        <ele>1641.0432</ele>
        <time>2010-09-21T11:21:03Z</time>
      </trkpt>
      <trkpt lat="46.402146" lon="14.747525">
        <ele>1638.9096</ele>
        <time>2010-09-21T11:21:08Z</time>
      </trkpt>
      <trkpt lat="46.402168" lon="14.747568">
        <ele>1637.9952</ele>
        <time>2010-09-21T11:21:15Z</time>
      </trkpt>
      <trkpt lat="46.402200" lon="14.747643">
        <ele>1637.9952</ele>
        <time>2010-09-21T11:21:20Z</time>
      </trkpt>
      <trkpt lat="46.402232" lon="14.747697">
        <ele>1637.9952</ele>
        <time>2010-09-21T11:21:27Z</time>
      </trkpt>
      <trkpt lat="46.402366" lon="14.747660">
        <ele>1637.9952</ele>
        <time>2010-09-21T11:21:32Z</time>
      </trkpt>
      <trkpt lat="46.402452" lon="14.747697">
        <ele>1637.9952</ele>
        <time>2010-09-21T11:21:39Z</time>
      </trkpt>
      <trkpt lat="46.402473" lon="14.747772">
        <ele>1637.9952</ele>
        <time>2010-09-21T11:21:45Z</time>
      </trkpt>
      <trkpt lat="46.402570" lon="14.747799">
        <ele>1634.9472</ele>
        <time>2010-09-21T11:21:50Z</time>
      </trkpt>
      <trkpt lat="46.402575" lon="14.747885">
        <ele>1640.1288</ele>
        <time>2010-09-21T11:21:57Z</time>
      </trkpt>
      <trkpt lat="46.402629" lon="14.747960">
        <ele>1641.9576</ele>
        <time>2010-09-21T11:22:02Z</time>
      </trkpt>
      <trkpt lat="46.402726" lon="14.747944">
        <ele>1630.0704</ele>
        <time>2010-09-21T11:22:09Z</time>
      </trkpt>
      <trkpt lat="46.402779" lon="14.747992">
        <ele>1628.8512</ele>
        <time>2010-09-21T11:22:14Z</time>
      </trkpt>
      <trkpt lat="46.402844" lon="14.748024">
        <ele>1630.0704</ele>
        <time>2010-09-21T11:22:21Z</time>
      </trkpt>
      <trkpt lat="46.402887" lon="14.748116">
        <ele>1631.8992</ele>
        <time>2010-09-21T11:22:26Z</time>
      </trkpt>
      <trkpt lat="46.402956" lon="14.748158">
        <ele>1633.1184</ele>
        <time>2010-09-21T11:22:33Z</time>
      </trkpt>
      <trkpt lat="46.403015" lon="14.748175">
        <ele>1634.0328</ele>
        <time>2010-09-21T11:22:39Z</time>
      </trkpt>
      <trkpt lat="46.403015" lon="14.748314">
        <ele>1630.9848</ele>
        <time>2010-09-21T11:22:44Z</time>
      </trkpt>
      <trkpt lat="46.403080" lon="14.748352">
        <ele>1633.1184</ele>
        <time>2010-09-21T11:22:51Z</time>
      </trkpt>
      <trkpt lat="46.403080" lon="14.748432">
        <ele>1635.8616</ele>
        <time>2010-09-21T11:22:56Z</time>
      </trkpt>
      <trkpt lat="46.403064" lon="14.748513">
        <ele>1637.9952</ele>
        <time>2010-09-21T11:23:03Z</time>
      </trkpt>
      <trkpt lat="46.403096" lon="14.748572">
        <ele>1637.0808</ele>
        <time>2010-09-21T11:23:08Z</time>
      </trkpt>
      <trkpt lat="46.403090" lon="14.748641">
        <ele>1633.1184</ele>
        <time>2010-09-21T11:23:15Z</time>
      </trkpt>
      <trkpt lat="46.403090" lon="14.748738">
        <ele>1628.8512</ele>
        <time>2010-09-21T11:23:20Z</time>
      </trkpt>
      <trkpt lat="46.403123" lon="14.748877">
        <ele>1626.108</ele>
        <time>2010-09-21T11:23:27Z</time>
      </trkpt>
      <trkpt lat="46.403171" lon="14.748968">
        <ele>1627.9368</ele>
        <time>2010-09-21T11:23:33Z</time>
      </trkpt>
      <trkpt lat="46.403192" lon="14.749038">
        <ele>1627.0224</ele>
        <time>2010-09-21T11:23:38Z</time>
      </trkpt>
      <trkpt lat="46.403160" lon="14.749113">
        <ele>1630.0704</ele>
        <time>2010-09-21T11:23:45Z</time>
      </trkpt>
      <trkpt lat="46.403187" lon="14.749124">
        <ele>1628.8512</ele>
        <time>2010-09-21T11:23:50Z</time>
      </trkpt>
      <trkpt lat="46.403171" lon="14.749178">
        <ele>1631.8992</ele>
        <time>2010-09-21T11:23:57Z</time>
      </trkpt>
      <trkpt lat="46.403203" lon="14.749247">
        <ele>1634.0328</ele>
        <time>2010-09-21T11:24:02Z</time>
      </trkpt>
      <trkpt lat="46.403305" lon="14.749301">
        <ele>1631.8992</ele>
        <time>2010-09-21T11:24:09Z</time>
      </trkpt>
      <trkpt lat="46.403434" lon="14.749419">
        <ele>1631.8992</ele>
        <time>2010-09-21T11:24:14Z</time>
      </trkpt>
      <trkpt lat="46.403428" lon="14.749489">
        <ele>1630.9848</ele>
        <time>2010-09-21T11:24:21Z</time>
      </trkpt>
      <trkpt lat="46.403466" lon="14.749607">
        <ele>1641.0432</ele>
        <time>2010-09-21T11:24:27Z</time>
      </trkpt>
      <trkpt lat="46.403482" lon="14.749698">
        <ele>1642.872</ele>
        <time>2010-09-21T11:24:32Z</time>
      </trkpt>
      <trkpt lat="46.403568" lon="14.749741">
        <ele>1640.1288</ele>
        <time>2010-09-21T11:24:39Z</time>
      </trkpt>
      <trkpt lat="46.403595" lon="14.749832">
        <ele>1640.1288</ele>
        <time>2010-09-21T11:24:44Z</time>
      </trkpt>
      <trkpt lat="46.403605" lon="14.749886">
        <ele>1644.0912</ele>
        <time>2010-09-21T11:24:51Z</time>
      </trkpt>
      <trkpt lat="46.403718" lon="14.749913">
        <ele>1637.0808</ele>
        <time>2010-09-21T11:24:56Z</time>
      </trkpt>
      <trkpt lat="46.403788" lon="14.749998">
        <ele>1631.8992</ele>
        <time>2010-09-21T11:25:03Z</time>
      </trkpt>
      <trkpt lat="46.403777" lon="14.750100">
        <ele>1638.9096</ele>
        <time>2010-09-21T11:25:08Z</time>
      </trkpt>
      <trkpt lat="46.403831" lon="14.750165">
        <ele>1638.9096</ele>
        <time>2010-09-21T11:25:15Z</time>
      </trkpt>
      <trkpt lat="46.403847" lon="14.750234">
        <ele>1642.872</ele>
        <time>2010-09-21T11:25:21Z</time>
      </trkpt>
      <trkpt lat="46.403895" lon="14.750320">
        <ele>1644.0912</ele>
        <time>2010-09-21T11:25:26Z</time>
      </trkpt>
      <trkpt lat="46.403997" lon="14.750326">
        <ele>1641.0432</ele>
        <time>2010-09-21T11:25:33Z</time>
      </trkpt>
      <trkpt lat="46.404040" lon="14.750304">
        <ele>1635.8616</ele>
        <time>2010-09-21T11:25:38Z</time>
      </trkpt>
      <trkpt lat="46.404056" lon="14.750293">
        <ele>1633.1184</ele>
        <time>2010-09-21T11:25:45Z</time>
      </trkpt>
      <trkpt lat="46.404056" lon="14.750412">
        <ele>1620.9264</ele>
        <time>2010-09-21T11:25:50Z</time>
      </trkpt>
      <trkpt lat="46.404008" lon="14.750433">
        <ele>1620.9264</ele>
        <time>2010-09-21T11:25:57Z</time>
      </trkpt>
      <trkpt lat="46.404072" lon="14.750422">
        <ele>1622.1456</ele>
        <time>2010-09-21T11:26:02Z</time>
      </trkpt>
      <trkpt lat="46.404099" lon="14.750465">
        <ele>1623.06</ele>
        <time>2010-09-21T11:26:09Z</time>
      </trkpt>
      <trkpt lat="46.404126" lon="14.750540">
        <ele>1619.0976</ele>
        <time>2010-09-21T11:26:15Z</time>
      </trkpt>
      <trkpt lat="46.404147" lon="14.750572">
        <ele>1619.0976</ele>
        <time>2010-09-21T11:26:20Z</time>
      </trkpt>
      <trkpt lat="46.404238" lon="14.750637">
        <ele>1627.0224</ele>
        <time>2010-09-21T11:26:27Z</time>
      </trkpt>
      <trkpt lat="46.404260" lon="14.750685">
        <ele>1630.9848</ele>
        <time>2010-09-21T11:26:32Z</time>
      </trkpt>
      <trkpt lat="46.404260" lon="14.750814">
        <ele>1633.1184</ele>
        <time>2010-09-21T11:26:39Z</time>
      </trkpt>
      <trkpt lat="46.404271" lon="14.750884">
        <ele>1630.9848</ele>
        <time>2010-09-21T11:26:44Z</time>
      </trkpt>
      <trkpt lat="46.404308" lon="14.750878">
        <ele>1631.8992</ele>
        <time>2010-09-21T11:26:51Z</time>
      </trkpt>
      <trkpt lat="46.404335" lon="14.750878">
        <ele>1633.1184</ele>
        <time>2010-09-21T11:26:56Z</time>
      </trkpt>
      <trkpt lat="46.404405" lon="14.750953">
        <ele>1631.8992</ele>
        <time>2010-09-21T11:27:03Z</time>
      </trkpt>
      <trkpt lat="46.404448" lon="14.751012">
        <ele>1634.0328</ele>
        <time>2010-09-21T11:27:09Z</time>
      </trkpt>
      <trkpt lat="46.404469" lon="14.751066">
        <ele>1637.0808</ele>
        <time>2010-09-21T11:27:14Z</time>
      </trkpt>
      <trkpt lat="46.404453" lon="14.751093">
        <ele>1634.9472</ele>
        <time>2010-09-21T11:27:21Z</time>
      </trkpt>
      <trkpt lat="46.404464" lon="14.751141">
        <ele>1631.8992</ele>
        <time>2010-09-21T11:27:26Z</time>
      </trkpt>
      <trkpt lat="46.404480" lon="14.751168">
        <ele>1633.1184</ele>
        <time>2010-09-21T11:27:33Z</time>
      </trkpt>
      <trkpt lat="46.404549" lon="14.751281">
        <ele>1630.0704</ele>
        <time>2010-09-21T11:27:38Z</time>
      </trkpt>
      <trkpt lat="46.404603" lon="14.751334">
        <ele>1630.0704</ele>
        <time>2010-09-21T11:27:45Z</time>
      </trkpt>
      <trkpt lat="46.404614" lon="14.751425">
        <ele>1638.9096</ele>
        <time>2010-09-21T11:27:50Z</time>
      </trkpt>
      <trkpt lat="46.404641" lon="14.751500">
        <ele>1640.1288</ele>
        <time>2010-09-21T11:27:57Z</time>
      </trkpt>
      <trkpt lat="46.404678" lon="14.751559">
        <ele>1641.0432</ele>
        <time>2010-09-21T11:28:03Z</time>
      </trkpt>
      <trkpt lat="46.404802" lon="14.751533">
        <ele>1627.9368</ele>
        <time>2010-09-21T11:28:08Z</time>
      </trkpt>
      <trkpt lat="46.404845" lon="14.751522">
        <ele>1627.9368</ele>
        <time>2010-09-21T11:28:15Z</time>
      </trkpt>
      <trkpt lat="46.404845" lon="14.751527">
        <ele>1624.8888</ele>
        <time>2010-09-21T11:28:20Z</time>
      </trkpt>
      <trkpt lat="46.404871" lon="14.751576">
        <ele>1623.06</ele>
        <time>2010-09-21T11:28:27Z</time>
      </trkpt>
      <trkpt lat="46.404914" lon="14.751597">
        <ele>1622.1456</ele>
        <time>2010-09-21T11:28:32Z</time>
      </trkpt>
      <trkpt lat="46.404925" lon="14.751629">
        <ele>1627.0224</ele>
        <time>2010-09-21T11:28:39Z</time>
      </trkpt>
      <trkpt lat="46.405000" lon="14.751678">
        <ele>1630.0704</ele>
        <time>2010-09-21T11:28:44Z</time>
      </trkpt>
      <trkpt lat="46.405032" lon="14.751651">
        <ele>1631.8992</ele>
        <time>2010-09-21T11:28:51Z</time>
      </trkpt>
      <trkpt lat="46.405032" lon="14.751672">
        <ele>1631.8992</ele>
        <time>2010-09-21T11:28:57Z</time>
      </trkpt>
      <trkpt lat="46.405038" lon="14.751683">
        <ele>1633.1184</ele>
        <time>2010-09-21T11:29:02Z</time>
      </trkpt>
      <trkpt lat="46.405075" lon="14.751710">
        <ele>1630.9848</ele>
        <time>2010-09-21T11:29:09Z</time>
      </trkpt>
      <trkpt lat="46.405177" lon="14.751806">
        <ele>1627.9368</ele>
        <time>2010-09-21T11:29:14Z</time>
      </trkpt>
      <trkpt lat="46.405241" lon="14.751855">
        <ele>1626.108</ele>
        <time>2010-09-21T11:29:21Z</time>
      </trkpt>
      <trkpt lat="46.405274" lon="14.751881">
        <ele>1630.0704</ele>
        <time>2010-09-21T11:29:26Z</time>
      </trkpt>
      <trkpt lat="46.405268" lon="14.751897">
        <ele>1630.9848</ele>
        <time>2010-09-21T11:29:33Z</time>
      </trkpt>
      <trkpt lat="46.405306" lon="14.751940">
        <ele>1630.9848</ele>
        <time>2010-09-21T11:29:38Z</time>
      </trkpt>
      <trkpt lat="46.405440" lon="14.751973">
        <ele>1623.06</ele>
        <time>2010-09-21T11:29:45Z</time>
      </trkpt>
      <trkpt lat="46.405435" lon="14.751994">
        <ele>1626.108</ele>
        <time>2010-09-21T11:29:51Z</time>
      </trkpt>
      <trkpt lat="46.405435" lon="14.752015">
        <ele>1627.9368</ele>
        <time>2010-09-21T11:29:56Z</time>
      </trkpt>
      <trkpt lat="46.405488" lon="14.752069">
        <ele>1630.0704</ele>
        <time>2010-09-21T11:30:03Z</time>
      </trkpt>
      <trkpt lat="46.405510" lon="14.752069">
        <ele>1630.0704</ele>
        <time>2010-09-21T11:30:08Z</time>
      </trkpt>
      <trkpt lat="46.405579" lon="14.752171">
        <ele>1628.8512</ele>
        <time>2010-09-21T11:30:15Z</time>
      </trkpt>
      <trkpt lat="46.405601" lon="14.752187">
        <ele>1630.0704</ele>
        <time>2010-09-21T11:30:20Z</time>
      </trkpt>
      <trkpt lat="46.405638" lon="14.752187">
        <ele>1630.0704</ele>
        <time>2010-09-21T11:30:27Z</time>
      </trkpt>
      <trkpt lat="46.405740" lon="14.752171">
        <ele>1627.9368</ele>
        <time>2010-09-21T11:30:32Z</time>
      </trkpt>
      <trkpt lat="46.405858" lon="14.752133">
        <ele>1630.9848</ele>
        <time>2010-09-21T11:30:39Z</time>
      </trkpt>
      <trkpt lat="46.405901" lon="14.752155">
        <ele>1633.1184</ele>
        <time>2010-09-21T11:30:45Z</time>
      </trkpt>
      <trkpt lat="46.405869" lon="14.752155">
        <ele>1633.1184</ele>
        <time>2010-09-21T11:30:50Z</time>
      </trkpt>
      <trkpt lat="46.405896" lon="14.752209">
        <ele>1634.9472</ele>
        <time>2010-09-21T11:30:57Z</time>
      </trkpt>
      <trkpt lat="46.405923" lon="14.752252">
        <ele>1637.9952</ele>
        <time>2010-09-21T11:31:02Z</time>
      </trkpt>
      <trkpt lat="46.405939" lon="14.752311">
        <ele>1637.9952</ele>
        <time>2010-09-21T11:31:09Z</time>
      </trkpt>
      <trkpt lat="46.405944" lon="14.752278">
        <ele>1640.1288</ele>
        <time>2010-09-21T11:31:14Z</time>
      </trkpt>
      <trkpt lat="46.405966" lon="14.752300">
        <ele>1641.9576</ele>
        <time>2010-09-21T11:31:21Z</time>
      </trkpt>
      <trkpt lat="46.406041" lon="14.752327">
        <ele>1641.0432</ele>
        <time>2010-09-21T11:31:26Z</time>
      </trkpt>
      <trkpt lat="46.406116" lon="14.752364">
        <ele>1641.9576</ele>
        <time>2010-09-21T11:31:33Z</time>
      </trkpt>
      <trkpt lat="46.406121" lon="14.752380">
        <ele>1642.872</ele>
        <time>2010-09-21T11:31:39Z</time>
      </trkpt>
      <trkpt lat="46.406137" lon="14.752407">
        <ele>1647.1392</ele>
        <time>2010-09-21T11:31:44Z</time>
      </trkpt>
      <trkpt lat="46.406153" lon="14.752423">
        <ele>1648.968</ele>
        <time>2010-09-21T11:31:51Z</time>
      </trkpt>
      <trkpt lat="46.406207" lon="14.752493">
        <ele>1649.8824</ele>
        <time>2010-09-21T11:31:56Z</time>
      </trkpt>
      <trkpt lat="46.406229" lon="14.752450">
        <ele>1648.0536</ele>
        <time>2010-09-21T11:32:03Z</time>
      </trkpt>
      <trkpt lat="46.406245" lon="14.752471">
        <ele>1647.1392</ele>
        <time>2010-09-21T11:32:08Z</time>
      </trkpt>
      <trkpt lat="46.406314" lon="14.752552">
        <ele>1645.0056</ele>
        <time>2010-09-21T11:32:15Z</time>
      </trkpt>
      <trkpt lat="46.406320" lon="14.752622">
        <ele>1652.016</ele>
        <time>2010-09-21T11:32:20Z</time>
      </trkpt>
      <trkpt lat="46.406330" lon="14.752622">
        <ele>1651.1016</ele>
        <time>2010-09-21T11:32:27Z</time>
      </trkpt>
      <trkpt lat="46.406336" lon="14.752632">
        <ele>1651.1016</ele>
        <time>2010-09-21T11:32:33Z</time>
      </trkpt>
      <trkpt lat="46.406357" lon="14.752740">
        <ele>1658.112</ele>
        <time>2010-09-21T11:32:38Z</time>
      </trkpt>
      <trkpt lat="46.406373" lon="14.752750">
        <ele>1659.0264</ele>
        <time>2010-09-21T11:32:45Z</time>
      </trkpt>
      <trkpt lat="46.406384" lon="14.752766">
        <ele>1658.112</ele>
        <time>2010-09-21T11:32:50Z</time>
      </trkpt>
      <trkpt lat="46.406427" lon="14.752783">
        <ele>1659.0264</ele>
        <time>2010-09-21T11:32:57Z</time>
      </trkpt>
      <trkpt lat="46.406459" lon="14.752831">
        <ele>1659.9408</ele>
        <time>2010-09-21T11:33:02Z</time>
      </trkpt>
      <trkpt lat="46.406497" lon="14.752868">
        <ele>1666.9512</ele>
        <time>2010-09-21T11:33:09Z</time>
      </trkpt>
      <trkpt lat="46.406502" lon="14.752911">
        <ele>1667.8656</ele>
        <time>2010-09-21T11:33:14Z</time>
      </trkpt>
      <trkpt lat="46.406561" lon="14.752965">
        <ele>1672.1328</ele>
        <time>2010-09-21T11:33:21Z</time>
      </trkpt>
      <trkpt lat="46.406604" lon="14.753040">
        <ele>1669.0848</ele>
        <time>2010-09-21T11:33:27Z</time>
      </trkpt>
      <trkpt lat="46.406679" lon="14.753099">
        <ele>1667.8656</ele>
        <time>2010-09-21T11:33:32Z</time>
      </trkpt>
      <trkpt lat="46.406695" lon="14.753147">
        <ele>1666.9512</ele>
        <time>2010-09-21T11:33:39Z</time>
      </trkpt>
      <trkpt lat="46.406786" lon="14.753228">
        <ele>1669.9992</ele>
        <time>2010-09-21T11:33:44Z</time>
      </trkpt>
      <trkpt lat="46.406770" lon="14.753351">
        <ele>1669.0848</ele>
        <time>2010-09-21T11:33:51Z</time>
      </trkpt>
      <trkpt lat="46.406776" lon="14.753410">
        <ele>1667.8656</ele>
        <time>2010-09-21T11:33:56Z</time>
      </trkpt>
      <trkpt lat="46.406781" lon="14.753410">
        <ele>1667.8656</ele>
        <time>2010-09-21T11:34:03Z</time>
      </trkpt>
      <trkpt lat="46.406862" lon="14.753512">
        <ele>1662.9888</ele>
        <time>2010-09-21T11:34:08Z</time>
      </trkpt>
      <trkpt lat="46.406894" lon="14.753593">
        <ele>1658.112</ele>
        <time>2010-09-21T11:34:15Z</time>
      </trkpt>
      <trkpt lat="46.406996" lon="14.753593">
        <ele>1655.064</ele>
        <time>2010-09-21T11:34:21Z</time>
      </trkpt>
      <trkpt lat="46.406985" lon="14.753630">
        <ele>1655.9784</ele>
        <time>2010-09-21T11:34:26Z</time>
      </trkpt>
      <trkpt lat="46.407055" lon="14.753705">
        <ele>1658.112</ele>
        <time>2010-09-21T11:34:33Z</time>
      </trkpt>
      <trkpt lat="46.407167" lon="14.753695">
        <ele>1658.112</ele>
        <time>2010-09-21T11:34:38Z</time>
      </trkpt>
      <trkpt lat="46.407183" lon="14.753791">
        <ele>1658.112</ele>
        <time>2010-09-21T11:34:45Z</time>
      </trkpt>
      <trkpt lat="46.407264" lon="14.753780">
        <ele>1654.1496</ele>
        <time>2010-09-21T11:34:50Z</time>
      </trkpt>
      <trkpt lat="46.407382" lon="14.753732">
        <ele>1651.1016</ele>
        <time>2010-09-21T11:34:57Z</time>
      </trkpt>
      <trkpt lat="46.407291" lon="14.753786">
        <ele>1644.0912</ele>
        <time>2010-09-21T11:35:02Z</time>
      </trkpt>
      <trkpt lat="46.407301" lon="14.753872">
        <ele>1641.0432</ele>
        <time>2010-09-21T11:35:09Z</time>
      </trkpt>
      <trkpt lat="46.407366" lon="14.753979">
        <ele>1638.9096</ele>
        <time>2010-09-21T11:35:15Z</time>
      </trkpt>
      <trkpt lat="46.407409" lon="14.754011">
        <ele>1635.8616</ele>
        <time>2010-09-21T11:35:20Z</time>
      </trkpt>
      <trkpt lat="46.407425" lon="14.754027">
        <ele>1637.0808</ele>
        <time>2010-09-21T11:35:27Z</time>
      </trkpt>
      <trkpt lat="46.407446" lon="14.754070">
        <ele>1637.9952</ele>
        <time>2010-09-21T11:35:32Z</time>
      </trkpt>
      <trkpt lat="46.407537" lon="14.754102">
        <ele>1634.9472</ele>
        <time>2010-09-21T11:35:39Z</time>
      </trkpt>
      <trkpt lat="46.407532" lon="14.754193">
        <ele>1635.8616</ele>
        <time>2010-09-21T11:35:44Z</time>
      </trkpt>
      <trkpt lat="46.407532" lon="14.754252">
        <ele>1634.0328</ele>
        <time>2010-09-21T11:35:51Z</time>
      </trkpt>
      <trkpt lat="46.407559" lon="14.754295">
        <ele>1633.1184</ele>
        <time>2010-09-21T11:35:56Z</time>
      </trkpt>
      <trkpt lat="46.407554" lon="14.754322">
        <ele>1633.1184</ele>
        <time>2010-09-21T11:36:03Z</time>
      </trkpt>
      <trkpt lat="46.407554" lon="14.754397">
        <ele>1633.1184</ele>
        <time>2010-09-21T11:36:09Z</time>
      </trkpt>
      <trkpt lat="46.407607" lon="14.754510">
        <ele>1628.8512</ele>
        <time>2010-09-21T11:36:14Z</time>
      </trkpt>
      <trkpt lat="46.407639" lon="14.754558">
        <ele>1628.8512</ele>
        <time>2010-09-21T11:36:21Z</time>
      </trkpt>
      <trkpt lat="46.407672" lon="14.754574">
        <ele>1624.8888</ele>
        <time>2010-09-21T11:36:26Z</time>
      </trkpt>
      <trkpt lat="46.407645" lon="14.754676">
        <ele>1628.8512</ele>
        <time>2010-09-21T11:36:33Z</time>
      </trkpt>
      <trkpt lat="46.407650" lon="14.754741">
        <ele>1630.0704</ele>
        <time>2010-09-21T11:36:38Z</time>
      </trkpt>
      <trkpt lat="46.407720" lon="14.754741">
        <ele>1628.8512</ele>
        <time>2010-09-21T11:36:45Z</time>
      </trkpt>
      <trkpt lat="46.407736" lon="14.754810">
        <ele>1630.9848</ele>
        <time>2010-09-21T11:36:50Z</time>
      </trkpt>
      <trkpt lat="46.407800" lon="14.754832">
        <ele>1630.0704</ele>
        <time>2010-09-21T11:36:57Z</time>
      </trkpt>
      <trkpt lat="46.407908" lon="14.754923">
        <ele>1637.9952</ele>
        <time>2010-09-21T11:37:03Z</time>
      </trkpt>
      <trkpt lat="46.407940" lon="14.754961">
        <ele>1637.9952</ele>
        <time>2010-09-21T11:37:08Z</time>
      </trkpt>
      <trkpt lat="46.407967" lon="14.754971">
        <ele>1637.9952</ele>
        <time>2010-09-21T11:37:15Z</time>
      </trkpt>
      <trkpt lat="46.407945" lon="14.754998">
        <ele>1637.9952</ele>
        <time>2010-09-21T11:37:20Z</time>
      </trkpt>
      <trkpt lat="46.407929" lon="14.755003">
        <ele>1638.9096</ele>
        <time>2010-09-21T11:37:27Z</time>
      </trkpt>
      <trkpt lat="46.407908" lon="14.754998">
        <ele>1637.0808</ele>
        <time>2010-09-21T11:37:32Z</time>
      </trkpt>
      <trkpt lat="46.407886" lon="14.754993">
        <ele>1634.9472</ele>
        <time>2010-09-21T11:37:39Z</time>
      </trkpt>
      <trkpt lat="46.407886" lon="14.754993">
        <ele>1634.9472</ele>
        <time>2010-09-21T11:37:44Z</time>
      </trkpt>
      <trkpt lat="46.407881" lon="14.754993">
        <ele>1634.9472</ele>
        <time>2010-09-21T11:37:51Z</time>
      </trkpt>
      <trkpt lat="46.407881" lon="14.754993">
        <ele>1634.9472</ele>
        <time>2010-09-21T11:37:57Z</time>
      </trkpt>
      <trkpt lat="46.407881" lon="14.754993">
        <ele>1634.9472</ele>
        <time>2010-09-21T11:38:02Z</time>
      </trkpt>
      <trkpt lat="46.407881" lon="14.754993">
        <ele>1634.9472</ele>
        <time>2010-09-21T11:38:09Z</time>
      </trkpt>
      <trkpt lat="46.407881" lon="14.754993">
        <ele>1634.9472</ele>
        <time>2010-09-21T11:38:14Z</time>
      </trkpt>
      <trkpt lat="46.407881" lon="14.754993">
        <ele>1634.9472</ele>
        <time>2010-09-21T11:38:21Z</time>
      </trkpt>
      <trkpt lat="46.407881" lon="14.754993">
        <ele>1634.9472</ele>
        <time>2010-09-21T11:38:26Z</time>
      </trkpt>
      <trkpt lat="46.407886" lon="14.754993">
        <ele>1634.9472</ele>
        <time>2010-09-21T11:38:33Z</time>
      </trkpt>
      <trkpt lat="46.407929" lon="14.755105">
        <ele>1633.1184</ele>
        <time>2010-09-21T11:38:38Z</time>
      </trkpt>
      <trkpt lat="46.408042" lon="14.755186">
        <ele>1633.1184</ele>
        <time>2010-09-21T11:38:45Z</time>
      </trkpt>
      <trkpt lat="46.408052" lon="14.755277">
        <ele>1630.9848</ele>
        <time>2010-09-21T11:38:51Z</time>
      </trkpt>
      <trkpt lat="46.408063" lon="14.755341">
        <ele>1627.0224</ele>
        <time>2010-09-21T11:38:56Z</time>
      </trkpt>
      <trkpt lat="46.408122" lon="14.755384">
        <ele>1624.8888</ele>
        <time>2010-09-21T11:39:03Z</time>
      </trkpt>
      <trkpt lat="46.408122" lon="14.755427">
        <ele>1623.9744</ele>
        <time>2010-09-21T11:39:08Z</time>
      </trkpt>
      <trkpt lat="46.408165" lon="14.755502">
        <ele>1623.06</ele>
        <time>2010-09-21T11:39:15Z</time>
      </trkpt>
      <trkpt lat="46.408224" lon="14.755620">
        <ele>1623.9744</ele>
        <time>2010-09-21T11:39:20Z</time>
      </trkpt>
      <trkpt lat="46.408321" lon="14.755701">
        <ele>1624.8888</ele>
        <time>2010-09-21T11:39:27Z</time>
      </trkpt>
      <trkpt lat="46.408315" lon="14.755706">
        <ele>1626.108</ele>
        <time>2010-09-21T11:39:32Z</time>
      </trkpt>
      <trkpt lat="46.408305" lon="14.755738">
        <ele>1622.1456</ele>
        <time>2010-09-21T11:39:39Z</time>
      </trkpt>
      <trkpt lat="46.408347" lon="14.755819">
        <ele>1623.06</ele>
        <time>2010-09-21T11:39:45Z</time>
      </trkpt>
      <trkpt lat="46.408299" lon="14.755905">
        <ele>1634.9472</ele>
        <time>2010-09-21T11:39:50Z</time>
      </trkpt>
      <trkpt lat="46.408315" lon="14.755942">
        <ele>1638.9096</ele>
        <time>2010-09-21T11:39:57Z</time>
      </trkpt>
      <trkpt lat="46.408369" lon="14.755953">
        <ele>1640.1288</ele>
        <time>2010-09-21T11:40:02Z</time>
      </trkpt>
      <trkpt lat="46.408369" lon="14.755953">
        <ele>1638.9096</ele>
        <time>2010-09-21T11:40:09Z</time>
      </trkpt>
      <trkpt lat="46.408342" lon="14.756012">
        <ele>1637.9952</ele>
        <time>2010-09-21T11:40:14Z</time>
      </trkpt>
      <trkpt lat="46.408401" lon="14.756098">
        <ele>1631.8992</ele>
        <time>2010-09-21T11:40:21Z</time>
      </trkpt>
      <trkpt lat="46.408584" lon="14.756119">
        <ele>1630.9848</ele>
        <time>2010-09-21T11:40:26Z</time>
      </trkpt>
      <trkpt lat="46.408578" lon="14.756098">
        <ele>1627.9368</ele>
        <time>2010-09-21T11:40:33Z</time>
      </trkpt>
      <trkpt lat="46.408632" lon="14.756125">
        <ele>1627.9368</ele>
        <time>2010-09-21T11:40:39Z</time>
      </trkpt>
      <trkpt lat="46.408750" lon="14.756151">
        <ele>1627.0224</ele>
        <time>2010-09-21T11:40:44Z</time>
      </trkpt>
      <trkpt lat="46.408712" lon="14.756205">
        <ele>1626.108</ele>
        <time>2010-09-21T11:40:51Z</time>
      </trkpt>
      <trkpt lat="46.408766" lon="14.756296">
        <ele>1626.108</ele>
        <time>2010-09-21T11:40:56Z</time>
      </trkpt>
      <trkpt lat="46.408766" lon="14.756350">
        <ele>1626.108</ele>
        <time>2010-09-21T11:41:03Z</time>
      </trkpt>
      <trkpt lat="46.408830" lon="14.756436">
        <ele>1627.0224</ele>
        <time>2010-09-21T11:41:08Z</time>
      </trkpt>
      <trkpt lat="46.408809" lon="14.756554">
        <ele>1623.9744</ele>
        <time>2010-09-21T11:41:15Z</time>
      </trkpt>
      <trkpt lat="46.408809" lon="14.756672">
        <ele>1619.0976</ele>
        <time>2010-09-21T11:41:20Z</time>
      </trkpt>
      <trkpt lat="46.408793" lon="14.756704">
        <ele>1620.012</ele>
        <time>2010-09-21T11:41:27Z</time>
      </trkpt>
      <trkpt lat="46.408820" lon="14.756725">
        <ele>1617.8784</ele>
        <time>2010-09-21T11:41:33Z</time>
      </trkpt>
      <trkpt lat="46.408809" lon="14.756758">
        <ele>1619.0976</ele>
        <time>2010-09-21T11:41:38Z</time>
      </trkpt>
      <trkpt lat="46.408830" lon="14.756908">
        <ele>1616.964</ele>
        <time>2010-09-21T11:41:45Z</time>
      </trkpt>
      <trkpt lat="46.408857" lon="14.756967">
        <ele>1619.0976</ele>
        <time>2010-09-21T11:41:50Z</time>
      </trkpt>
      <trkpt lat="46.409061" lon="14.757010">
        <ele>1613.0016</ele>
        <time>2010-09-21T11:41:57Z</time>
      </trkpt>
      <trkpt lat="46.409099" lon="14.757069">
        <ele>1613.0016</ele>
        <time>2010-09-21T11:42:02Z</time>
      </trkpt>
      <trkpt lat="46.409125" lon="14.757063">
        <ele>1610.868</ele>
        <time>2010-09-21T11:42:09Z</time>
      </trkpt>
      <trkpt lat="46.409104" lon="14.757079">
        <ele>1609.9536</ele>
        <time>2010-09-21T11:42:14Z</time>
      </trkpt>
      <trkpt lat="46.409109" lon="14.757074">
        <ele>1609.0392</ele>
        <time>2010-09-21T11:42:21Z</time>
      </trkpt>
      <trkpt lat="46.409109" lon="14.757074">
        <ele>1609.0392</ele>
        <time>2010-09-21T11:42:27Z</time>
      </trkpt>
      <trkpt lat="46.409115" lon="14.757079">
        <ele>1609.0392</ele>
        <time>2010-09-21T11:42:32Z</time>
      </trkpt>
      <trkpt lat="46.409147" lon="14.757117">
        <ele>1606.9056</ele>
        <time>2010-09-21T11:42:39Z</time>
      </trkpt>
      <trkpt lat="46.409195" lon="14.757197">
        <ele>1608.1248</ele>
        <time>2010-09-21T11:42:44Z</time>
      </trkpt>
      <trkpt lat="46.409190" lon="14.757326">
        <ele>1606.9056</ele>
        <time>2010-09-21T11:42:51Z</time>
      </trkpt>
      <trkpt lat="46.409313" lon="14.757305">
        <ele>1595.9328</ele>
        <time>2010-09-21T11:42:56Z</time>
      </trkpt>
      <trkpt lat="46.409324" lon="14.757342">
        <ele>1595.9328</ele>
        <time>2010-09-21T11:43:03Z</time>
      </trkpt>
      <trkpt lat="46.409335" lon="14.757407">
        <ele>1595.9328</ele>
        <time>2010-09-21T11:43:08Z</time>
      </trkpt>
      <trkpt lat="46.409394" lon="14.757466">
        <ele>1592.8848</ele>
        <time>2010-09-21T11:43:15Z</time>
      </trkpt>
      <trkpt lat="46.409410" lon="14.757493">
        <ele>1592.8848</ele>
        <time>2010-09-21T11:43:21Z</time>
      </trkpt>
      <trkpt lat="46.409415" lon="14.757503">
        <ele>1595.0184</ele>
        <time>2010-09-21T11:43:26Z</time>
      </trkpt>
      <trkpt lat="46.409410" lon="14.757493">
        <ele>1595.9328</ele>
        <time>2010-09-21T11:43:33Z</time>
      </trkpt>
      <trkpt lat="46.409420" lon="14.757519">
        <ele>1597.152</ele>
        <time>2010-09-21T11:43:38Z</time>
      </trkpt>
      <trkpt lat="46.409410" lon="14.757637">
        <ele>1595.9328</ele>
        <time>2010-09-21T11:43:45Z</time>
      </trkpt>
      <trkpt lat="46.409394" lon="14.757745">
        <ele>1591.9704</ele>
        <time>2010-09-21T11:43:50Z</time>
      </trkpt>
      <trkpt lat="46.409394" lon="14.757852">
        <ele>1591.056</ele>
        <time>2010-09-21T11:43:57Z</time>
      </trkpt>
      <trkpt lat="46.409394" lon="14.757943">
        <ele>1588.9224</ele>
        <time>2010-09-21T11:44:02Z</time>
      </trkpt>
      <trkpt lat="46.409372" lon="14.758045">
        <ele>1587.0936</ele>
        <time>2010-09-21T11:44:09Z</time>
      </trkpt>
      <trkpt lat="46.409361" lon="14.758126">
        <ele>1584.96</ele>
        <time>2010-09-21T11:44:15Z</time>
      </trkpt>
      <trkpt lat="46.409345" lon="14.758233">
        <ele>1584.96</ele>
        <time>2010-09-21T11:44:20Z</time>
      </trkpt>
      <trkpt lat="46.409329" lon="14.758335">
        <ele>1584.0456</ele>
        <time>2010-09-21T11:44:27Z</time>
      </trkpt>
      <trkpt lat="46.409313" lon="14.758415">
        <ele>1581.912</ele>
        <time>2010-09-21T11:44:32Z</time>
      </trkpt>
      <trkpt lat="46.409324" lon="14.758447">
        <ele>1580.9976</ele>
        <time>2010-09-21T11:44:39Z</time>
      </trkpt>
      <trkpt lat="46.409318" lon="14.758506">
        <ele>1577.9496</ele>
        <time>2010-09-21T11:44:44Z</time>
      </trkpt>
      <trkpt lat="46.409313" lon="14.758539">
        <ele>1578.864</ele>
        <time>2010-09-21T11:44:51Z</time>
      </trkpt>
      <trkpt lat="46.409324" lon="14.758646">
        <ele>1577.0352</ele>
        <time>2010-09-21T11:44:56Z</time>
      </trkpt>
      <trkpt lat="46.409335" lon="14.758748">
        <ele>1577.9496</ele>
        <time>2010-09-21T11:45:03Z</time>
      </trkpt>
      <trkpt lat="46.409308" lon="14.758828">
        <ele>1577.9496</ele>
        <time>2010-09-21T11:45:09Z</time>
      </trkpt>
      <trkpt lat="46.409281" lon="14.758903">
        <ele>1577.0352</ele>
        <time>2010-09-21T11:45:14Z</time>
      </trkpt>
      <trkpt lat="46.409292" lon="14.758919">
        <ele>1577.0352</ele>
        <time>2010-09-21T11:45:21Z</time>
      </trkpt>
      <trkpt lat="46.409329" lon="14.758957">
        <ele>1577.9496</ele>
        <time>2010-09-21T11:45:26Z</time>
      </trkpt>
      <trkpt lat="46.409367" lon="14.759005">
        <ele>1577.9496</ele>
        <time>2010-09-21T11:45:33Z</time>
      </trkpt>
      <trkpt lat="46.409388" lon="14.759021">
        <ele>1578.864</ele>
        <time>2010-09-21T11:45:38Z</time>
      </trkpt>
      <trkpt lat="46.409383" lon="14.759032">
        <ele>1578.864</ele>
        <time>2010-09-21T11:45:45Z</time>
      </trkpt>
      <trkpt lat="46.409388" lon="14.759032">
        <ele>1580.0832</ele>
        <time>2010-09-21T11:45:50Z</time>
      </trkpt>
      <trkpt lat="46.409383" lon="14.759037">
        <ele>1580.0832</ele>
        <time>2010-09-21T11:45:57Z</time>
      </trkpt>
      <trkpt lat="46.409377" lon="14.759048">
        <ele>1578.864</ele>
        <time>2010-09-21T11:46:03Z</time>
      </trkpt>
      <trkpt lat="46.409377" lon="14.759048">
        <ele>1578.864</ele>
        <time>2010-09-21T11:46:08Z</time>
      </trkpt>
      <trkpt lat="46.409377" lon="14.759048">
        <ele>1578.864</ele>
        <time>2010-09-21T11:46:15Z</time>
      </trkpt>
      <trkpt lat="46.409377" lon="14.759048">
        <ele>1578.864</ele>
        <time>2010-09-21T11:46:20Z</time>
      </trkpt>
      <trkpt lat="46.409377" lon="14.759048">
        <ele>1578.864</ele>
        <time>2010-09-21T11:46:27Z</time>
      </trkpt>
      <trkpt lat="46.409372" lon="14.759037">
        <ele>1578.864</ele>
        <time>2010-09-21T11:46:32Z</time>
      </trkpt>
      <trkpt lat="46.409276" lon="14.759177">
        <ele>1592.8848</ele>
        <time>2010-09-21T12:11:55Z</time>
      </trkpt>
      <trkpt lat="46.409302" lon="14.759177">
        <ele>1598.9808</ele>
        <time>2010-09-21T12:12:00Z</time>
      </trkpt>
      <trkpt lat="46.409297" lon="14.759172">
        <ele>1598.0664</ele>
        <time>2010-09-21T12:12:07Z</time>
      </trkpt>
      <trkpt lat="46.409431" lon="14.759059">
        <ele>1580.9976</ele>
        <time>2010-09-21T12:12:13Z</time>
      </trkpt>
      <trkpt lat="46.409388" lon="14.759054">
        <ele>1577.9496</ele>
        <time>2010-09-21T12:12:18Z</time>
      </trkpt>
      <trkpt lat="46.409383" lon="14.759048">
        <ele>1576.1208</ele>
        <time>2010-09-21T12:12:25Z</time>
      </trkpt>
      <trkpt lat="46.409372" lon="14.759043">
        <ele>1577.9496</ele>
        <time>2010-09-21T12:12:30Z</time>
      </trkpt>
      <trkpt lat="46.409377" lon="14.759054">
        <ele>1578.864</ele>
        <time>2010-09-21T12:12:37Z</time>
      </trkpt>
      <trkpt lat="46.409377" lon="14.759054">
        <ele>1578.864</ele>
        <time>2010-09-21T12:12:42Z</time>
      </trkpt>
      <trkpt lat="46.409377" lon="14.759054">
        <ele>1578.864</ele>
        <time>2010-09-21T12:12:49Z</time>
      </trkpt>
      <trkpt lat="46.409377" lon="14.758989">
        <ele>1578.864</ele>
        <time>2010-09-21T12:12:54Z</time>
      </trkpt>
      <trkpt lat="46.409410" lon="14.758946">
        <ele>1580.0832</ele>
        <time>2010-09-21T12:13:01Z</time>
      </trkpt>
      <trkpt lat="46.409447" lon="14.758941">
        <ele>1580.9976</ele>
        <time>2010-09-21T12:13:07Z</time>
      </trkpt>
      <trkpt lat="46.409469" lon="14.758936">
        <ele>1580.0832</ele>
        <time>2010-09-21T12:13:12Z</time>
      </trkpt>
      <trkpt lat="46.409490" lon="14.758952">
        <ele>1580.9976</ele>
        <time>2010-09-21T12:13:19Z</time>
      </trkpt>
      <trkpt lat="46.409495" lon="14.758952">
        <ele>1580.9976</ele>
        <time>2010-09-21T12:13:24Z</time>
      </trkpt>
      <trkpt lat="46.409490" lon="14.758952">
        <ele>1580.9976</ele>
        <time>2010-09-21T12:13:31Z</time>
      </trkpt>
      <trkpt lat="46.409549" lon="14.758973">
        <ele>1581.912</ele>
        <time>2010-09-21T12:13:36Z</time>
      </trkpt>
    </trkseg>
  </trk>
</gpx>
